[[{"header":{"parameterUnit":"m.s-1","parameterCategory":1,"la1":30.6,"la2":29.2853,"lo1":-89.7004,"lo2":-87.6739,"dx":0.0162,"dy":0.0183,"nx":112,"ny":82,"refTime":"2022-11-14T06:00:00:Z","depth":0,"parameterNumber":2,"parameterNumberName":"U-component_of_WINDS"},"data":[0.0,0.0,0.0,0.0,0.0,0.0,0.0,0.0,0.0,0.0,0.0,0.0,0.0,0.0,0.0,0.0,0.0,0.0,0.0,0.0,0.0,0.0,0.0,0.0,0.0,0.0,0.0,0.0,0.0,0.0,0.0,0.0,0.0,0.0,0.0,0.0,0.0,0.0,0.0,0.0,0.0,0.0,0.0,0.0,0.0,0.0,0.0,0.0,0.0,0.0,0.0,0.0,0.0,0.0,0.0,0.0,0.0,0.0,0.0,0.0,0.0,0.0,0.0,0.0,0.0,0.0,0.0,0.0,0.0,0.0,0.0,0.0,0.0,0.0,0.0,0.0,0.0,0.0,0.0,0.0,0.0,0.0,0.0,0.0,0.0,0.0,0.0,0.0,0.0,0.0,0.0,6.9304,7.4154,7.7197,7.7273,7.7237,7.3386,6.452,0.0,0.0,0.0,0.0,0.0,0.0,0.0,0.0,0.0,0.0,0.0,0.0,0.0,0.0,0.0,0.0,0.0,0.0,0.0,0.0,0.0,0.0,0.0,0.0,0.0,0.0,0.0,0.0,0.0,0.0,0.0,0.0,0.0,0.0,0.0,0.0,0.0,0.0,0.0,0.0,0.0,0.0,0.0,0.0,0.0,0.0,0.0,0.0,0.0,0.0,0.0,0.0,0.0,0.0,0.0,0.0,0.0,0.0,0.0,0.0,0.0,0.0,0.0,0.0,0.0,0.0,0.0,0.0,0.0,0.0,0.0,0.0,0.0,0.0,0.0,0.0,0.0,0.0,0.0,0.0,0.0,0.0,0.0,0.0,0.0,0.0,0.0,0.0,0.0,0.0,0.0,0.0,0.0,0.0,0.0,0.0,0.0,0.0,0.0,0.0,0.0,0.0,0.0,0.0,6.5649,7.5279,7.8389,7.9268,7.8239,7.861,7.4659,6.4592,0.0,0.0,0.0,0.0,0.0,0.0,0.0,0.0,0.0,0.0,0.0,0.0,0.0,0.0,0.0,0.0,0.0,0.0,0.0,0.0,0.0,0.0,0.0,0.0,0.0,0.0,0.0,0.0,0.0,0.0,0.0,0.0,0.0,0.0,0.0,0.0,0.0,0.0,0.0,0.0,0.0,0.0,0.0,0.0,0.0,0.0,0.0,0.0,0.0,0.0,0.0,0.0,0.0,0.0,0.0,0.0,0.0,0.0,0.0,0.0,0.0,0.0,0.0,0.0,0.0,0.0,0.0,0.0,0.0,0.0,0.0,0.0,0.0,0.0,0.0,0.0,0.0,0.0,0.0,0.0,0.0,0.0,0.0,0.0,0.0,0.0,0.0,0.0,0.0,0.0,0.0,0.0,0.0,0.0,0.0,0.0,0.0,0.0,0.0,0.0,0.0,0.0,0.0,6.4268,7.0023,7.8256,8.0221,8.0933,8.0988,8.0353,7.6169,6.7184,6.3538,0.0,0.0,0.0,0.0,0.0,0.0,0.0,0.0,0.0,0.0,0.0,0.0,0.0,0.0,0.0,0.0,0.0,0.0,0.0,0.0,0.0,0.0,0.0,0.0,0.0,0.0,0.0,0.0,0.0,0.0,0.0,0.0,0.0,0.0,0.0,0.0,0.0,0.0,0.0,0.0,0.0,0.0,0.0,0.0,0.0,0.0,0.0,0.0,0.0,0.0,0.0,0.0,0.0,0.0,0.0,0.0,0.0,0.0,0.0,0.0,0.0,0.0,0.0,0.0,0.0,0.0,0.0,0.0,0.0,0.0,0.0,0.0,0.0,0.0,0.0,0.0,0.0,0.0,0.0,0.0,0.0,0.0,0.0,0.0,0.0,0.0,0.0,0.0,0.0,0.0,0.0,0.0,0.0,0.0,0.0,0.0,0.0,0.0,0.0,0.0,0.0,0.0,7.0408,7.5446,8.0345,8.1797,8.2695,8.344,8.1652,7.7164,6.9285,6.4838,0.0,0.0,0.0,0.0,0.0,0.0,0.0,0.0,0.0,0.0,0.0,0.0,0.0,0.0,0.0,0.0,0.0,0.0,0.0,0.0,0.0,0.0,0.0,0.0,0.0,0.0,0.0,0.0,0.0,0.0,0.0,0.0,0.0,0.0,0.0,0.0,0.0,0.0,0.0,0.0,0.0,0.0,0.0,0.0,0.0,0.0,0.0,0.0,0.0,0.0,0.0,0.0,0.0,0.0,0.0,0.0,0.0,0.0,0.0,0.0,0.0,0.0,0.0,0.0,0.0,0.0,0.0,0.0,0.0,0.0,0.0,0.0,0.0,0.0,0.0,0.0,0.0,0.0,0.0,0.0,0.0,0.0,0.0,0.0,0.0,0.0,0.0,0.0,0.0,0.0,0.0,0.0,0.0,0.0,0.0,0.0,0.0,0.0,0.0,0.0,0.0,0.0,7.3847,8.0198,8.2326,8.4102,8.4892,8.4369,8.1948,7.7164,6.9285,6.4274,0.0,0.0,0.0,0.0,0.0,0.0,0.0,0.0,0.0,0.0,0.0,0.0,0.0,0.0,0.0,0.0,0.0,0.0,0.0,0.0,0.0,0.0,0.0,0.0,0.0,0.0,0.0,0.0,0.0,0.0,0.0,0.0,0.0,0.0,0.0,0.0,0.0,0.0,0.0,0.0,0.0,0.0,0.0,0.0,0.0,0.0,0.0,0.0,0.0,0.0,0.0,0.0,0.0,0.0,0.0,0.0,0.0,0.0,0.0,0.0,0.0,0.0,0.0,0.0,0.0,0.0,0.0,0.0,0.0,0.0,0.0,0.0,0.0,0.0,0.0,0.0,0.0,0.0,0.0,0.0,0.0,0.0,0.0,0.0,0.0,0.0,0.0,0.0,0.0,0.0,0.0,0.0,0.0,0.0,0.0,0.0,0.0,0.0,0.0,0.0,0.0,0.0,7.327,7.9543,0.0,8.5842,8.7042,8.7415,8.5571,8.0419,7.0941,0.0,0.0,0.0,0.0,0.0,0.0,0.0,0.0,0.0,0.0,0.0,0.0,0.0,0.0,0.0,0.0,0.0,0.0,0.0,0.0,0.0,0.0,0.0,0.0,0.0,0.0,0.0,0.0,0.0,0.0,0.0,0.0,0.0,0.0,0.0,0.0,0.0,0.0,0.0,0.0,0.0,0.0,0.0,0.0,0.0,0.0,0.0,0.0,0.0,0.0,0.0,0.0,0.0,0.0,0.0,0.0,0.0,0.0,0.0,0.0,0.0,0.0,0.0,0.0,0.0,0.0,0.0,0.0,0.0,0.0,0.0,0.0,0.0,0.0,0.0,0.0,0.0,0.0,0.0,0.0,0.0,0.0,0.0,0.0,0.0,0.0,0.0,0.0,0.0,0.0,0.0,0.0,0.0,0.0,0.0,0.0,0.0,0.0,0.0,0.0,0.0,0.0,6.6765,7.4433,8.0901,0.0,8.7359,8.8859,8.9644,8.739,8.1957,7.2471,0.0,0.0,0.0,0.0,0.0,0.0,0.0,0.0,0.0,0.0,0.0,0.0,0.0,0.0,0.0,0.0,0.0,0.0,0.0,0.0,0.0,0.0,0.0,0.0,0.0,0.0,0.0,0.0,0.0,0.0,0.0,0.0,0.0,0.0,0.0,0.0,0.0,0.0,0.0,0.0,0.0,0.0,0.0,0.0,0.0,0.0,0.0,0.0,0.0,0.0,0.0,0.0,0.0,0.0,0.0,0.0,0.0,0.0,0.0,0.0,0.0,0.0,0.0,0.0,0.0,0.0,0.0,0.0,0.0,0.0,0.0,0.0,0.0,0.0,0.0,0.0,0.0,0.0,0.0,0.0,0.0,0.0,0.0,0.0,0.0,0.0,0.0,0.0,0.0,0.0,0.0,0.0,0.0,0.0,0.0,0.0,0.0,0.0,0.0,0.0,0.0,0.0,6.7832,7.8033,8.5271,8.6241,8.8627,9.0304,9.0499,8.6697,8.1046,0.0,0.0,0.0,0.0,0.0,0.0,0.0,0.0,0.0,0.0,0.0,0.0,0.0,0.0,0.0,0.0,0.0,0.0,0.0,0.0,0.0,0.0,0.0,0.0,0.0,0.0,0.0,0.0,0.0,0.0,0.0,0.0,0.0,0.0,0.0,0.0,0.0,0.0,0.0,0.0,0.0,0.0,0.0,0.0,0.0,0.0,0.0,0.0,0.0,0.0,0.0,0.0,0.0,0.0,0.0,0.0,0.0,0.0,0.0,0.0,0.0,0.0,0.0,0.0,0.0,0.0,0.0,0.0,0.0,0.0,0.0,0.0,0.0,0.0,0.0,0.0,0.0,0.0,0.0,0.0,0.0,0.0,0.0,0.0,0.0,0.0,0.0,0.0,0.0,0.0,0.0,0.0,0.0,0.0,0.0,0.0,0.0,0.0,0.0,0.0,0.0,0.0,0.0,6.8814,7.9032,8.6463,8.8063,9.0008,9.1288,9.1353,9.0175,8.469,7.3379,0.0,0.0,0.0,0.0,0.0,0.0,0.0,0.0,0.0,0.0,0.0,0.0,0.0,0.0,0.0,0.0,0.0,0.0,0.0,0.0,0.0,0.0,0.0,0.0,0.0,0.0,0.0,0.0,0.0,0.0,0.0,0.0,0.0,0.0,0.0,0.0,0.0,0.0,0.0,0.0,0.0,0.0,0.0,0.0,0.0,0.0,0.0,0.0,0.0,0.0,0.0,0.0,0.0,0.0,0.0,0.0,0.0,0.0,0.0,0.0,0.0,0.0,0.0,0.0,0.0,0.0,0.0,0.0,0.0,0.0,0.0,0.0,0.0,0.0,0.0,0.0,0.0,0.0,0.0,0.0,0.0,0.0,0.0,0.0,0.0,0.0,0.0,0.0,0.0,0.0,0.0,0.0,0.0,0.0,0.0,0.0,0.0,0.0,0.0,0.0,0.0,0.0,6.9273,7.9391,8.7084,8.9313,9.1371,9.2625,9.2691,9.2393,8.7915,7.7678,0.0,0.0,0.0,0.0,0.0,0.0,0.0,0.0,0.0,0.0,0.0,0.0,0.0,0.0,0.0,0.0,0.0,0.0,0.0,0.0,0.0,0.0,0.0,0.0,0.0,0.0,0.0,0.0,0.0,0.0,0.0,0.0,0.0,0.0,0.0,0.0,0.0,0.0,0.0,0.0,0.0,0.0,0.0,0.0,0.0,0.0,0.0,0.0,0.0,0.0,0.0,0.0,0.0,0.0,0.0,0.0,0.0,0.0,0.0,0.0,0.0,0.0,0.0,0.0,0.0,0.0,0.0,0.0,0.0,0.0,0.0,0.0,0.0,0.0,0.0,0.0,0.0,0.0,0.0,0.0,0.0,0.0,0.0,0.0,0.0,0.0,0.0,0.0,0.0,0.0,0.0,0.0,0.0,0.0,0.0,0.0,0.0,0.0,0.0,0.0,0.0,0.0,6.9389,7.9634,8.7518,9.0136,9.2572,9.4086,9.4325,9.3582,9.0481,8.4284,0.0,0.0,0.0,0.0,0.0,0.0,0.0,0.0,0.0,0.0,0.0,0.0,0.0,0.0,0.0,0.0,0.0,0.0,0.0,0.0,0.0,0.0,0.0,0.0,0.0,0.0,0.0,0.0,0.0,0.0,0.0,0.0,0.0,0.0,0.0,0.0,0.0,0.0,0.0,0.0,0.0,0.0,0.0,0.0,0.0,0.0,0.0,0.0,0.0,0.0,0.0,0.0,0.0,0.0,0.0,0.0,0.0,0.0,0.0,0.0,6.2537,0.0,0.0,0.0,0.0,0.0,0.0,0.0,0.0,0.0,0.0,0.0,0.0,0.0,0.0,0.0,0.0,0.0,0.0,0.0,0.0,0.0,0.0,0.0,0.0,0.0,0.0,0.0,0.0,0.0,0.0,0.0,0.0,0.0,0.0,0.0,0.0,0.0,0.0,0.0,0.0,0.0,7.0346,8.1659,8.9891,9.1128,9.356,9.5075,9.5143,9.44,9.1231,8.4838,0.0,0.0,0.0,0.0,0.0,0.0,0.0,0.0,0.0,0.0,0.0,0.0,0.0,0.0,0.0,0.0,0.0,0.0,0.0,0.0,0.0,0.0,0.0,0.0,0.0,0.0,0.0,0.0,0.0,0.0,0.0,0.0,0.0,0.0,0.0,0.0,0.0,0.0,0.0,0.0,0.0,0.0,0.0,0.0,0.0,0.0,0.0,0.0,0.0,0.0,0.0,0.0,0.0,0.0,0.0,0.0,0.0,0.0,0.0,0.0,0.0,6.2745,0.0,0.0,0.0,0.0,0.0,0.0,0.0,0.0,0.0,0.0,0.0,0.0,0.0,0.0,0.0,0.0,0.0,0.0,0.0,0.0,0.0,0.0,0.0,0.0,0.0,0.0,0.0,0.0,0.0,0.0,0.0,0.0,0.0,0.0,0.0,0.0,0.0,0.0,0.0,0.0,7.3243,8.3081,9.0389,9.2566,9.4704,9.5997,9.5997,9.5588,9.3745,9.0069,8.5258,0.0,0.0,0.0,0.0,0.0,0.0,0.0,0.0,0.0,0.0,0.0,0.0,0.0,0.0,0.0,0.0,0.0,0.0,0.0,0.0,0.0,0.0,0.0,0.0,0.0,0.0,0.0,0.0,0.0,0.0,0.0,0.0,0.0,0.0,0.0,0.0,0.0,0.0,0.0,0.0,0.0,0.0,0.0,0.0,0.0,0.0,0.0,0.0,0.0,0.0,0.0,0.0,0.0,0.0,0.0,6.9868,7.0477,7.1213,7.1835,6.8752,6.776,6.8054,0.0,0.0,0.0,0.0,0.0,0.0,0.0,0.0,0.0,0.0,0.0,0.0,0.0,0.0,0.0,0.0,0.0,0.0,0.0,0.0,0.0,0.0,0.0,0.0,0.0,6.92,6.8657,0.0,0.0,0.0,0.0,0.0,0.0,0.0,0.0,0.0,0.0,0.0,0.0,7.6773,8.473,9.0845,9.382,9.5774,9.6814,9.6814,9.6703,9.6263,9.5489,8.8582,8.4282,0.0,0.0,0.0,0.0,0.0,0.0,0.0,0.0,0.0,0.0,0.0,0.0,0.0,0.0,0.0,0.0,0.0,0.0,0.0,0.0,0.0,0.0,0.0,0.0,0.0,0.0,0.0,0.0,0.0,0.0,0.0,0.0,5.8473,6.0241,0.0,0.0,0.0,0.0,0.0,0.0,0.0,0.0,0.0,0.0,0.0,0.0,0.0,0.0,7.2532,7.3075,7.4386,7.638,7.6433,7.6839,7.7503,7.7413,7.8148,7.9433,7.6864,0.0,7.0734,6.9486,0.0,0.0,0.0,0.0,0.0,0.0,0.0,0.0,0.0,0.0,0.0,0.0,0.0,0.0,0.0,0.0,0.0,0.0,0.0,0.0,0.0,0.0,7.4811,7.5715,7.5944,7.6082,0.0,7.0108,6.4243,6.3645,0.0,0.0,0.0,0.0,0.0,0.0,0.0,0.0,7.958,8.7948,9.3604,9.3937,9.6226,9.7743,9.7743,9.7037,9.6347,9.5699,9.2789,8.9625,8.6376,8.0852,0.0,0.0,0.0,0.0,0.0,0.0,0.0,0.0,0.0,0.0,0.0,0.0,0.0,0.0,0.0,0.0,0.0,0.0,0.0,0.0,0.0,0.0,0.0,0.0,0.0,0.0,0.0,0.0,0.0,5.8495,6.1594,6.4463,6.2928,6.1704,0.0,0.0,0.0,0.0,0.0,0.0,0.0,0.0,0.0,7.134,7.2354,7.4108,7.6722,7.782,7.8935,7.9971,8.0392,8.102,8.1894,8.1711,8.2186,8.3088,8.1608,7.9853,7.7818,7.4258,7.1908,7.0367,0.0,0.0,0.0,0.0,0.0,6.6531,6.8762,0.0,0.0,0.0,0.0,0.0,0.0,0.0,0.0,0.0,0.0,0.0,0.0,0.0,0.0,7.9003,7.969,7.9974,7.9974,7.7632,7.4405,0.0,6.9669,6.7748,6.3199,0.0,0.0,0.0,0.0,0.0,8.4485,9.0365,9.4376,9.5304,9.6894,9.7892,9.7892,9.7203,9.6694,9.6363,9.4111,9.2146,9.0728,8.5274,7.9737,0.0,0.0,0.0,0.0,0.0,0.0,0.0,0.0,0.0,0.0,0.0,0.0,0.0,0.0,0.0,0.0,0.0,0.0,0.0,0.0,0.0,0.0,0.0,0.0,0.0,0.0,0.0,0.0,6.1168,6.4396,6.8535,6.688,6.5616,0.0,0.0,0.0,0.0,0.0,0.0,7.1045,7.1672,7.3278,7.605,7.7308,7.875,8.0318,8.1599,8.2399,8.2645,8.3115,8.3744,8.4497,8.4336,8.4589,8.5198,8.4387,8.4146,8.4015,7.8883,7.6166,7.5139,7.4206,7.25,7.079,7.2188,7.2134,7.1542,7.3754,7.5084,7.5698,7.4669,0.0,7.3141,7.1198,0.0,0.0,0.0,0.0,7.305,7.5574,7.7771,7.9968,8.2047,8.3008,8.3285,8.2792,8.3478,8.2559,0.0,7.5462,7.3398,6.8618,0.0,0.0,0.0,0.0,8.207,8.8598,9.2288,9.4895,9.6443,9.7372,9.7892,9.7892,9.7321,9.6803,9.6652,9.4457,9.3294,9.3539,8.8785,8.4294,8.0289,0.0,0.0,0.0,0.0,0.0,0.0,0.0,0.0,0.0,0.0,0.0,0.0,0.0,0.0,0.0,0.0,0.0,0.0,0.0,0.0,0.0,0.0,0.0,0.0,0.0,0.0,0.0,0.0,0.0,7.0971,7.1268,0.0,0.0,0.0,0.0,6.9925,7.0971,7.3054,7.631,7.6533,7.8014,8.12,8.1599,8.2334,8.3682,8.4039,8.4606,8.5201,8.5238,8.5275,8.5312,8.5123,8.5466,8.6204,8.5198,8.5684,8.6863,8.328,8.0901,7.9323,7.7831,7.6236,7.4874,7.5757,7.6015,7.6273,7.8614,7.9559,7.9719,7.9496,7.8554,7.7054,7.4726,7.4055,0.0,0.0,7.5122,7.8201,8.1123,8.3208,8.4919,8.6334,8.6684,8.6824,8.7376,8.633,8.4442,0.0,8.2422,8.2283,7.6587,0.0,7.9642,7.861,8.202,8.6304,9.0593,9.3591,9.5663,9.6517,9.7372,9.7892,9.7892,9.7321,9.6652,9.5991,9.4612,9.3453,9.2872,9.0427,8.7496,8.414,7.8916,0.0,0.0,0.0,0.0,0.0,0.0,0.0,0.0,0.0,0.0,0.0,0.0,0.0,0.0,0.0,0.0,0.0,0.0,0.0,0.0,0.0,0.0,0.0,0.0,0.0,0.0,0.0,0.0,7.265,7.3171,0.0,0.0,7.4133,7.4441,7.4233,7.6696,7.866,7.9903,8.0978,8.2149,8.3418,8.4035,8.4532,8.4966,8.5608,8.6078,8.6314,8.687,8.7427,8.791,8.7847,8.8164,8.884,8.783,8.766,8.7931,8.6035,8.4646,8.3544,8.2508,8.17,8.1259,8.1553,8.1755,8.2054,8.2849,8.3271,8.3398,8.3107,8.2739,8.2213,8.137,8.1517,8.1921,8.1652,8.2744,8.4205,8.538,8.6366,8.7206,8.7794,8.8212,8.8251,8.7299,8.7184,8.6459,8.347,8.37,8.3519,8.0977,8.1839,8.2796,8.2806,8.5013,8.8104,9.1874,9.3455,9.4669,9.5918,9.64,9.6652,9.6652,9.6027,9.5622,9.5373,9.4439,9.3802,9.3567,9.1976,8.9923,8.7444,8.4166,7.7509,0.0,0.0,0.0,0.0,0.0,0.0,0.0,0.0,0.0,0.0,0.0,0.0,0.0,0.0,0.0,0.0,0.0,0.0,0.0,0.0,0.0,0.0,0.0,0.0,0.0,0.0,7.0701,7.4706,7.5776,7.6338,7.6751,7.7831,7.8456,7.8491,8.1067,8.2765,8.3024,8.41,8.4953,8.5632,8.5892,8.6264,8.6821,8.7378,8.749,8.723,8.8381,8.905,8.931,8.957,8.9952,9.0304,8.9654,8.9263,8.9018,8.8004,8.7242,8.6549,8.5521,8.5264,8.5343,8.4926,8.4838,8.5069,8.5005,8.5133,8.5261,8.4968,8.4968,8.5106,8.5401,8.5844,8.6324,8.6713,8.7128,8.7616,8.8236,8.8483,8.872,8.9341,8.9678,8.9414,8.8075,8.8203,8.8039,8.5951,8.5193,8.4492,8.2874,8.3149,8.3484,8.2828,8.4287,8.6335,8.8703,9.0611,9.2264,9.3856,9.4906,9.5619,9.5874,9.4022,9.3422,9.4914,9.2943,9.2387,9.3648,9.1098,8.8905,8.7235,8.3415,7.7581,6.9578,0.0,0.0,0.0,0.0,0.0,0.0,0.0,0.0,0.0,0.0,0.0,0.0,0.0,0.0,0.0,0.0,0.0,0.0,0.0,0.0,0.0,0.0,0.0,6.8766,7.1539,7.4287,7.734,7.9312,8.0308,8.0124,8.1168,8.2066,8.2758,8.3817,8.4815,8.5632,8.5706,8.6449,8.8084,8.7304,8.7638,8.9236,8.9273,8.8864,8.8121,8.9681,9.0016,8.9273,9.0053,9.0424,9.0462,9.0267,9.0202,9.0091,8.9115,8.8686,8.8336,8.6752,8.647,8.6917,8.5632,8.5078,8.5013,8.5106,8.517,8.517,8.517,8.5297,8.5608,8.6386,8.6645,8.6831,8.7646,8.7868,8.8174,8.9602,8.9698,8.9713,9.1106,9.1053,9.0421,9.0012,8.9556,8.9039,8.8596,8.7529,8.5715,8.2483,8.2535,8.2017,7.9086,8.0281,0.0,8.1449,8.5427,8.8853,9.0305,9.2939,9.4883,9.5611,9.1351,9.0468,9.4648,9.0407,8.934,9.3038,8.8206,8.4934,8.3938,7.669,7.3856,7.5651,0.0,0.0,0.0,0.0,0.0,0.0,0.0,0.0,0.0,0.0,0.0,0.0,0.0,0.0,0.0,0.0,0.0,0.0,0.0,0.0,0.0,0.0,7.0589,7.1866,7.313,7.5494,7.9915,8.1403,8.2253,8.2781,8.3744,8.446,8.462,8.5547,8.6524,8.7378,8.7973,8.8493,8.8938,8.8753,8.853,8.8418,8.8418,8.8307,8.8084,8.853,8.8641,8.8418,8.8641,8.9087,8.9607,8.8822,8.8831,8.9276,8.8228,8.8236,8.8612,8.7446,8.7452,8.7973,8.7077,8.6804,8.6999,8.7063,8.7127,8.7227,8.6897,8.6999,8.7164,8.7386,8.7868,8.8387,8.8774,8.9155,8.9728,9.0389,9.0296,9.0228,9.0838,9.0783,9.0421,8.9556,8.93,8.8916,8.8143,8.769,8.7153,8.5837,8.5811,8.5768,8.5275,8.5883,0.0,8.7597,8.9008,8.9438,8.8284,9.1295,9.2633,9.078,9.1781,9.2872,9.3669,9.2743,9.2361,9.2568,9.116,8.9625,8.8049,8.0817,7.71,0.0,0.0,0.0,0.0,0.0,0.0,0.0,0.0,0.0,0.0,0.0,0.0,0.0,0.0,0.0,0.0,0.0,0.0,0.0,0.0,0.0,0.0,7.2729,7.5578,7.7011,7.7586,7.886,8.1699,8.3115,8.4065,8.4321,8.5386,8.593,8.5868,8.6833,8.7564,8.8047,8.853,8.8938,8.9273,8.8976,8.8716,8.8604,8.8938,8.8938,8.8604,8.9644,8.9942,8.9607,8.9979,9.0387,0.0,9.0221,9.0073,9.011,8.9498,8.9358,0.0,0.0,0.0,0.0,0.0,8.7702,8.7958,8.7958,8.8021,8.8084,8.7858,8.7794,8.7995,8.8366,8.8552,8.8774,8.9607,8.9803,8.9979,9.0647,9.0483,9.0185,9.0486,9.0304,8.9965,8.9335,8.9249,8.9075,8.8542,8.827,0.0,8.7714,8.6756,8.5671,8.4578,8.4952,8.5375,8.55,8.7066,8.7919,8.7101,9.0196,9.1817,9.0652,9.085,0.0,0.0,0.0,9.0258,8.924,8.9046,0.0,0.0,0.0,0.0,0.0,0.0,0.0,0.0,6.7971,6.5412,0.0,0.0,0.0,0.0,0.0,0.0,0.0,0.0,0.0,0.0,0.0,0.0,0.0,0.0,0.0,0.0,7.588,7.9462,8.2708,8.3237,8.3349,8.3337,8.4707,8.5695,8.5567,8.6412,8.6908,8.6783,8.7613,8.8121,8.8233,0.0,0.0,0.0,0.0,8.8567,8.9273,9.0016,9.0053,8.9459,9.165,9.2319,9.1576,9.2356,9.2728,9.2728,9.2728,9.2282,9.1576,9.1576,9.1103,9.0128,8.8646,8.8331,8.8709,8.8248,8.8181,8.8233,8.8344,0.0,0.0,8.827,8.8307,8.8493,8.9124,8.8864,8.8641,9.0026,8.9915,8.9563,9.0475,9.0374,8.9989,9.0258,8.9964,8.957,8.9463,8.9463,8.9427,8.932,8.8934,8.8596,8.8506,8.6451,8.3948,8.1083,8.1379,8.1418,8.0282,8.3261,8.5764,8.6446,0.0,0.0,9.233,8.9165,8.8604,9.2154,8.8794,8.6281,8.555,8.507,8.3693,8.1331,7.9574,8.0844,8.5255,8.3487,8.322,8.3994,7.3245,6.9798,0.0,0.0,0.0,0.0,0.0,0.0,0.0,0.0,0.0,0.0,0.0,0.0,0.0,0.0,0.0,7.6876,7.9779,8.2423,8.4358,8.5485,8.6276,8.6982,8.6722,8.7081,8.8393,8.8121,8.7861,8.7799,8.801,8.8381,8.9013,8.905,0.0,8.931,8.9161,8.9124,8.931,8.9459,8.9793,9.0276,0.0,0.0,9.0722,9.0907,9.0982,9.0982,9.0982,9.0907,9.0722,9.0722,9.0647,9.0434,9.0008,8.9498,8.8988,8.9702,8.9607,8.9161,8.9793,9.0053,8.9942,8.9273,8.9496,8.9942,8.9459,8.9644,0.0,8.9824,8.9651,8.9702,9.0207,9.0248,9.0367,9.1133,9.1229,9.0997,9.0391,9.0284,9.007,8.9427,8.9233,8.9023,8.8596,8.8063,8.7352,8.639,8.6697,8.6948,8.6681,8.7355,8.7232,8.5551,8.8242,8.9376,8.7781,8.9179,9.068,9.1964,9.106,9.0458,9.0284,8.9777,8.9226,8.8742,8.7779,8.7744,8.8708,8.7744,8.6714,8.5613,8.1451,7.8812,0.0,0.0,0.0,0.0,0.0,0.0,0.0,0.0,0.0,0.0,0.0,7.0236,0.0,0.0,7.7836,7.9805,8.2684,8.4953,8.5831,8.6808,8.7452,8.7452,8.7452,8.7787,8.8604,8.8344,8.827,8.8678,8.8307,8.8455,8.9273,8.931,8.931,8.931,8.9681,8.9904,8.9904,9.0313,9.0685,9.1093,9.1539,9.1762,9.1762,9.1762,9.1762,9.1762,9.1762,9.1762,9.1762,9.1762,9.1762,9.1688,9.1214,9.0481,8.9813,9.035,9.0239,8.9942,9.035,9.0499,9.0424,9.0016,9.0164,9.0424,9.0016,9.0164,9.0509,9.0617,9.0421,9.0296,9.0575,9.0755,9.0887,9.103,9.1319,9.1283,9.0141,9.0212,9.0141,8.8928,8.9035,8.9198,8.8934,8.8899,8.8632,8.7866,8.8234,8.8416,8.8143,8.8325,8.8133,8.7176,8.8664,8.9265,8.8305,8.9788,9.0765,9.0822,9.1087,9.1196,9.1196,9.0917,9.0812,9.0812,9.0433,9.026,9.026,8.9426,8.8418,8.7098,8.5516,8.3474,0.0,0.0,0.0,0.0,0.0,0.0,0.0,0.0,7.1156,7.2982,7.3591,7.4384,7.6417,7.8729,8.0762,8.2325,8.4867,8.6671,8.6982,8.7638,8.7824,8.7118,8.7675,8.8158,8.8307,8.8307,8.8604,8.9236,8.8827,8.8827,8.9496,8.9533,8.9533,8.9533,9.0164,9.0573,9.0722,9.139,9.1799,9.1948,9.2653,9.2988,9.2988,9.2988,9.2988,9.2988,9.2988,9.2988,9.2988,9.2988,9.2988,9.2914,9.2245,9.1576,9.0982,9.0796,9.0722,9.0759,9.0945,9.0982,9.0945,9.0796,9.0833,9.0945,9.0796,9.0833,9.1028,9.1461,9.127,9.085,9.098,9.1072,9.1151,9.0852,9.1176,9.1212,8.9856,9.0177,9.0284,8.8856,8.9213,8.9749,8.9661,8.9466,8.9023,8.8086,8.8234,8.8325,8.7866,8.8143,8.8481,8.8744,8.9002,8.9248,8.9503,9.0164,9.0427,8.9916,9.0641,9.1125,9.1054,9.0881,9.0812,9.0812,9.0812,9.0707,9.0601,8.9813,8.8922,8.798,8.7094,8.5591,6.5459,6.6284,6.8023,6.9224,7.0916,7.3199,0.0,0.0,7.6588,7.9051,8.0563,8.1551,8.1809,8.325,8.4727,8.5614,8.6249,8.6831,8.7572,8.7947,8.8047,8.7973,8.8047,8.8381,8.9087,8.9161,8.9198,8.9273,8.9867,9.0276,9.035,9.0387,9.0387,9.0387,9.0462,9.0833,9.1576,9.165,9.2096,9.2839,9.2951,9.2988,9.2988,9.2988,9.2988,9.2988,9.2988,9.2988,9.2988,9.2988,9.2988,9.2988,9.2876,9.2802,9.2616,9.1836,9.1576,9.1688,9.2431,9.2728,9.2579,9.1836,9.2096,9.2579,9.1799,9.2096,9.2492,9.1473,9.1139,9.1016,9.0623,9.0601,9.0728,9.1319,9.1533,9.139,9.0534,9.0962,9.1247,9.0391,9.0819,9.1176,9.0779,9.012,8.9411,8.8522,8.8506,8.8325,8.7866,8.7901,8.7901,8.7913,8.7571,8.7449,8.7422,8.9668,9.0892,9.0427,9.1782,9.2374,9.1847,9.1192,9.0812,9.0812,9.0812,9.0353,8.9593,8.9593,8.8632,8.6905,8.6765,8.5854,7.0302,7.0449,0.0,0.0,7.6792,7.7626,8.0984,8.137,8.1496,8.3015,8.3806,8.4287,8.441,8.5337,8.6227,0.0,8.7105,8.7613,8.7921,8.8021,8.827,8.8716,8.879,8.8938,8.9273,8.931,8.9681,9.061,9.0573,9.0685,9.1167,9.1205,9.1205,9.1205,9.1688,9.2133,9.2431,9.2468,9.2653,9.2988,9.2988,9.2988,9.2988,9.2988,9.2988,9.3025,9.3508,9.3694,9.3731,9.4214,9.4102,9.3694,9.3694,9.3397,9.2951,9.2579,9.2468,9.2505,9.2876,9.2988,9.2951,9.2579,9.2691,9.2914,9.2579,9.2454,9.2336,9.1766,9.1097,9.0501,9.0408,9.0366,9.0569,9.089,9.1283,9.1283,9.007,9.0748,9.1247,9.0034,9.0783,9.1515,9.1335,9.1051,9.073,9.0375,8.9289,8.8325,8.7866,8.7808,8.7714,8.7466,8.7178,8.7117,8.7117,8.8565,8.9652,9.0052,9.1023,9.1921,9.2606,9.1916,9.1502,9.1502,9.1054,9.0353,8.9483,8.8892,8.7978,8.6678,8.6103,8.5531,7.2964,7.3425,0.0,8.0522,8.1525,8.1689,8.4002,8.4521,8.467,8.53,8.5596,8.5782,8.5929,8.6536,8.7093,8.7155,8.7675,8.8084,8.8084,8.827,8.8641,8.9236,8.9496,8.9719,8.9942,8.9942,9.0462,9.1613,9.139,9.1428,9.2022,9.2059,9.2059,9.2059,9.2653,9.2988,9.2988,9.2988,9.2988,9.2988,9.3211,9.3322,9.3322,9.3545,9.3657,9.3694,9.4288,9.4511,9.4585,9.5143,9.5068,9.4511,9.4511,9.4177,9.3657,9.3657,9.3359,9.2988,9.2988,9.2988,9.2988,9.2988,9.2988,9.2988,9.2751,9.2405,9.1946,9.162,9.0866,9.0141,8.9976,9.0058,9.0177,9.0177,9.0605,9.0676,8.957,9.0534,9.1283,9.0177,9.1212,9.2246,9.2246,9.2068,9.1836,9.1746,9.0211,8.8926,8.8217,8.776,8.724,8.6922,8.6922,8.6922,8.6922,8.779,8.8805,8.9916,9.0709,9.1813,9.3365,9.2709,9.2192,9.1985,9.1433,9.0593,8.9483,8.8552,8.7629,8.6678,8.5766,8.5268,7.175,7.4264,7.7419,8.1079,8.37,8.5446,8.5521,8.5558,8.5558,8.5595,8.614,8.6634,8.6722,8.7328,8.7821,8.8047,8.8084,8.8084,8.8084,8.8753,8.9273,8.931,8.9979,9.0759,0.0,9.165,9.165,9.1688,9.2468,9.2914,9.2951,9.2951,9.2951,9.2951,9.2988,9.2988,9.2988,9.2988,9.2988,9.2988,9.3768,9.4177,9.4177,9.4957,9.5328,9.5328,9.5365,9.5365,9.5365,9.5403,9.5403,9.5365,9.5365,9.5365,9.5328,9.5328,9.4325,9.2988,9.2988,9.2988,9.2988,9.2988,9.2988,9.2922,9.2266,9.2018,9.1803,9.0588,9.0222,9.0058,8.9457,8.932,8.9356,8.9356,8.9356,8.9356,8.932,9.0534,9.1604,9.1533,9.2817,9.3924,9.3924,9.3281,9.2565,9.2069,9.1339,9.0375,8.9096,8.7402,8.6294,8.6294,8.6294,8.6294,8.6294,8.7708,8.9191,9.0674,9.1502,9.264,9.4192,9.3503,9.2744,9.2019,9.1985,9.1143,8.9483,8.8552,8.7629,8.6678,8.5766,8.5268,7.7577,8.0022,8.2348,8.5311,8.6635,8.7267,8.7267,8.7267,8.7267,8.7267,8.7427,8.7613,8.7638,8.7836,8.8021,8.8084,8.853,8.8901,8.8901,8.957,9.0276,9.0833,9.113,0.0,0.0,0.0,0.0,9.2505,9.2839,9.2988,9.2988,9.2988,9.2988,9.2988,9.2988,9.2988,9.2988,9.2988,9.3248,9.3805,9.4622,9.4994,9.4994,9.5291,9.5403,9.544,9.596,9.622,9.6257,9.6814,9.6703,9.622,9.622,9.5886,9.5403,9.5403,9.5068,9.4585,9.4585,9.4251,9.3805,9.3805,9.3434,9.2885,9.2159,9.1693,9.1249,9.0429,8.9929,8.9543,8.9407,8.932,8.9463,8.9963,9.0105,9.0248,9.0748,9.164,9.2389,9.2389,9.3246,9.3995,9.3995,9.3781,9.3292,9.2409,9.0835,8.9633,8.9256,8.8354,8.7846,8.7846,8.7846,8.7605,8.7087,8.7501,8.8674,9.0674,9.1054,9.2364,9.4917,9.3778,9.3227,9.3503,9.1985,9.0543,8.9259,8.8444,8.7275,8.5734,8.5393,8.5268,8.1403,8.3596,8.53,8.827,8.8938,8.8938,8.8938,8.8716,8.853,8.853,8.8307,8.8195,8.8493,8.827,8.827,8.8864,8.9161,8.9384,8.9681,9.0424,9.113,9.165,9.1985,9.2393,0.0,0.0,0.0,9.2951,9.2988,9.2988,9.2988,9.2988,9.2988,9.2988,9.2988,9.3136,9.3434,9.3434,9.3991,9.5068,9.5588,9.5997,9.6294,9.6294,9.6294,9.6331,9.6852,9.7074,9.7112,9.7669,9.7557,9.7074,9.7074,9.674,9.6294,9.6294,9.6294,9.622,9.5626,9.5068,9.4622,9.4382,9.3943,9.3361,9.25,9.1972,9.1466,9.0563,9.0237,9.007,8.982,8.9927,9.0248,9.0783,9.089,9.1033,9.1497,9.2211,9.2782,9.2782,9.3424,9.3995,9.3995,9.3868,9.3404,9.2505,9.1072,8.9975,8.9495,8.8948,8.8605,8.8605,8.8605,8.826,8.7467,8.7674,8.857,9.0295,9.0674,9.195,9.4468,9.3641,9.333,9.3847,9.2399,9.1029,8.9744,8.8928,8.7507,8.5734,8.5393,8.5268,8.3309,8.5254,8.6586,8.9793,9.0573,9.0536,9.0499,8.9793,8.9098,8.9098,8.8393,8.7921,0.0,0.0,8.843,8.9915,8.9793,8.9681,9.0462,9.1242,9.1762,0.0,0.0,0.0,0.0,0.0,0.0,9.2988,0.0,9.2988,9.2988,9.2988,9.2988,9.2988,9.3025,9.3434,9.4177,9.4288,9.5105,9.6591,9.6666,9.7112,9.7892,9.7892,9.7892,9.7892,9.7892,9.7892,9.7892,9.7892,9.7892,9.7892,9.7892,9.7892,9.7892,9.7892,9.7892,9.7599,9.6003,9.5409,9.5304,9.4667,9.4375,9.4116,9.2981,9.2604,9.2292,9.0923,9.1069,9.1461,9.0748,9.1069,9.1604,9.164,9.1675,9.1675,9.1711,9.2318,9.2853,9.2853,9.346,9.3995,9.3995,9.3591,9.3024,9.2505,9.191,9.1159,8.9951,8.9157,8.8708,8.8708,8.8708,8.8398,8.7605,8.8226,8.8984,8.9709,9.0467,9.1571,9.3089,9.3158,9.3192,9.3227,9.3123,9.2276,9.0673,8.9697,8.8395,8.6689,8.5831,8.5332,8.8117,8.9999,9.1103,9.1353,9.139,9.1242,9.0647,8.8339,8.6391,8.6391,8.4231,8.2245,0.0,0.0,0.0,8.5876,8.8745,0.0,9.1353,9.2133,0.0,9.2653,0.0,9.2988,9.2988,9.2988,0.0,0.0,9.2988,9.2988,9.2988,9.2988,9.2988,9.2988,9.3582,9.3991,9.4214,9.5403,9.6183,9.6629,9.726,9.7669,9.7892,9.7892,9.7892,9.7892,9.7892,9.7892,9.7892,9.7892,9.7892,9.7892,9.7892,9.7892,9.7892,9.7892,9.7573,9.7064,9.6658,9.6141,9.5624,9.5442,9.4666,9.3618,9.2853,9.2604,9.24,9.1531,9.1461,9.1568,9.139,9.1461,9.1747,9.2354,9.2496,9.2639,9.3246,9.3531,9.3674,9.3674,9.3852,9.3995,9.3995,9.3591,9.3024,9.2505,9.191,9.1332,9.0641,9.0364,9.026,9.026,9.026,8.995,8.9191,8.9295,8.9743,9.0467,9.1261,9.2399,9.3916,9.3985,9.4227,9.4779,9.2981,9.175,9.1161,8.9673,8.8367,8.7203,8.6463,8.611,9.0833,9.2282,9.2876,9.2393,9.2282,9.1808,9.0016,8.7482,8.5097,8.376,8.1307,7.9937,8.1632,8.3475,0.0,0.0,0.0,0.0,9.2076,9.2625,9.2988,0.0,9.2922,0.0,9.2988,9.2988,9.3136,0.0,9.3211,9.2988,9.2988,9.3322,9.3545,9.3545,9.4325,9.4883,9.5254,9.6517,9.7186,9.7186,9.7669,9.7892,9.7892,9.7892,9.7892,9.7892,0.0,9.7892,9.7892,9.7892,9.7892,9.7892,9.7892,9.7892,9.7892,9.7573,9.7211,9.6878,9.6575,9.5972,9.537,9.537,9.4802,9.4032,9.3395,9.3258,9.3099,9.23,9.2389,9.2568,9.2211,9.2389,9.2782,9.321,9.3317,9.3424,9.3888,9.3995,9.3995,9.3995,9.3995,9.3995,9.3995,9.3591,9.3024,9.2505,9.191,9.1402,9.0917,9.0812,9.0812,9.0812,9.0812,9.0502,8.9778,9.0019,9.0226,9.0329,9.1054,9.2019,9.3227,9.3261,9.3778,9.4882,9.3099,9.1913,9.1342,9.0006,8.8715,8.7405,8.7016,8.6854,9.2208,9.2988,9.2988,9.2988,9.2988,9.215,8.9018,8.6691,8.4158,8.1123,7.871,7.8567,8.3293,8.3478,8.4889,9.0668,0.0,9.0858,9.203,9.235,9.2529,9.2751,9.2922,9.3025,9.3136,9.3136,9.3471,9.4288,9.3619,9.3136,9.3136,9.3731,9.414,9.4362,9.5143,9.596,9.6777,9.752,9.7892,9.7892,9.7892,9.7892,9.7892,9.7892,9.7892,9.7892,0.0,0.0,9.7892,9.7892,9.7892,9.7892,9.7892,9.7892,9.7822,9.7248,9.6915,9.6652,9.607,9.542,9.49,9.4986,9.49,9.4727,9.4141,9.3995,9.3817,9.3139,9.346,9.3817,9.3139,9.346,9.3995,9.3995,9.3888,9.3817,9.3817,9.3817,9.3817,9.3817,9.3924,9.3995,9.3904,9.3497,9.3024,9.2407,9.191,9.1402,9.0917,9.0812,9.0812,9.0812,9.0812,9.0536,8.9916,9.0433,9.0536,8.9881,9.0571,9.133,9.2088,9.2226,9.2951,9.4255,9.3327,9.2338,9.1389,9.0478,8.9178,8.7696,8.7599,8.7567,9.2839,9.2988,9.2988,9.2988,9.2988,9.2002,8.8317,8.5065,8.1742,7.7773,7.4452,7.321,7.6447,7.7298,7.9144,8.3621,8.4708,8.6132,8.9236,8.9709,9.0541,0.0,9.2988,9.3248,9.3917,9.3991,0.0,0.0,0.0,0.0,9.3991,9.3471,9.3805,9.5143,9.596,9.6814,9.7669,9.7817,9.7892,9.7892,9.7892,9.7892,9.7892,9.7892,9.7892,9.7892,0.0,0.0,9.7892,9.7892,9.7892,9.7892,9.7892,9.7892,9.7892,9.7752,9.7064,9.607,9.5991,9.5169,9.4231,9.4814,9.4639,9.4141,9.4086,9.3995,9.3959,9.3817,9.3888,9.3959,9.3817,9.3888,9.3995,9.3995,9.346,9.2996,9.2996,9.2996,9.2996,9.2996,9.3531,9.3868,9.3404,9.3215,9.2928,9.191,9.1606,9.1402,9.0917,9.0812,9.0812,9.0812,9.0812,9.0743,9.064,9.0743,9.0743,9.064,9.1364,9.2123,9.2882,9.3537,9.3931,9.3929,9.3031,9.207,9.1081,9.0129,8.9447,8.9186,8.8603,8.8312,9.1428,9.2022,9.2988,9.2988,9.2988,9.1565,8.6244,8.3147,7.9829,7.4322,7.1217,7.0584,7.4068,7.5274,7.7107,8.1367,8.413,8.6354,8.8033,8.9923,9.1518,9.2677,9.3293,9.3619,9.3582,9.4325,0.0,0.0,0.0,0.0,9.4808,9.4845,9.544,9.6666,9.7074,9.7483,9.7892,9.7892,9.7892,9.7892,9.7892,9.7892,9.7892,9.7892,9.7892,9.7892,9.7892,0.0,9.7892,9.7892,9.7892,9.7892,9.7892,9.7715,9.7321,9.699,9.6228,9.5373,9.5036,9.4551,9.405,9.441,9.4231,9.3995,9.3995,9.3995,9.3995,9.3995,9.3995,9.3995,9.3995,9.3995,9.3995,9.3995,9.3388,9.3032,9.3852,9.3388,9.3032,9.3888,9.3812,9.3497,9.3215,9.2735,9.221,9.1708,9.1299,9.1126,9.0812,9.0812,9.0812,9.0812,9.0812,9.0812,9.0812,9.0812,9.0812,9.0812,9.1157,9.1882,9.3054,9.2996,9.3236,9.3869,9.248,9.1496,9.1027,9.0066,8.9575,8.9575,8.9218,8.9057,9.0462,9.1502,9.2988,9.2988,9.2988,9.1194,8.4217,8.1663,7.8747,7.1682,6.9275,6.961,7.3552,7.4167,7.5591,8.0063,8.3074,8.5368,8.6611,8.9378,9.1629,9.261,9.356,0.0,9.3479,9.4741,0.0,0.0,0.0,0.0,9.544,9.6146,9.6926,9.7595,9.778,9.7892,9.7892,9.7892,9.7892,9.7892,9.7892,9.7892,9.7892,9.7892,9.7892,9.7892,9.7892,0.0,0.0,9.7892,9.7822,9.7644,9.7644,9.7321,9.6652,9.607,9.5503,9.49,9.441,9.4141,9.3995,9.3995,9.3995,9.3995,9.3995,9.3995,9.3995,9.3995,9.3995,9.3995,9.3995,9.3995,9.3924,9.3781,9.3139,9.2924,9.4388,9.3674,9.321,9.4673,9.4159,9.3427,9.306,9.221,9.1504,9.1402,9.1126,9.0812,9.0812,9.0812,9.0812,9.0812,9.0812,9.0812,9.0812,9.0812,9.0812,9.0812,9.0812,9.1327,9.2562,9.1962,9.2076,9.3048,9.1645,9.09,9.0645,8.9936,8.9575,8.9575,8.9575,8.9575,9.1965,9.2839,9.2988,9.2988,9.2988,9.1046,8.3484,8.1678,7.9239,7.1049,6.9266,7.0218,7.3505,7.231,7.2371,7.7133,7.6838,7.7999,8.3534,8.5174,8.7558,9.2178,9.3424,9.4165,9.4795,9.5684,0.0,0.0,0.0,0.0,0.0,9.6146,9.6629,9.674,9.7483,9.7892,9.7892,9.7892,9.7892,9.7892,9.7892,9.7892,9.7892,9.7892,9.7892,9.7892,0.0,0.0,0.0,9.7892,9.7573,9.699,9.699,9.6575,9.5991,9.5911,9.5503,9.4986,9.49,9.4499,9.3995,9.3995,9.3995,9.3995,9.3995,9.3995,9.3995,9.3995,9.3995,9.3995,9.3995,9.3995,9.3817,9.3067,9.2282,9.1961,9.2817,9.2889,9.3067,9.3924,9.4231,9.3872,9.2646,9.201,9.1402,9.0917,9.0812,9.0812,9.0812,9.0812,9.0812,9.0812,9.0812,9.0812,9.0812,9.0812,9.0812,9.0812,9.0812,9.0838,9.0862,9.1353,9.1261,9.0412,9.0823,9.0517,8.9706,8.9575,8.9575,8.9575,8.9575,8.9575,8.8006,9.049,9.2988,9.2988,9.2988,9.1046,8.3411,8.1537,7.9064,7.0978,6.9083,6.9282,7.0271,7.0094,7.0522,7.287,7.4729,7.7646,8.2598,8.5733,8.8836,9.2454,9.4345,0.0,0.0,0.0,0.0,0.0,0.0,0.0,0.0,9.7223,9.7372,9.7372,9.7706,9.7892,9.7892,9.7892,9.7892,9.7892,9.7892,9.7892,9.7892,9.7892,9.7892,9.7892,0.0,0.0,0.0,9.7465,9.7138,9.6878,9.6498,9.5911,9.5373,9.5373,9.495,9.441,9.441,9.4231,9.3995,9.3995,9.3995,9.3995,9.3995,9.3995,9.3995,9.3995,9.3995,9.3995,9.3995,9.3995,9.3888,9.3567,9.2889,9.2675,9.3959,9.3852,9.3797,9.4764,9.4393,9.3694,9.2779,9.1817,9.1022,9.0812,9.0812,9.0812,9.0812,9.0812,9.0812,9.0812,9.0812,9.0812,9.0812,9.0812,9.0812,9.0812,9.0246,9.0359,9.1217,9.0489,9.0117,9.0566,9.0291,8.9936,8.9575,8.9575,8.9575,8.9575,8.9575,8.9575,8.5648,8.8709,9.1928,9.2802,9.2365,8.9921,8.3228,8.0786,7.7952,7.0764,6.9083,6.8705,6.8162,6.8946,6.9773,7.0291,7.338,7.7417,8.2054,8.5735,8.8873,9.1343,0.0,0.0,0.0,0.0,0.0,0.0,0.0,0.0,0.0,9.7892,9.7892,9.7892,9.7892,9.7892,9.7892,9.7892,9.7892,9.7892,9.7892,9.7892,9.7892,9.7892,9.7892,9.7892,0.0,0.0,0.0,9.7064,9.6652,9.6265,9.583,9.529,9.4727,9.4727,9.441,9.3995,9.3995,9.3995,9.3995,9.3995,9.3995,9.3995,9.3995,9.3995,9.3995,9.3995,9.3995,9.3995,9.3995,9.3995,9.3924,9.3674,9.3032,9.2889,9.4495,9.4296,9.4075,9.5046,9.4327,9.3475,9.2614,9.1473,9.0812,9.0812,9.0812,9.0812,9.0812,9.0812,9.0812,9.0812,9.0812,9.0812,9.0812,9.0812,9.0812,9.0812,9.0127,9.0154,9.0831,8.9773,8.9551,9.019,8.9838,8.9575,8.9575,8.9575,8.9575,8.9575,8.9575,8.9575,8.6518,8.8508,8.924,9.2224,9.0765,8.7341,8.2794,7.9412,7.5832,7.0373,6.9305,6.9083,6.8241,6.9325,7.0394,7.0394,7.2291,7.5868,8.1711,8.4079,8.6046,8.8283,0.0,9.0793,0.0,0.0,0.0,0.0,0.0,0.0,0.0,9.7892,9.7892,9.7892,9.7892,9.7892,9.7892,9.7892,9.7892,9.7892,9.7892,9.7892,9.7892,9.7892,9.7892,0.0,0.0,0.0,0.0,9.6878,9.6186,9.4986,9.4986,9.4551,9.3995,9.3995,9.3995,9.3995,9.3995,9.3995,9.3995,9.3995,9.3995,9.3995,9.3995,9.3995,9.3995,9.3995,9.3995,9.3995,9.3995,9.3995,9.3781,9.2996,9.2211,9.2068,9.3638,9.3591,9.3463,9.4242,9.4097,9.3381,9.1885,9.1126,9.0812,9.0812,9.0812,9.0812,9.0812,9.0812,9.0812,9.0812,9.0812,9.0812,9.0812,9.0812,9.0812,9.0812,9.0571,9.0053,8.9132,8.9641,8.9469,8.8506,8.9218,8.9575,8.9575,8.9575,8.9575,8.9575,8.9575,8.9575,8.0067,8.2701,8.4798,8.5153,8.4976,8.3459,7.8904,7.7579,7.5796,7.0373,6.9305,6.9083,6.8241,6.8497,6.9153,7.0222,7.0981,7.4264,8.2249,8.3971,8.657,9.2278,9.2501,9.2864,0.0,0.0,0.0,0.0,0.0,0.0,0.0,9.7892,9.7892,9.7892,9.7892,9.7892,9.7892,9.7892,9.7892,9.7892,9.7892,9.7892,9.7892,9.7892,0.0,0.0,0.0,0.0,0.0,9.5785,9.5373,9.4986,9.4499,9.4141,9.3995,9.3995,9.3995,9.3995,9.3995,9.3995,9.3995,9.3995,9.3995,9.3995,9.3995,9.3995,9.3995,9.3995,9.3995,9.3995,9.3995,9.3567,9.3103,9.2853,9.2603,9.2442,9.2574,9.3345,9.3908,9.3366,9.317,9.286,9.1992,9.1263,9.0812,9.0812,9.0812,9.0812,9.0812,9.0812,9.0812,9.0812,9.0812,9.0812,9.0812,9.0812,9.0601,8.9922,8.9681,8.9366,8.8945,8.8945,8.909,8.9218,8.9478,8.9575,8.9575,8.9575,8.9575,8.9575,8.9575,8.9575,7.6144,7.8767,8.0927,8.1568,8.1214,8.0062,7.7185,7.5859,7.4187,7.066,6.959,6.9083,6.8474,6.8404,6.9381,7.1827,7.1399,7.3845,8.2414,8.3008,8.4876,9.14,0.0,0.0,0.0,0.0,0.0,0.0,0.0,0.0,0.0,0.0,9.7892,9.7892,9.7892,9.7892,9.7892,9.7644,9.7644,9.7892,9.7644,9.7536,9.7536,9.7536,0.0,0.0,0.0,0.0,0.0,9.5121,9.4814,9.4551,9.4141,9.3995,9.3995,9.3995,9.3995,9.3995,9.3995,9.3995,9.3995,9.3995,9.3995,9.3995,9.3995,9.3995,9.3995,9.3995,9.3995,9.3995,9.3995,9.3603,9.3174,9.2853,9.2782,9.262,9.1715,9.2636,9.3271,9.2193,9.2201,9.2304,9.1712,9.1123,9.0812,9.0812,9.0812,9.0812,9.0812,9.0812,9.0812,9.0812,9.0494,9.0246,9.0246,9.0246,8.9922,8.9004,8.9031,8.8967,8.8852,8.8861,8.8992,8.9154,8.9186,8.9186,8.9186,8.9445,8.9575,8.9575,8.9575,8.9575,0.0,7.6072,7.7366,8.0126,7.8799,7.6794,7.6794,7.4183,0.0,7.109,7.0126,6.9157,6.8851,6.9272,7.0843,7.4361,7.3241,7.4508,8.2103,8.1871,8.2547,0.0,8.9594,0.0,0.0,0.0,0.0,0.0,0.0,0.0,0.0,0.0,9.7822,9.7752,9.7752,9.7822,9.7822,9.7138,9.7138,9.7715,9.7138,9.6803,9.6803,9.6803,0.0,0.0,0.0,0.0,0.0,9.49,9.4551,9.3995,9.3995,9.3995,9.3995,9.3995,9.3995,9.3995,9.3995,9.3995,9.3995,9.3995,9.3995,9.3995,9.3995,9.3995,9.3995,9.3995,9.3995,9.3995,9.3995,9.3924,9.371,9.296,9.2746,9.2316,9.1112,9.1573,9.1865,9.0632,9.1196,9.1675,9.095,9.0812,9.0812,9.0812,9.0812,9.0812,9.0812,9.0812,9.0812,9.0812,9.003,8.9483,8.9373,8.9373,8.9038,8.8161,8.8548,8.8762,8.8827,8.9317,8.9251,8.8506,8.8506,8.8506,8.8506,8.9218,8.9575,8.9575,8.9575,8.9575,6.8786,0.0,7.1359,7.2032,7.2143,7.2078,0.0,7.1902,7.1444,7.0381,6.9739,6.9332,6.9582,7.1539,7.2914,7.2441,7.4077,7.664,8.0164,8.5625,8.9755,9.0934,0.0,0.0,0.0,0.0,0.0,0.0,0.0,0.0,0.0,0.0,9.6878,9.6384,9.6384,9.6652,9.7138,9.6462,9.6228,9.6384,9.6228,9.6149,9.6149,9.6149,0.0,0.0,0.0,0.0,9.4231,9.4231,9.4141,9.3995,9.3995,9.3995,9.3995,9.3995,9.3995,9.3995,9.3995,9.3995,9.3995,9.3995,9.3995,9.3995,9.3995,9.3995,9.3995,9.3995,9.3995,9.3995,9.3995,9.3531,9.3032,9.2817,9.2047,9.1183,9.0411,9.0668,9.0701,9.0054,9.0538,9.1019,9.0847,9.0812,9.0812,9.0812,9.0812,9.0812,9.0812,9.0812,9.0812,9.0812,9.003,8.9261,8.8438,8.8438,8.8212,8.7832,8.8481,8.8742,8.8602,8.922,8.9251,8.8506,8.8506,8.8506,8.8506,8.9218,8.9575,8.9575,8.9575,8.9575,6.6446,6.8123,6.9872,6.9872,7.0478,7.1121,7.1478,7.1335,7.1052,7.0771,6.9989,6.9477,7.0056,7.1217,7.2914,7.5653,7.634,7.7886,8.1648,8.7545,9.1515,9.1442,0.0,0.0,0.0,0.0,0.0,0.0,0.0,0.0,0.0,0.0,9.6575,9.5911,9.5586,9.5749,9.6384,9.583,9.5586,9.5911,9.5586,9.554,9.554,9.554,9.5121,0.0,0.0,0.0,9.3995,9.3995,9.3995,9.3995,9.3995,9.3995,9.3995,9.3995,9.3995,9.3995,9.3995,9.3995,9.3995,9.3995,9.3995,9.3995,9.3995,9.3995,9.3995,9.3995,9.3995,9.3995,9.3995,9.3455,9.2951,9.2951,9.2259,9.1256,9.0072,9.0414,9.0603,8.9433,9.0054,9.0812,9.0812,9.0812,9.0812,9.0812,9.0812,9.0812,9.0812,9.0812,9.0707,9.0246,8.9373,8.8438,8.7511,8.7038,8.6886,8.7183,8.7745,8.8209,8.8474,8.9186,8.9089,8.802,8.802,8.802,8.802,8.9057,8.9575,8.9575,8.9575,8.9575,6.6025,6.8199,7.0514,7.0758,7.1154,7.1763,7.2903,7.1761,7.0693,7.1371,7.0806,7.0514,7.1325,7.1721,7.4132,8.0753,7.962,7.9601,8.427,8.8408,9.0806,9.0659,0.0,0.0,0.0,0.0,0.0,0.0,0.0,0.0,0.0,0.0,0.0,9.5668,9.5121,9.5121,9.5586,9.5121,9.5121,9.5586,9.5121,9.4814,9.4814,9.4814,9.4587,0.0,0.0,0.0,9.3995,9.3995,9.3995,9.3995,9.3995,9.3995,9.3995,9.3995,9.3995,9.3995,9.3995,9.3995,9.3995,9.3995,9.3995,9.3995,9.3995,9.3995,9.3995,9.3995,9.3995,9.3995,9.3995,9.3591,9.3215,9.3215,9.2524,9.1509,8.9757,9.0183,9.0432,8.8915,8.9709,9.0674,9.0778,9.0812,9.0812,9.0812,9.0812,9.0707,9.0601,9.0601,9.0246,8.9373,8.8438,8.7629,8.6798,8.5857,8.5591,8.6369,8.7049,8.7761,8.8474,8.8895,8.8506,8.7275,8.7275,8.7275,8.7275,8.8733,8.9413,8.9413,8.9542,8.9575,6.6975,6.8816,7.0758,7.1903,7.1421,7.1366,7.3992,7.2498,7.055,7.0657,7.276,7.4762,7.5585,8.0298,8.4027,8.3693,8.379,8.4181,0.0,0.0,9.1121,0.0,0.0,0.0,0.0,0.0,0.0,0.0,0.0,0.0,0.0,0.0,0.0,9.4285,9.4231,9.4231,9.4321,9.4231,9.4231,9.4321,9.4231,9.4141,9.4141,9.4141,9.405,0.0,0.0,9.3995,9.3995,9.3995,9.3995,9.3995,9.3995,9.3995,9.3995,9.3995,9.3995,9.3995,9.3995,9.3995,9.3995,9.3995,9.3995,9.3995,9.3995,9.3995,9.3995,9.3995,9.3995,9.3995,9.3995,9.3591,9.3215,9.3215,9.1521,8.9757,8.9414,8.8732,8.8155,8.8501,8.9295,9.0088,9.0709,9.0812,9.0812,9.0812,9.0812,9.0566,8.9813,8.9703,8.9339,8.8438,8.7511,8.6798,8.6678,8.5857,8.5591,8.6369,8.7049,8.7761,8.8474,8.747,8.679,8.6563,8.6563,8.6563,8.6563,8.7988,8.8668,8.8668,8.9283,8.9575,6.6589,6.8217,7.0483,7.4362,7.5112,7.5184,7.6541,7.6714,7.5606,7.2402,7.4117,7.641,7.7128,7.9324,8.1925,8.4937,0.0,8.953,0.0,0.0,0.0,0.0,0.0,0.0,0.0,0.0,0.0,0.0,0.0,0.0,0.0,0.0,0.0,0.0,9.3995,9.3995,9.3995,9.3995,9.3995,9.3995,9.3995,9.3995,9.3995,9.3995,9.3995,9.3995,0.0,9.3995,9.3995,9.3995,9.3995,9.3995,9.3995,9.3995,9.3995,9.3995,9.3995,9.3995,9.3995,9.3995,9.3995,9.3995,9.3995,9.3995,9.3995,9.3995,9.3995,9.3995,9.3995,9.3995,9.3995,9.3404,9.2726,9.2303,9.0892,8.9359,8.8528,8.8187,8.8019,8.795,8.8915,8.9812,9.0157,9.0536,9.0812,9.0812,9.0353,8.9922,8.9593,8.9038,8.8438,8.7393,8.6918,8.6436,8.598,8.5518,8.5591,8.6369,8.7049,8.7567,8.7891,8.6952,8.6401,8.6401,8.6401,8.6401,8.6401,8.7826,8.8506,8.8506,8.9251,8.9575,6.6451,6.801,7.0771,7.5762,7.7451,7.8278,7.9752,8.0793,8.0244,7.5796,7.716,7.9392,7.99,7.9648,8.102,8.6166,8.9983,0.0,0.0,0.0,0.0,0.0,0.0,0.0,0.0,0.0,0.0,0.0,0.0,0.0,0.0,0.0,0.0,0.0,9.3995,9.3995,9.3995,9.3995,9.3995,9.3995,9.3995,9.3995,9.3995,9.3995,9.3995,9.3995,9.3995,9.3995,9.3995,9.3995,9.3995,9.3995,9.3995,9.3995,9.3995,9.3995,9.3995,9.3995,9.3995,9.3995,9.3995,9.3995,9.3995,9.3995,9.3995,9.3995,9.3995,9.3995,9.3868,9.374,9.3562,9.2837,9.1951,9.1116,9.0009,8.8846,8.7674,8.7743,8.795,8.7501,8.8501,8.9502,8.9674,9.0329,9.0812,9.0812,9.003,8.9373,8.9261,8.8324,8.7393,8.6436,8.6348,8.6103,8.5393,8.5268,8.5527,8.611,8.679,8.7178,8.7178,8.6531,8.6142,8.6142,8.6142,8.6142,8.6142,8.7405,8.8085,8.8279,8.8992,8.9413,6.7517,6.9421,7.2472,7.4137,7.5312,7.7544,8.3374,8.2721,8.0875,8.1,8.3991,8.6568,8.6605,8.7989,8.891,8.7955,8.9273,0.0,0.0,0.0,0.0,0.0,0.0,0.0,0.0,0.0,0.0,0.0,0.0,0.0,0.0,0.0,0.0,0.0,0.0,9.3995,9.3995,9.3995,9.3995,9.3995,9.3995,9.3995,9.3995,9.3995,9.3995,9.3995,9.3995,9.3995,9.3995,9.3995,9.3995,9.3995,9.3995,9.3995,9.3995,9.3995,9.3995,9.3995,9.3995,9.3995,9.3995,9.3995,9.3995,9.3995,9.3995,9.3995,9.3995,9.3995,9.3591,9.3038,9.2424,9.1774,9.1081,8.9821,8.8493,8.7536,8.7432,8.6915,8.6674,8.7294,8.8088,8.8881,8.9571,9.0329,9.0812,9.0812,9.003,8.915,8.8324,8.7393,8.6469,8.5518,8.5393,8.5393,8.53,8.5268,8.53,8.5365,8.6077,8.6466,8.6466,8.5753,8.5365,8.5365,8.5365,8.5365,8.5365,8.6174,8.6887,8.7535,8.8247,8.8927,6.6418,6.9315,7.2834,7.5915,7.7993,7.9956,8.2319,8.5373,8.6792,8.3374,8.5541,8.7918,8.7402,8.8177,8.9166,9.0089,8.9812,0.0,0.0,0.0,0.0,0.0,0.0,0.0,0.0,0.0,0.0,0.0,0.0,0.0,0.0,0.0,0.0,0.0,0.0,9.3995,9.3995,9.3995,9.3995,9.3995,9.3995,9.3995,9.3995,9.3995,9.3995,9.3995,9.3995,9.3995,9.3995,9.3995,9.3995,9.3995,9.3995,9.3995,9.3995,9.3995,9.3995,9.3995,9.3995,9.3995,9.3995,9.3995,9.3995,9.3995,9.3995,9.3995,9.3995,9.3995,9.3591,9.3038,9.2259,9.1477,9.0478,8.9025,8.8008,8.7294,8.6811,8.6501,8.6536,8.726,8.8053,8.8812,8.9571,9.0329,9.0601,9.003,8.9228,8.8324,8.7393,8.6469,8.5766,8.5268,8.5268,8.5268,8.5268,8.5268,8.5268,8.5268,8.5559,8.5721,8.5721,8.543,8.5268,8.5268,8.5268,8.5268,8.5268,8.6045,8.6531,8.6822,8.7955,8.8668,6.6164,7.0086,7.4402,7.6605,7.9629,8.2169,8.2638,8.61,8.8362,8.5227,8.7121,8.8977,8.7849,8.7922,8.865,0.0,0.0,0.0,0.0,0.0,0.0,0.0,0.0,0.0,0.0,0.0,0.0,0.0,0.0,0.0,0.0,0.0,0.0,0.0,9.3995,9.3995,9.3995,9.3995,9.3995,9.3995,9.3995,9.3995,9.3995,9.3995,9.3995,9.3995,9.3995,9.3995,9.3995,9.3995,9.3995,9.3995,9.3995,9.3995,9.3995,9.3995,9.3995,9.3995,9.3995,9.3995,9.3995,9.3995,9.3995,9.3995,9.3995,9.3995,9.3959,9.3812,9.3404,9.2681,9.1598,9.0738,8.9762,8.7999,8.7354,8.6915,8.6432,8.6294,8.6536,8.726,8.8053,8.8812,8.9571,9.0085,9.0138,8.9593,8.8438,8.7393,8.6798,8.5857,8.5268,8.5268,8.5268,8.5268,8.5268,8.5268,8.5268,8.5268,8.5268,8.5268,8.5268,8.5268,8.5268,8.5268,8.5268,8.5268,8.5268,8.5818,8.6174,8.6433,8.7632,8.8279,6.7437,7.212,7.7523,7.5548,7.9324,8.3919,8.5481,8.4497,8.4098,8.6939,8.9419,9.0534,8.8742,8.8238,0.0,0.0,0.0,0.0,0.0,0.0,0.0,0.0,0.0,0.0,0.0,0.0,0.0,0.0,0.0,0.0,0.0,0.0,0.0,0.0,9.3995,9.3995,9.3995,9.3995,9.3995,9.3995,9.3995,9.3995,9.3995,9.3995,9.3995,9.3995,9.3995,9.3995,9.3995,9.3995,9.3995,9.3995,9.3995,9.3995,9.3995,9.3995,9.3995,9.3995,9.3995,9.3995,9.3995,9.3995,9.3995,9.3995,9.3995,9.3995,9.3868,9.331,9.2797,9.1958,8.996,8.9379,8.8897,8.6774,8.6294,8.6294,8.6294,8.6294,8.6536,8.7294,8.8053,8.8812,8.9571,8.9551,8.9483,8.9483,8.7862,8.6678,8.6678,8.5857,8.5268,8.5268,8.5268,8.5268,8.5268,8.5268,8.5268,8.5268,8.5268,8.5268,8.5268,8.5268,8.5268,8.5268,8.5268,8.5268,8.5268,8.5268,8.5656,8.6401,8.7081,8.7794,7.3389,7.7964,8.197,8.1597,8.4282,8.6889,8.632,8.6684,8.7048,8.683,8.8691,9.0,8.8898,8.8346,0.0,0.0,0.0,0.0,0.0,0.0,0.0,0.0,0.0,0.0,0.0,0.0,0.0,0.0,0.0,0.0,0.0,0.0,0.0,0.0,9.3776,9.3995,9.3995,9.3995,9.3995,9.3995,9.3995,9.3995,9.3995,9.3995,9.3995,9.3995,9.3995,9.3995,9.3995,9.3995,9.3995,9.3995,9.3995,9.3995,9.3995,9.3995,9.3995,9.3995,9.3995,9.3995,9.3995,9.3995,9.3995,9.3995,9.3995,9.3684,9.3404,9.3215,9.2505,9.146,8.9861,8.9079,8.8395,8.6674,8.6294,8.6294,8.6294,8.6294,8.6708,8.7984,8.8433,8.8777,8.9483,8.9567,8.9004,8.7746,8.7038,8.6436,8.5734,8.5518,8.5268,8.5268,8.5268,8.5268,8.5268,8.5268,8.5073,8.4555,8.5009,8.5268,8.5268,8.5268,8.5268,8.5268,8.5268,8.5268,8.5268,8.5268,8.5397,8.5624,8.6369,8.6276,7.5726,8.0364,8.4637,8.5408,8.7485,8.9146,8.7989,8.7778,8.7779,8.7414,8.9087,9.057,9.0659,9.0179,0.0,0.0,0.0,0.0,0.0,0.0,0.0,0.0,0.0,0.0,0.0,0.0,0.0,0.0,0.0,0.0,0.0,0.0,0.0,0.0,9.3404,9.3684,9.3684,9.3868,9.3995,9.3995,9.3995,9.3995,9.3995,9.3995,9.3995,9.3995,9.3995,9.3995,9.3995,9.3995,9.3995,9.3995,9.3995,9.3995,9.3995,9.3995,9.3995,9.3995,9.3995,9.3995,9.3995,9.3995,9.3995,9.3959,9.3776,9.3497,9.312,9.27,9.211,9.1157,8.946,8.8775,8.8226,8.6674,8.6294,8.6294,8.6294,8.6294,8.6777,8.8295,8.826,8.8392,8.9321,8.8892,8.7978,8.6918,8.6315,8.598,8.5393,8.5268,8.5268,8.5268,8.5268,8.5268,8.5268,8.5268,8.4976,8.4264,8.4879,8.517,8.4879,8.5138,8.5268,8.5268,8.5268,8.5268,8.5268,8.5268,8.5268,8.53,8.6045,8.5567,7.5869,8.0577,8.5942,8.7522,8.942,9.0725,9.0241,8.8463,8.7339,8.8436,9.0129,9.174,9.2988,0.0,0.0,0.0,0.0,0.0,0.0,0.0,0.0,0.0,0.0,0.0,0.0,0.0,0.0,0.0,0.0,0.0,0.0,0.0,0.0,0.0,9.2832,9.312,9.3215,9.3684,9.3959,0.0,9.3995,9.3995,9.3995,9.3995,9.3995,9.3995,9.3995,9.3995,9.3995,9.3995,9.3995,9.3995,9.3995,9.3995,9.3995,9.3995,9.3995,9.3995,9.3995,9.3995,9.3995,9.3995,9.3995,9.3868,9.3404,9.312,9.2928,9.191,9.1606,9.1089,8.9156,8.8639,8.8226,8.6742,8.6363,8.6294,8.6294,8.6194,8.6642,8.8192,8.7701,8.7607,8.899,8.7862,8.6678,8.6557,8.5857,8.5268,8.5268,8.5268,8.5268,8.5268,8.5268,8.5268,8.5268,8.5268,8.4944,8.4167,8.4847,8.4944,8.4134,8.4879,8.5268,8.5268,8.5268,8.5268,8.5268,8.5268,8.5268,8.5174,8.5853,8.5211,7.9324,8.3265,8.6829,8.9675,9.0953,9.1787,9.3004,9.235,9.0858,8.8362,8.9496,9.0997,0.0,0.0,0.0,0.0,0.0,0.0,0.0,0.0,0.0,0.0,0.0,0.0,0.0,0.0,0.0,0.0,0.0,0.0,0.0,0.0,0.0,9.1809,9.2309,9.2797,9.3215,9.331,9.3591,0.0,9.3995,9.3995,9.3995,9.3995,9.3995,9.3995,9.3995,9.3995,9.3995,9.3995,9.3995,9.3995,9.3995,9.3995,9.3995,9.3995,9.3995,9.3995,9.3995,9.3995,9.3995,9.3995,9.3995,9.3868,9.3404,9.2928,9.2407,9.1809,9.1299,9.071,8.9709,8.9019,8.8364,8.7398,8.6742,8.6294,8.6294,8.5754,8.5786,8.7181,8.6805,8.6466,8.7128,8.6918,8.6436,8.5766,8.5393,8.5268,8.5268,8.5268,8.5268,8.5268,8.5268,8.5268,8.5268,8.5268,8.4749,8.3486,8.4588,8.4717,8.3454,8.462,8.5268,8.5268,8.5268,8.5268,8.5268,8.5268,8.473,8.3539,8.3698,8.2369,7.954,8.3048,8.6318,9.0146,9.1723,9.2484,9.3118,9.3152,9.2709,9.1287,9.184,0.0,0.0,0.0,0.0,0.0,0.0,0.0,0.0,0.0,0.0,0.0,0.0,0.0,0.0,0.0,0.0,0.0,0.0,0.0,0.0,9.1126,9.123,9.123,9.1708,9.2309,9.2797,9.312,9.3497,9.3995,9.3995,9.3995,9.3995,9.3995,9.3995,9.3995,9.3995,9.3995,9.3995,9.3995,9.3995,9.3995,9.3995,9.3995,9.3995,9.3995,9.3995,9.3995,9.3995,9.3995,9.3995,9.3684,9.3591,9.3497,9.27,9.221,9.191,9.1402,9.1022,9.064,8.9881,8.9157,8.8501,8.8088,8.7122,8.6194,8.5754,8.5616,8.5773,8.6459,8.6152,8.5948,8.66,8.6348,8.5857,8.5393,8.5268,8.5268,8.5268,8.5268,8.5268,8.5268,8.5268,8.5268,8.5268,8.5268,8.4685,8.3292,8.449,8.4652,8.326,8.4523,8.5268,8.5268,8.5268,8.5268,8.5268,8.5268,8.4603,8.3114,8.3114,8.1423,7.6803,8.1093,8.5475,8.9778,9.1944,9.2906,9.2384,9.2977,9.3823,9.4911,0.0,0.0,0.0,0.0,0.0,0.0,0.0,0.0,0.0,0.0,0.0,0.0,0.0,0.0,0.0,0.0,0.0,0.0,0.0,0.0,9.0812,9.0812,9.0812,9.0812,9.1196,9.1809,9.2407,9.2832,9.3404,9.3995,9.3995,9.3995,9.3995,9.3995,9.3995,9.3995,9.3995,9.3995,9.3995,9.3995,9.3995,9.3995,9.3995,9.3995,9.3995,9.3995,9.3995,9.3995,9.3995,9.3995,9.3868,9.3404,9.3215,9.3024,9.191,9.1606,9.1504,9.0917,9.0812,9.0674,9.0054,8.926,8.8639,8.8743,8.74,8.589,8.527,8.5463,8.5675,8.5637,8.5549,8.5713,8.6338,8.5857,8.5268,8.5268,8.5268,8.5268,8.5268,8.5268,8.5268,8.5268,8.5268,8.5268,8.5268,8.5268,8.4685,8.3292,8.449,8.4652,8.326,8.4523,8.5268,8.5268,8.5268,8.5142,8.4889,8.4889,8.4058,8.2285,8.2285,8.0525,6.9761,7.7803,8.5991,8.931,9.1576,9.2906,9.2496,9.3822,9.5388,0.0,0.0,0.0,0.0,0.0,0.0,0.0,0.0,0.0,0.0,0.0,0.0,0.0,0.0,0.0,0.0,0.0,0.0,0.0,0.0,0.0,9.0812,9.0812,9.0812,9.0812,9.0917,9.1402,9.2407,9.2505,9.2989,9.3995,9.3995,9.3995,9.3995,9.3995,9.3995,9.3995,9.3995,9.3995,9.3995,9.3995,9.3995,9.3995,9.3995,9.3995,9.3995,9.3995,9.3995,9.3995,9.3995,9.3995,9.3868,9.3404,9.3215,9.3024,9.191,9.1606,9.1504,9.0917,9.0812,9.0778,9.0674,8.964,8.8743,8.9398,8.7331,8.5304,8.5811,8.4823,8.3994,8.4606,8.5024,8.5388,8.5518,8.5393,8.5268,8.5268,8.5268,8.5268,8.5268,8.5268,8.5268,8.5268,8.5268,8.5268,8.5268,8.5268,8.4685,8.3292,8.449,8.4652,8.326,8.4523,8.5268,8.5268,8.5268,8.4603,8.3376,8.3376,8.2016,7.9242,7.9242,7.8052,7.0188,7.8644,8.6119,8.7632,9.0541,9.2838,9.1999,9.3416,9.5072,0.0,0.0,0.0,0.0,0.0,0.0,0.0,0.0,0.0,0.0,0.0,0.0,0.0,0.0,0.0,0.0,0.0,0.0,0.0,0.0,9.1126,9.0812,9.0812,9.0812,9.0812,9.0812,9.1196,9.191,9.191,9.2505,9.3591,9.3904,9.3995,9.3995,9.3995,9.3995,9.3995,9.3995,9.3995,9.3995,9.3995,9.3995,9.3995,9.3995,9.3995,9.3995,9.3995,9.3995,9.3995,9.3684,9.3591,9.3404,9.2603,9.2309,9.211,9.1402,9.1092,9.1092,9.0917,9.0812,9.0812,9.0812,9.0019,8.9294,8.9488,8.7131,8.5052,8.5637,8.4887,8.4137,8.4837,8.5096,8.5268,8.5268,8.5268,8.5268,8.5268,8.5268,8.5268,8.5268,8.5268,8.5268,8.5268,8.5268,8.5268,8.5268,8.4911,8.4264,8.326,8.3778,8.3843,8.3227,8.4167,8.4879,8.5268,8.5268,8.4603,8.3114,8.3114,8.1579,7.8669,7.831,7.694,7.0825,7.7677,8.3287,8.5514,8.8713,9.1389,9.1799,9.3066,9.4442,0.0,0.0,0.0,0.0,0.0,0.0,0.0,0.0,0.0,0.0,0.0,0.0,0.0,0.0,0.0,0.0,0.0,0.0,0.0,0.0,9.1402,9.0812,9.0812,9.0812,9.0812,9.0812,9.1126,9.1606,9.191,9.2407,9.3215,9.3776,9.3995,9.3995,9.3995,9.3995,9.3995,9.3995,9.3995,9.3995,9.3995,9.3995,9.3995,9.3995,9.3995,9.3995,9.3995,9.3868,9.3684,9.331,9.312,9.2832,9.191,9.1606,9.1504,9.1022,9.0812,9.0812,9.0812,9.0812,9.0778,9.0571,9.0123,8.9603,8.9294,8.7092,8.5011,8.4978,8.4707,8.4598,8.5166,8.5268,8.5268,8.5268,8.5268,8.5268,8.5268,8.5268,8.5268,8.5268,8.5268,8.5268,8.5268,8.5268,8.5268,8.5268,8.462,8.3907,8.3227,8.3195,8.3195,8.3195,8.3843,8.4555,8.5268,8.5268,8.4315,8.2552,8.2552,8.1032,7.812,7.7615,7.6414,6.8826,7.182,7.5212,8.3326,8.6025,8.7924,9.2446,0.0,0.0,0.0,0.0,0.0,0.0,0.0,0.0,0.0,0.0,0.0,0.0,0.0,0.0,0.0,0.0,0.0,0.0,0.0,0.0,0.0,0.0,9.1402,9.0812,9.0812,9.0812,9.0812,9.0812,9.1126,9.1606,9.2603,9.312,9.3215,9.3776,9.3995,9.3995,9.3995,9.3995,9.3995,9.3995,9.3995,9.3995,9.3995,9.3995,9.3995,9.3995,9.3995,9.3995,9.3995,9.3684,9.3215,9.3215,9.2928,9.2309,9.1809,9.1606,9.1504,9.1022,9.0812,9.0812,9.0812,9.0812,9.064,8.995,8.9743,8.9465,8.8613,8.7092,8.5397,8.3682,8.3836,8.4361,8.5138,8.5268,8.5268,8.5268,8.5268,8.5268,8.5268,8.5268,8.5268,8.5268,8.5268,8.5268,8.5268,8.5268,8.5268,8.5268,8.462,8.3907,8.3227,8.3195,8.3195,8.3195,8.3843,8.4555,8.5268,8.5268,8.3897,8.1032,8.1032,7.9526,7.6583,7.6583,7.5856,6.6066,6.9343,7.2943,7.7497,8.1368,8.4715,8.6697,9.0,0.0,0.0,0.0,0.0,0.0,0.0,0.0,0.0,0.0,0.0,0.0,0.0,0.0,0.0,0.0,0.0,0.0,0.0,0.0,0.0,0.0,0.0,9.0812,9.0812,9.0812,9.0812,9.0812,9.0917,9.1092,9.1809,9.2309,9.27,9.3215,9.3684,9.3995,9.3995,9.3995,9.3995,9.3995,9.3995,9.3995,9.3995,9.3995,9.3995,9.3995,9.3995,9.3995,9.3591,9.3404,9.312,9.2407,9.201,9.1809,9.1299,9.1126,9.1022,9.0917,9.0812,9.0812,9.0812,9.0812,9.0743,9.0467,9.0433,8.9944,8.7989,8.643,8.522,8.4063,8.4037,8.4426,8.5138,8.5268,8.5268,8.5268,8.5268,8.5268,8.5268,8.5268,8.5268,8.5268,8.5268,8.5268,8.5268,8.5268,8.5268,8.5268,8.4231,8.3454,8.3195,8.2321,8.2223,8.3163,8.3422,8.4102,8.5268,8.4347,8.295,8.0894,8.0894,7.9384,7.6462,7.6056,7.5592,6.4106,6.6763,6.9984,7.4095,7.7171,8.0148,8.4091,8.7701,0.0,0.0,0.0,0.0,0.0,0.0,0.0,0.0,0.0,0.0,0.0,0.0,0.0,0.0,0.0,0.0,0.0,0.0,0.0,0.0,0.0,0.0,9.0812,9.0812,9.0812,9.0812,9.0812,9.0812,9.0812,9.1299,9.191,9.2407,9.2928,9.3497,9.3995,9.3995,9.3995,9.3995,9.3995,9.3995,9.3995,9.3995,9.3995,9.3995,9.3995,9.3868,9.3684,9.331,9.3024,9.2505,9.1809,9.1504,9.1299,9.0917,9.0812,9.0812,9.0812,9.0812,9.0812,9.0812,9.0812,9.0743,9.0502,8.9976,8.9117,8.7276,8.6108,8.5138,8.4685,8.4555,8.4717,8.5203,8.5268,8.5268,8.5268,8.5268,8.5268,8.5268,8.5268,8.5268,8.5268,8.5268,8.5268,8.5268,8.5268,8.5203,8.4944,8.3875,8.3098,8.2839,8.1705,8.1673,8.313,8.3195,8.3595,8.4571,8.3637,8.2151,8.02,8.02,7.8956,7.6462,7.6027,7.5675,0.0,0.0,0.0,7.3421,7.3435,7.4295,8.49,0.0,0.0,0.0,0.0,0.0,0.0,0.0,0.0,0.0,0.0,0.0,0.0,0.0,0.0,0.0,0.0,0.0,0.0,0.0,0.0,0.0,0.0,9.191,9.0812,9.0812,9.0812,9.0812,9.0812,9.0812,9.0812,9.1299,9.1809,9.2407,9.2893,9.3404,9.3995,9.3995,9.3995,9.3995,9.3995,9.3995,9.3995,9.3995,9.3995,9.3995,9.3995,9.3684,9.3215,9.3215,9.2505,9.1606,9.1606,9.1196,9.0812,9.0812,9.0812,9.0812,9.0778,9.0778,9.0778,9.0743,9.0743,9.0571,8.9847,8.8293,8.6894,8.672,8.598,8.5268,8.5268,8.5268,8.5268,8.5268,8.5268,8.5268,8.5268,8.5268,8.5268,8.5268,8.5268,8.5268,8.5268,8.5268,8.5268,8.5268,8.5268,8.4976,8.4264,8.3584,8.2871,8.2159,8.1446,8.1673,8.3098,8.3195,8.3157,8.3019,8.3082,8.1548,7.8669,7.8669,7.7974,7.6462,7.6462,7.5981,6.2792,0.0,0.0,0.0,0.0,0.0,0.0,0.0,0.0,0.0,0.0,0.0,0.0,0.0,0.0,0.0,0.0,0.0,0.0,0.0,0.0,0.0,0.0,0.0,0.0,0.0,0.0,0.0,9.1299,9.1092,9.0812,9.0812,9.0812,9.0812,9.0812,9.0812,9.0812,9.0917,9.1299,9.1809,9.201,9.2505,9.3404,9.3404,9.3591,9.3995,9.3995,9.3995,9.3995,9.3995,9.3995,9.3995,9.3995,9.3684,9.312,9.27,9.221,9.1504,9.1126,9.0917,9.0812,9.0812,9.0812,9.0709,9.0157,9.0019,8.9881,8.9364,8.9191,8.9053,8.8183,8.7482,8.676,8.6059,8.5588,8.5268,8.5268,8.5268,8.5268,8.5268,8.5268,8.5268,8.5268,8.5268,8.5268,8.5268,8.5268,8.5268,8.5268,8.5268,8.5268,8.5268,8.5268,8.4976,8.4264,8.3584,8.2871,8.2159,8.1446,8.1446,8.2385,8.2904,8.2707,8.1726,8.1119,7.9881,7.7981,7.846,7.7974,7.6462,7.6462,7.5751,6.3564,6.3664,6.3997,6.5783,0.0,0.0,0.0,0.0,0.0,0.0,0.0,0.0,0.0,0.0,0.0,0.0,0.0,0.0,0.0,0.0,0.0,0.0,0.0,0.0,0.0,0.0,0.0,9.1606,9.1299,9.1022,9.0812,9.0812,9.0812,9.0812,9.0812,9.0812,9.0812,9.0812,9.1126,9.1606,9.1606,9.211,9.3215,9.3215,9.3497,9.3995,9.3995,9.3995,9.3995,9.3995,9.3995,9.3995,9.3776,9.331,9.2797,9.2309,9.1708,9.1196,9.0917,9.0812,9.0812,9.0812,9.0812,9.0674,8.9916,8.9709,8.9536,8.8812,8.8364,8.7807,8.6914,8.6533,8.6147,8.5232,8.5089,8.5268,8.5268,8.5268,8.5268,8.5268,8.5268,8.5268,8.5268,8.5268,8.5268,8.5268,8.5268,8.5268,8.5268,8.5268,8.5268,8.5268,8.5268,8.4879,8.3875,8.3422,8.2742,8.1738,8.1252,8.1349,8.2094,8.2251,8.157,8.0219,7.9373,7.8217,7.6736,7.712,7.7034,7.6462,7.6462,7.5808,6.5013,6.5286,6.5897,6.6985,6.5879,0.0,0.0,0.0,0.0,0.0,0.0,0.0,0.0,0.0,0.0,0.0,0.0,0.0,0.0,0.0,0.0,0.0,0.0,0.0,0.0,9.3215,9.2735,9.1708,9.1606,9.1299,9.0812,9.0812,9.0812,9.0812,9.0812,9.0812,9.0812,9.0812,9.1022,9.1504,9.1504,9.201,9.3024,9.312,9.3404,9.3868,9.3959,9.3995,9.3995,9.3995,9.3995,9.3995,9.3404,9.2928,9.2309,9.1809,9.1299,9.0812,9.0812,9.0743,9.0709,9.0778,9.0709,9.0433,8.9778,8.9536,8.9295,8.8536,8.7672,8.6786,8.5873,8.5567,8.5221,8.4316,8.4717,8.5268,8.5268,8.5268,8.5268,8.5268,8.5268,8.5268,8.5268,8.5268,8.5268,8.5268,8.5268,8.5268,8.5268,8.5268,8.5268,8.5268,8.5268,8.4749,8.3422,8.3227,8.2612,8.122,8.109,8.1317,8.1964,8.1345,8.0193,7.8647,7.7765,7.6762,7.5388,7.5534,7.5911,7.6462,7.6462,7.601,6.6108,6.6344,6.6536,6.5184,6.5934,0.0,0.0,0.0,0.0,0.0,0.0,0.0,0.0,0.0,0.0,0.0,0.0,0.0,0.0,0.0,0.0,0.0,0.0,0.0,0.0,9.3085,9.2505,9.221,9.1402,9.0917,9.0812,9.0812,9.0812,9.0812,9.0812,9.0812,9.0812,9.0812,9.0812,9.0917,9.0917,9.1299,9.191,9.2309,9.2832,9.3404,9.3776,9.3995,9.3995,9.3995,9.3995,9.3995,9.3404,9.2928,9.2309,9.1809,9.1299,9.0812,9.0812,9.0433,9.0019,9.0605,9.0019,8.8984,8.8846,8.8364,8.7708,8.6949,8.6097,8.5226,8.4363,8.4437,8.4498,8.3601,8.4361,8.5268,8.5268,8.5268,8.5268,8.5268,8.5268,8.5268,8.5268,8.5268,8.5268,8.5268,8.5268,8.5268,8.5268,8.5268,8.5268,8.5268,8.5268,8.4944,8.4069,8.3519,8.2806,8.1964,8.1349,8.109,8.122,8.0611,7.9252,7.7231,7.5855,7.4984,7.4721,7.5766,7.6167,7.5981,7.5981,7.5526,6.7083,6.7247,6.7635,6.6605,6.6455,0.0,0.0,0.0,0.0,0.0,0.0,0.0,0.0,0.0,0.0,0.0,0.0,0.0,0.0,0.0,0.0,0.0,0.0,0.0,0.0,9.2424,9.1789,9.1572,9.1092,9.0812,9.0812,9.0812,9.0812,9.0812,9.0812,9.0812,9.0812,9.0812,9.0812,9.0812,9.0812,9.1126,9.1606,9.191,9.2407,9.3215,9.3497,9.3776,9.3995,9.3684,9.3591,9.3497,9.3024,9.2603,9.2309,9.1504,9.1022,9.0812,9.0812,9.0329,8.9778,9.0123,8.9502,8.8536,8.8122,8.7467,8.6777,8.6398,8.5343,8.4319,8.4253,8.406,8.3835,8.3739,8.4523,8.5268,8.5268,8.5268,8.5268,8.5268,8.5268,8.5268,8.5268,8.5268,8.5268,8.5268,8.5268,8.5268,8.5268,8.5268,8.5268,8.5268,8.5268,8.4847,8.3778,8.3389,8.2742,8.1641,8.122,8.0634,7.9963,7.9321,7.7847,7.5677,7.4864,7.4692,7.5011,7.582,7.5981,7.583,7.583,7.5374,6.8506,6.884,6.9472,6.8506,6.7455,6.6916,0.0,0.0,0.0,0.0,0.0,0.0,0.0,0.0,0.0,0.0,0.0,0.0,0.0,0.0,0.0,0.0,0.0,0.0,0.0,0.0,9.0961,9.0746,9.0605,9.0674,9.0812,9.0812,9.0812,9.0812,9.0812,9.0812,9.0812,9.0812,9.0812,9.0812,9.0812,9.1022,9.1402,9.1504,9.211,9.3024,9.3024,9.331,9.3776,9.331,9.3024,9.3024,9.2407,9.221,9.211,9.1126,9.0812,9.0778,9.064,9.0123,8.9502,8.9502,8.8984,8.8226,8.7432,8.6777,8.6294,8.6093,8.4992,8.3932,8.4389,8.3958,8.3519,8.4069,8.4749,8.5268,8.5268,8.5268,8.5268,8.5268,8.5268,8.5268,8.5268,8.5268,8.5268,8.5268,8.5268,8.5268,8.5268,8.5268,8.5268,8.5268,8.5268,8.4782,8.3486,8.3389,8.2774,8.1317,8.122,8.0521,7.9004,7.7879,7.6241,7.4314,7.4488,7.4866,7.5504,7.5664,7.583,7.5678,7.5678,7.5221,7.1143,7.2146,7.2852,6.8543,6.9389,0.0,0.0,0.0,0.0,0.0,0.0,0.0,0.0,0.0,0.0,0.0,0.0,0.0,0.0,0.0,0.0,0.0,0.0,0.0,0.0,0.0,0.0,9.0496,9.0123,9.0123,9.0778,9.0812,9.0812,9.0812,9.0812,9.0812,9.0812,9.0812,9.0812,9.0812,9.0812,9.0812,9.0917,9.1402,9.191,9.2505,9.2505,9.2832,9.3215,9.27,9.2505,9.2407,9.191,9.1708,9.1606,9.1022,9.0812,9.0709,9.0054,8.9329,8.8708,8.8708,8.8191,8.7398,8.6674,8.6363,8.6093,8.5343,8.4905,8.4422,8.3729,8.3759,8.4102,8.4199,8.4749,8.5268,8.5268,8.5268,8.5268,8.5268,8.5268,8.5268,8.5268,8.5268,8.5268,8.5268,8.5268,8.5268,8.5268,8.5268,8.5268,8.5268,8.5268,8.4944,8.4167,8.4102,8.3486,8.2062,8.1997,8.1035,7.9035,7.6467,7.4615,7.3705,7.4227,7.4837,7.5504,7.5664,7.5678,7.5221,7.4914,7.4451,7.3781,7.4487,7.4673,0.0,0.0,0.0,6.539,0.0,6.4058,0.0,0.0,0.0,0.0,0.0,0.0,0.0,0.0,0.0,0.0,0.0,0.0,0.0,0.0,0.0,0.0,0.0,0.0,0.0,0.0,8.7605,8.8777,9.0088,9.0812,9.0812,9.0812,9.0812,9.0812,9.0812,9.0812,9.0812,9.0812,9.0812,9.0812,9.0988,9.1402,9.191,9.191,9.221,9.27,9.211,9.191,9.191,9.1299,9.1299,9.1504,9.1022,9.0536,9.0123,8.9812,8.8915,8.7846,8.7398,8.7053,8.6708,8.6398,8.6294,8.6093,8.5239,8.4865,8.4623,8.4176,8.4151,8.4296,8.4717,8.5073,8.5268,8.5268,8.5268,8.5268,8.5268,8.5268,8.5268,8.5268,8.5268,8.5268,8.5268,8.5268,8.5268,8.5268,8.5268,8.5268,8.5268,8.5268,8.4976,8.4264,8.3843,8.3195,8.2159,8.0108,7.8276,7.6538,7.497,7.4018,7.4111,7.475,7.5269,7.5728,7.5563,7.5221,7.4914,7.4606,7.4296,7.7347,7.7162,0.0,0.0,0.0,0.0,0.0,0.0,0.0,0.0,0.0,0.0,0.0,0.0,0.0,0.0,0.0,0.0,0.0,0.0,0.0,0.0,0.0,0.0,0.0,0.0,0.0,0.0,0.0,0.0,8.7294,8.8984,9.0157,9.0778,9.0812,9.0812,9.0812,9.0812,9.0812,9.0812,9.0812,9.0812,9.0812,9.0812,9.1092,9.1606,9.1402,9.1708,9.211,9.1606,9.1402,9.1299,9.0917,9.1022,9.1299,9.0917,9.0329,8.9674,8.9467,8.8398,8.7018,8.6467,8.6294,8.6294,8.6294,8.6294,8.6128,8.5128,8.4951,8.4877,8.4518,8.4431,8.462,8.517,8.5268,8.5268,8.5268,8.5268,8.5268,8.5268,8.5268,8.5268,8.5268,8.5268,8.5268,8.5268,8.5268,8.5268,8.5268,8.5268,8.5268,8.5268,8.5268,8.4976,8.4264,8.3746,8.2943,8.164,7.8299,7.6045,7.4988,7.4303,7.414,7.4779,7.5095,7.5496,7.583,7.5221,7.4914,7.4606,7.4451,7.4324,0.0,0.0,0.0,7.8351,0.0,0.0,0.0,0.0,6.6024,0.0,0.0,0.0,0.0,0.0,0.0,0.0,0.0,0.0,0.0,0.0,0.0,0.0,0.0,0.0,0.0,0.0,0.0,0.0,0.0,0.0,8.7156,8.7467,8.8536,9.0743,9.0812,9.0812,9.0812,9.0812,9.0812,9.0812,9.0812,9.0812,9.0812,9.0812,9.1092,9.1606,9.1022,9.1092,9.1606,9.1022,9.0812,9.0812,9.0812,9.0812,9.0812,9.0812,9.0329,8.9605,8.8881,8.7639,8.6329,8.6329,8.6294,8.6294,8.6294,8.6294,8.6129,8.4951,8.5248,8.553,8.4431,8.4717,8.5268,8.5268,8.5268,8.5268,8.5268,8.5268,8.5268,8.5268,8.5268,8.5268,8.5268,8.5268,8.5268,8.5268,8.5268,8.5268,8.5268,8.5268,8.5268,8.5268,8.5268,8.4976,8.4264,8.4199,8.3024,8.0207,7.7313,7.5707,7.5707,7.4978,7.4808,7.5475,7.5178,7.5196,7.583,7.5067,7.4606,7.4606,7.4169,7.4013,0.0,0.0,8.5632,8.4257,0.0,0.0,0.0,0.0,0.0,0.0,0.0,0.0,0.0,0.0,0.0,0.0,0.0,0.0,0.0,0.0,0.0,0.0,0.0,0.0,0.0,0.0,0.0,0.0,0.0,0.0,0.0,8.6329,8.8226,9.0019,9.0571,9.0812,9.0812,9.0812,9.0812,9.0812,9.0812,9.0812,9.0812,9.0812,9.0917,9.1126,9.0917,9.0917,9.1022,9.0917,9.0812,9.0812,9.0812,9.0812,9.0812,9.0812,9.0019,8.8777,8.7536,8.6742,8.6294,8.6294,8.6294,8.6294,8.6294,8.589,8.5375,8.4875,8.4864,8.4786,8.4374,8.4749,8.5268,8.5268,8.5268,8.5268,8.5268,8.5268,8.5268,8.5268,8.5268,8.5268,8.5268,8.5268,8.5268,8.5268,8.5268,8.5268,8.5268,8.5268,8.5268,8.5268,8.5268,8.4976,8.4264,8.255,8.0397,7.8014,7.6561,7.5349,7.442,7.4897,7.5272,7.5504,7.5462,7.5477,7.5374,7.4914,7.4451,7.4169,7.4013,7.4013,9.0387,8.9904,0.0,8.8604,8.4183,0.0,7.8425,0.0,0.0,0.0,0.0,0.0,0.0,0.0,0.0,7.0253,6.6801,0.0,0.0,6.2693,0.0,0.0,0.0,0.0,0.0,0.0,0.0,0.0,0.0,0.0,0.0,0.0,8.7294,8.964,9.0433,9.0812,9.0812,9.0812,9.0812,9.0812,9.0812,9.0812,9.0812,9.0812,9.0812,9.0812,9.0812,9.0812,9.0812,9.0812,9.0812,9.0812,9.0812,9.0812,9.0812,9.0812,8.9881,8.8364,8.6846,8.6294,8.6294,8.6294,8.6294,8.6294,8.6294,8.5857,8.5327,8.5168,8.5002,8.4826,8.4641,8.4944,8.5268,8.5268,8.5268,8.5268,8.5268,8.5268,8.5268,8.5268,8.5268,8.5268,8.5268,8.5268,8.5268,8.5268,8.5268,8.5268,8.5268,8.5268,8.5268,8.5268,8.5041,8.449,8.3551,8.0903,7.858,7.72,7.5983,7.4974,7.4285,7.5301,7.5737,7.5356,7.5513,7.5259,7.4601,7.4521,7.4324,7.4013,7.3788,7.3704]},{"header":{"parameterUnit":"m.s-1","parameterCategory":1,"la1":30.6,"la2":29.2853,"lo1":-89.7004,"lo2":-87.6739,"dx":0.0162,"dy":0.0183,"nx":112,"ny":82,"refTime":"2022-11-14T06:00:00:Z","depth":0,"parameterNumber":3,"parameterNumberName":"V-component_of_WINDS"},"data":[0.0,0.0,0.0,0.0,0.0,0.0,0.0,0.0,0.0,0.0,0.0,0.0,0.0,0.0,0.0,0.0,0.0,0.0,0.0,0.0,0.0,0.0,0.0,0.0,0.0,0.0,0.0,0.0,0.0,0.0,0.0,0.0,0.0,0.0,0.0,0.0,0.0,0.0,0.0,0.0,0.0,0.0,0.0,0.0,0.0,0.0,0.0,0.0,0.0,0.0,0.0,0.0,0.0,0.0,0.0,0.0,0.0,0.0,0.0,0.0,0.0,0.0,0.0,0.0,0.0,0.0,0.0,0.0,0.0,0.0,0.0,0.0,0.0,0.0,0.0,0.0,0.0,0.0,0.0,0.0,0.0,0.0,0.0,0.0,0.0,0.0,0.0,0.0,0.0,0.0,0.0,-2.6777,-2.6624,-2.6205,-2.5108,-2.5469,-2.5987,-2.6232,0.0,0.0,0.0,0.0,0.0,0.0,0.0,0.0,0.0,0.0,0.0,0.0,0.0,0.0,0.0,0.0,0.0,0.0,0.0,0.0,0.0,0.0,0.0,0.0,0.0,0.0,0.0,0.0,0.0,0.0,0.0,0.0,0.0,0.0,0.0,0.0,0.0,0.0,0.0,0.0,0.0,0.0,0.0,0.0,0.0,0.0,0.0,0.0,0.0,0.0,0.0,0.0,0.0,0.0,0.0,0.0,0.0,0.0,0.0,0.0,0.0,0.0,0.0,0.0,0.0,0.0,0.0,0.0,0.0,0.0,0.0,0.0,0.0,0.0,0.0,0.0,0.0,0.0,0.0,0.0,0.0,0.0,0.0,0.0,0.0,0.0,0.0,0.0,0.0,0.0,0.0,0.0,0.0,0.0,0.0,0.0,0.0,0.0,0.0,0.0,0.0,0.0,0.0,0.0,-2.6357,-2.6843,-2.7183,-2.6908,-2.5421,-2.5922,-2.6255,-2.6261,0.0,0.0,0.0,0.0,0.0,0.0,0.0,0.0,0.0,0.0,0.0,0.0,0.0,0.0,0.0,0.0,0.0,0.0,0.0,0.0,0.0,0.0,0.0,0.0,0.0,0.0,0.0,0.0,0.0,0.0,0.0,0.0,0.0,0.0,0.0,0.0,0.0,0.0,0.0,0.0,0.0,0.0,0.0,0.0,0.0,0.0,0.0,0.0,0.0,0.0,0.0,0.0,0.0,0.0,0.0,0.0,0.0,0.0,0.0,0.0,0.0,0.0,0.0,0.0,0.0,0.0,0.0,0.0,0.0,0.0,0.0,0.0,0.0,0.0,0.0,0.0,0.0,0.0,0.0,0.0,0.0,0.0,0.0,0.0,0.0,0.0,0.0,0.0,0.0,0.0,0.0,0.0,0.0,0.0,0.0,0.0,0.0,0.0,0.0,0.0,0.0,0.0,0.0,-2.7446,-2.7406,-2.7328,-2.7622,-2.7473,-2.6315,-2.6497,-2.6786,-2.7144,-2.6156,0.0,0.0,0.0,0.0,0.0,0.0,0.0,0.0,0.0,0.0,0.0,0.0,0.0,0.0,0.0,0.0,0.0,0.0,0.0,0.0,0.0,0.0,0.0,0.0,0.0,0.0,0.0,0.0,0.0,0.0,0.0,0.0,0.0,0.0,0.0,0.0,0.0,0.0,0.0,0.0,0.0,0.0,0.0,0.0,0.0,0.0,0.0,0.0,0.0,0.0,0.0,0.0,0.0,0.0,0.0,0.0,0.0,0.0,0.0,0.0,0.0,0.0,0.0,0.0,0.0,0.0,0.0,0.0,0.0,0.0,0.0,0.0,0.0,0.0,0.0,0.0,0.0,0.0,0.0,0.0,0.0,0.0,0.0,0.0,0.0,0.0,0.0,0.0,0.0,0.0,0.0,0.0,0.0,0.0,0.0,0.0,0.0,0.0,0.0,0.0,0.0,0.0,-2.8447,-2.8208,-2.7861,-2.7965,-2.787,-2.7111,-2.6925,-2.7136,-2.7993,-2.6691,0.0,0.0,0.0,0.0,0.0,0.0,0.0,0.0,0.0,0.0,0.0,0.0,0.0,0.0,0.0,0.0,0.0,0.0,0.0,0.0,0.0,0.0,0.0,0.0,0.0,0.0,0.0,0.0,0.0,0.0,0.0,0.0,0.0,0.0,0.0,0.0,0.0,0.0,0.0,0.0,0.0,0.0,0.0,0.0,0.0,0.0,0.0,0.0,0.0,0.0,0.0,0.0,0.0,0.0,0.0,0.0,0.0,0.0,0.0,0.0,0.0,0.0,0.0,0.0,0.0,0.0,0.0,0.0,0.0,0.0,0.0,0.0,0.0,0.0,0.0,0.0,0.0,0.0,0.0,0.0,0.0,0.0,0.0,0.0,0.0,0.0,0.0,0.0,0.0,0.0,0.0,0.0,0.0,0.0,0.0,0.0,0.0,0.0,0.0,0.0,0.0,0.0,-2.8347,-2.84,-2.8347,-2.8344,-2.8199,-2.7413,-2.7023,-2.7136,-2.7993,-2.6623,0.0,0.0,0.0,0.0,0.0,0.0,0.0,0.0,0.0,0.0,0.0,0.0,0.0,0.0,0.0,0.0,0.0,0.0,0.0,0.0,0.0,0.0,0.0,0.0,0.0,0.0,0.0,0.0,0.0,0.0,0.0,0.0,0.0,0.0,0.0,0.0,0.0,0.0,0.0,0.0,0.0,0.0,0.0,0.0,0.0,0.0,0.0,0.0,0.0,0.0,0.0,0.0,0.0,0.0,0.0,0.0,0.0,0.0,0.0,0.0,0.0,0.0,0.0,0.0,0.0,0.0,0.0,0.0,0.0,0.0,0.0,0.0,0.0,0.0,0.0,0.0,0.0,0.0,0.0,0.0,0.0,0.0,0.0,0.0,0.0,0.0,0.0,0.0,0.0,0.0,0.0,0.0,0.0,0.0,0.0,0.0,0.0,0.0,0.0,0.0,0.0,0.0,-2.8862,-2.8951,0.0,-2.8931,-2.8913,-2.8403,-2.801,-2.7887,-2.8482,0.0,0.0,0.0,0.0,0.0,0.0,0.0,0.0,0.0,0.0,0.0,0.0,0.0,0.0,0.0,0.0,0.0,0.0,0.0,0.0,0.0,0.0,0.0,0.0,0.0,0.0,0.0,0.0,0.0,0.0,0.0,0.0,0.0,0.0,0.0,0.0,0.0,0.0,0.0,0.0,0.0,0.0,0.0,0.0,0.0,0.0,0.0,0.0,0.0,0.0,0.0,0.0,0.0,0.0,0.0,0.0,0.0,0.0,0.0,0.0,0.0,0.0,0.0,0.0,0.0,0.0,0.0,0.0,0.0,0.0,0.0,0.0,0.0,0.0,0.0,0.0,0.0,0.0,0.0,0.0,0.0,0.0,0.0,0.0,0.0,0.0,0.0,0.0,0.0,0.0,0.0,0.0,0.0,0.0,0.0,0.0,0.0,0.0,0.0,0.0,0.0,0.0,-2.8857,-2.932,-2.9446,0.0,-2.9442,-2.9516,-2.9127,-2.8606,-2.822,-2.8547,0.0,0.0,0.0,0.0,0.0,0.0,0.0,0.0,0.0,0.0,0.0,0.0,0.0,0.0,0.0,0.0,0.0,0.0,0.0,0.0,0.0,0.0,0.0,0.0,0.0,0.0,0.0,0.0,0.0,0.0,0.0,0.0,0.0,0.0,0.0,0.0,0.0,0.0,0.0,0.0,0.0,0.0,0.0,0.0,0.0,0.0,0.0,0.0,0.0,0.0,0.0,0.0,0.0,0.0,0.0,0.0,0.0,0.0,0.0,0.0,0.0,0.0,0.0,0.0,0.0,0.0,0.0,0.0,0.0,0.0,0.0,0.0,0.0,0.0,0.0,0.0,0.0,0.0,0.0,0.0,0.0,0.0,0.0,0.0,0.0,0.0,0.0,0.0,0.0,0.0,0.0,0.0,0.0,0.0,0.0,0.0,0.0,0.0,0.0,0.0,0.0,0.0,-2.9143,-2.9759,-2.9987,-2.9695,-3.0085,-2.9997,-2.9405,-2.8588,-2.8104,0.0,0.0,0.0,0.0,0.0,0.0,0.0,0.0,0.0,0.0,0.0,0.0,0.0,0.0,0.0,0.0,0.0,0.0,0.0,0.0,0.0,0.0,0.0,0.0,0.0,0.0,0.0,0.0,0.0,0.0,0.0,0.0,0.0,0.0,0.0,0.0,0.0,0.0,0.0,0.0,0.0,0.0,0.0,0.0,0.0,0.0,0.0,0.0,0.0,0.0,0.0,0.0,0.0,0.0,0.0,0.0,0.0,0.0,0.0,0.0,0.0,0.0,0.0,0.0,0.0,0.0,0.0,0.0,0.0,0.0,0.0,0.0,0.0,0.0,0.0,0.0,0.0,0.0,0.0,0.0,0.0,0.0,0.0,0.0,0.0,0.0,0.0,0.0,0.0,0.0,0.0,0.0,0.0,0.0,0.0,0.0,0.0,0.0,0.0,0.0,0.0,0.0,0.0,-2.9033,-2.9549,-2.9772,-2.9679,-2.9898,-2.9882,-2.9682,-2.9517,-2.9161,-2.8905,0.0,0.0,0.0,0.0,0.0,0.0,0.0,0.0,0.0,0.0,0.0,0.0,0.0,0.0,0.0,0.0,0.0,0.0,0.0,0.0,0.0,0.0,0.0,0.0,0.0,0.0,0.0,0.0,0.0,0.0,0.0,0.0,0.0,0.0,0.0,0.0,0.0,0.0,0.0,0.0,0.0,0.0,0.0,0.0,0.0,0.0,0.0,0.0,0.0,0.0,0.0,0.0,0.0,0.0,0.0,0.0,0.0,0.0,0.0,0.0,0.0,0.0,0.0,0.0,0.0,0.0,0.0,0.0,0.0,0.0,0.0,0.0,0.0,0.0,0.0,0.0,0.0,0.0,0.0,0.0,0.0,0.0,0.0,0.0,0.0,0.0,0.0,0.0,0.0,0.0,0.0,0.0,0.0,0.0,0.0,0.0,0.0,0.0,0.0,0.0,0.0,0.0,-2.9049,-3.0475,-3.0838,-2.9884,-3.013,-3.0319,-3.0117,-3.002,-2.9629,-2.9043,0.0,0.0,0.0,0.0,0.0,0.0,0.0,0.0,0.0,0.0,0.0,0.0,0.0,0.0,0.0,0.0,0.0,0.0,0.0,0.0,0.0,0.0,0.0,0.0,0.0,0.0,0.0,0.0,0.0,0.0,0.0,0.0,0.0,0.0,0.0,0.0,0.0,0.0,0.0,0.0,0.0,0.0,0.0,0.0,0.0,0.0,0.0,0.0,0.0,0.0,0.0,0.0,0.0,0.0,0.0,0.0,0.0,0.0,0.0,0.0,0.0,0.0,0.0,0.0,0.0,0.0,0.0,0.0,0.0,0.0,0.0,0.0,0.0,0.0,0.0,0.0,0.0,0.0,0.0,0.0,0.0,0.0,0.0,0.0,0.0,0.0,0.0,0.0,0.0,0.0,0.0,0.0,0.0,0.0,0.0,0.0,0.0,0.0,0.0,0.0,0.0,0.0,-2.9276,-3.157,-3.2504,-3.0378,-3.0974,-3.1253,-3.0648,-3.0407,-2.9836,-2.9021,0.0,0.0,0.0,0.0,0.0,0.0,0.0,0.0,0.0,0.0,0.0,0.0,0.0,0.0,0.0,0.0,0.0,0.0,0.0,0.0,0.0,0.0,0.0,0.0,0.0,0.0,0.0,0.0,0.0,0.0,0.0,0.0,0.0,0.0,0.0,0.0,0.0,0.0,0.0,0.0,0.0,0.0,0.0,0.0,0.0,0.0,0.0,0.0,0.0,0.0,0.0,0.0,0.0,0.0,0.0,0.0,0.0,0.0,0.0,0.0,-2.2453,0.0,0.0,0.0,0.0,0.0,0.0,0.0,0.0,0.0,0.0,0.0,0.0,0.0,0.0,0.0,0.0,0.0,0.0,0.0,0.0,0.0,0.0,0.0,0.0,0.0,0.0,0.0,0.0,0.0,0.0,0.0,0.0,0.0,0.0,0.0,0.0,0.0,0.0,0.0,0.0,0.0,-2.9318,-3.0328,-3.0733,-3.0491,-3.0851,-3.1121,-3.0914,-3.0672,-3.0304,-3.0043,0.0,0.0,0.0,0.0,0.0,0.0,0.0,0.0,0.0,0.0,0.0,0.0,0.0,0.0,0.0,0.0,0.0,0.0,0.0,0.0,0.0,0.0,0.0,0.0,0.0,0.0,0.0,0.0,0.0,0.0,0.0,0.0,0.0,0.0,0.0,0.0,0.0,0.0,0.0,0.0,0.0,0.0,0.0,0.0,0.0,0.0,0.0,0.0,0.0,0.0,0.0,0.0,0.0,0.0,0.0,0.0,0.0,0.0,0.0,0.0,0.0,-2.2682,0.0,0.0,0.0,0.0,0.0,0.0,0.0,0.0,0.0,0.0,0.0,0.0,0.0,0.0,0.0,0.0,0.0,0.0,0.0,0.0,0.0,0.0,0.0,0.0,0.0,0.0,0.0,0.0,0.0,0.0,0.0,0.0,0.0,0.0,0.0,0.0,0.0,0.0,0.0,0.0,-2.9036,-3.065,-3.1565,-3.0748,-3.1,-3.1191,-3.1191,-3.1059,-3.0913,-3.0574,-3.2301,0.0,0.0,0.0,0.0,0.0,0.0,0.0,0.0,0.0,0.0,0.0,0.0,0.0,0.0,0.0,0.0,0.0,0.0,0.0,0.0,0.0,0.0,0.0,0.0,0.0,0.0,0.0,0.0,0.0,0.0,0.0,0.0,0.0,0.0,0.0,0.0,0.0,0.0,0.0,0.0,0.0,0.0,0.0,0.0,0.0,0.0,0.0,0.0,0.0,0.0,0.0,0.0,0.0,0.0,0.0,-2.457,-2.4957,-2.5568,-2.6146,-2.5024,-2.4663,-2.477,0.0,0.0,0.0,0.0,0.0,0.0,0.0,0.0,0.0,0.0,0.0,0.0,0.0,0.0,0.0,0.0,0.0,0.0,0.0,0.0,0.0,0.0,0.0,0.0,0.0,-2.7258,-2.7565,0.0,0.0,0.0,0.0,0.0,0.0,0.0,0.0,0.0,0.0,0.0,0.0,-2.8895,-3.1259,-3.2617,-3.0937,-3.1119,-3.1457,-3.1457,-3.1421,-3.151,-3.1488,-3.334,-3.3625,0.0,0.0,0.0,0.0,0.0,0.0,0.0,0.0,0.0,0.0,0.0,0.0,0.0,0.0,0.0,0.0,0.0,0.0,0.0,0.0,0.0,0.0,0.0,0.0,0.0,0.0,0.0,0.0,0.0,0.0,0.0,0.0,-2.0706,-2.1332,0.0,0.0,0.0,0.0,0.0,0.0,0.0,0.0,0.0,0.0,0.0,0.0,0.0,0.0,-2.64,-2.534,-2.5251,-2.63,-2.6505,-2.6645,-2.6876,-2.7604,-2.8444,-2.8911,-2.7976,0.0,-2.5745,-2.5291,0.0,0.0,0.0,0.0,0.0,0.0,0.0,0.0,0.0,0.0,0.0,0.0,0.0,0.0,0.0,0.0,0.0,0.0,0.0,0.0,0.0,0.0,-2.7785,-2.7933,-2.9533,-3.0354,0.0,-2.7616,-2.7601,-2.7509,0.0,0.0,0.0,0.0,0.0,0.0,0.0,0.0,-2.9754,-3.0498,-3.1092,-3.1203,-3.1498,-3.1759,-3.1759,-3.1529,-3.2004,-3.342,-3.4692,-3.5304,-3.5118,-3.5155,0.0,0.0,0.0,0.0,0.0,0.0,0.0,0.0,0.0,0.0,0.0,0.0,0.0,0.0,0.0,0.0,0.0,0.0,0.0,0.0,0.0,0.0,0.0,0.0,0.0,0.0,0.0,0.0,0.0,-2.2454,-2.2418,-2.2512,-2.2749,-2.2458,0.0,0.0,0.0,0.0,0.0,0.0,0.0,0.0,0.0,-2.4739,-2.4914,-2.5698,-2.6981,-2.6796,-2.6795,-2.7147,-2.7485,-2.77,-2.7799,-2.8335,-2.9104,-2.9832,-2.9099,-2.867,-2.8323,-2.7028,-2.6172,-2.5611,0.0,0.0,0.0,0.0,0.0,-2.2746,-2.4181,0.0,0.0,0.0,0.0,0.0,0.0,0.0,0.0,0.0,0.0,0.0,0.0,0.0,0.0,-2.895,-2.9795,-3.0699,-3.0699,-2.9606,-2.8748,0.0,-2.9215,-2.9633,-2.8138,0.0,0.0,0.0,0.0,0.0,-3.0333,-3.0675,-3.1121,-3.1426,-3.1717,-3.1807,-3.1807,-3.2524,-3.3294,-3.4124,-3.6598,-3.7933,-3.7581,-3.7521,-3.697,0.0,0.0,0.0,0.0,0.0,0.0,0.0,0.0,0.0,0.0,0.0,0.0,0.0,0.0,0.0,0.0,0.0,0.0,0.0,0.0,0.0,0.0,0.0,0.0,0.0,0.0,0.0,0.0,-2.4095,-2.4077,-2.3766,-2.4342,-2.4044,0.0,0.0,0.0,0.0,0.0,0.0,-2.4636,-2.4854,-2.5231,-2.5816,-2.6242,-2.6732,-2.746,-2.7699,-2.777,-2.7653,-2.8214,-2.8427,-2.8272,-2.8628,-2.9333,-2.9961,-2.9676,-3.0005,-3.0371,-2.8711,-2.7722,-2.7348,-2.6826,-2.603,-2.5242,-2.5741,-2.519,-2.4634,-2.6118,-2.6221,-2.588,-2.6809,0.0,-2.7346,-2.7509,0.0,0.0,0.0,0.0,-3.0445,-3.0151,-3.0439,-3.0497,-3.0066,-3.0623,-3.1554,-3.2613,-3.2253,-3.1485,0.0,-3.1257,-3.1724,-3.0371,0.0,0.0,0.0,0.0,-3.3158,-3.1592,-3.1328,-3.1292,-3.1336,-3.1638,-3.1807,-3.1807,-3.3273,-3.4518,-3.494,-3.8163,-3.9841,-3.9464,-3.953,-3.9307,-3.8727,0.0,0.0,0.0,0.0,0.0,0.0,0.0,0.0,0.0,0.0,0.0,0.0,0.0,0.0,0.0,0.0,0.0,0.0,0.0,0.0,0.0,0.0,0.0,0.0,0.0,0.0,0.0,0.0,0.0,-2.4611,-2.5063,0.0,0.0,0.0,0.0,-2.4762,-2.4611,-2.4798,-2.5533,-2.5607,-2.6103,-2.7169,-2.671,-2.7349,-2.861,-2.7915,-2.7694,-2.8508,-2.852,-2.8533,-2.8545,-2.9103,-2.9428,-2.9683,-2.9961,-3.0342,-3.076,-3.0106,-2.9446,-2.8871,-2.7944,-2.7184,-2.6698,-2.7013,-2.7105,-2.7197,-2.8419,-2.8564,-2.823,-2.8738,-2.801,-2.7097,-2.8125,-2.8242,0.0,0.0,-3.0542,-3.0411,-3.216,-3.1317,-3.028,-3.1423,-3.3275,-3.442,-3.3104,-3.5539,-3.7375,0.0,-3.4562,-3.4083,-3.6325,0.0,-3.8629,-3.7075,-3.609,-3.5088,-3.4097,-3.2226,-3.1083,-3.136,-3.1638,-3.1807,-3.1807,-3.3273,-3.494,-3.6607,-3.7986,-3.9668,-4.1107,-4.026,-4.0105,-4.0811,-3.8065,0.0,0.0,0.0,0.0,0.0,0.0,0.0,0.0,0.0,0.0,0.0,0.0,0.0,0.0,0.0,0.0,0.0,0.0,0.0,0.0,0.0,0.0,0.0,0.0,0.0,0.0,0.0,0.0,-2.5727,-2.6813,0.0,0.0,-2.6799,-2.7094,-2.6287,-2.6222,-2.651,-2.6735,-2.7095,-2.7287,-2.7305,-2.7304,-2.767,-2.8223,-2.8022,-2.7968,-2.8253,-2.8436,-2.8618,-2.8776,-2.8968,-2.9499,-2.9941,-3.0242,-3.0612,-3.1138,-3.1102,-3.0808,-3.0408,-2.9827,-2.9535,-2.9375,-2.9482,-2.9152,-2.8655,-2.9338,-2.908,-2.8716,-2.943,-2.9299,-2.8911,-2.9415,-2.9468,-2.9614,-3.0123,-3.0321,-3.0648,-3.1076,-3.1221,-3.131,-3.1521,-3.2543,-3.4098,-3.6161,-3.6336,-3.7146,-4.0937,-3.9923,-3.8282,-3.7545,-4.0359,-4.1506,-3.7302,-3.7628,-3.7171,-3.435,-3.4015,-3.3757,-3.3027,-3.4137,-3.494,-3.494,-3.6621,-3.7667,-3.8292,-3.9844,-4.103,-4.1659,-4.1674,-4.1932,-4.2413,-4.1735,-4.0349,0.0,0.0,0.0,0.0,0.0,0.0,0.0,0.0,0.0,0.0,0.0,0.0,0.0,0.0,0.0,0.0,0.0,0.0,0.0,0.0,0.0,0.0,0.0,0.0,0.0,0.0,-2.8028,-2.6822,-2.7767,-2.8163,-2.7367,-2.7944,-2.8168,-2.7603,-2.7321,-2.7292,-2.7377,-2.7732,-2.8013,-2.7824,-2.7908,-2.8029,-2.821,-2.8391,-2.8427,-2.8343,-2.8717,-2.8934,-2.9019,-2.9103,-2.9444,-2.9997,-3.0216,-3.0518,-3.0869,-3.1164,-3.1323,-3.1288,-3.0916,-3.0823,-3.1062,-3.0492,-3.0043,-2.9499,-2.9685,-2.9314,-2.8942,-2.9672,-2.9672,-2.9512,-2.9615,-2.9768,-2.9935,-2.9646,-3.0001,-3.0383,-3.0382,-3.1333,-3.2291,-3.2297,-3.3084,-3.4771,-3.784,-3.744,-3.7824,-4.262,-4.2476,-4.0981,-3.9751,-4.2366,-4.2997,-3.8844,-3.8857,-3.8213,-3.5614,-3.5465,-3.5417,-3.4625,-3.572,-3.6705,-3.6803,-3.7987,-3.8936,-3.9315,-4.0654,-4.1617,-4.2431,-4.1997,-4.2168,-4.3019,-4.2961,-4.1468,-3.8766,0.0,0.0,0.0,0.0,0.0,0.0,0.0,0.0,0.0,0.0,0.0,0.0,0.0,0.0,0.0,0.0,0.0,0.0,0.0,0.0,0.0,0.0,0.0,-2.7609,-2.782,-2.796,-2.7577,-2.7503,-2.7849,-2.8374,-2.7751,-2.7658,-2.8294,-2.7842,-2.7558,-2.7824,-2.7848,-2.8089,-2.862,-2.8367,-2.8475,-2.8994,-2.9006,-2.8874,-2.8632,-2.9139,-2.9248,-2.9006,-2.926,-2.9381,-2.9393,-2.9984,-3.0181,-3.0144,-3.0467,-3.0754,-3.1281,-3.0721,-3.1046,-3.1421,-2.9904,-2.9711,-2.9896,-2.9512,-2.9327,-2.9327,-2.9327,-2.8955,-2.8644,-2.8904,-2.8991,-2.9053,-2.9326,-2.94,-2.9717,-3.0853,-3.1764,-3.2875,-3.4063,-3.5408,-3.6992,-3.7976,-3.894,-4.0109,-4.1078,-4.1515,-4.2038,-4.3397,-4.3884,-4.3609,-4.2051,-3.9808,0.0,-3.8197,-3.6482,-3.5449,-3.6028,-3.6376,-3.666,-3.6941,-3.7606,-3.8401,-3.9446,-4.0016,-4.1423,-4.3384,-4.0897,-4.0512,-4.2538,-4.1639,-4.031,-3.8754,0.0,0.0,0.0,0.0,0.0,0.0,0.0,0.0,0.0,0.0,0.0,0.0,0.0,0.0,0.0,0.0,0.0,0.0,0.0,0.0,0.0,0.0,-2.852,-2.7947,-2.8255,-2.8414,-2.7908,-2.8029,-2.8322,-2.8706,-2.8427,-2.826,-2.8519,-2.8209,-2.8113,-2.8391,-2.8584,-2.8753,-2.8898,-2.8837,-2.8765,-2.8729,-2.8729,-2.8693,-2.862,-2.8765,-2.8801,-2.8729,-2.8801,-2.8946,-2.9115,-2.9504,-2.9722,-2.9871,-3.0164,-3.0382,-3.0728,-3.0752,-3.0968,-3.1369,-3.0622,-3.0101,-2.9532,-2.9342,-2.9152,-2.8974,-2.9709,-2.9532,-2.9165,-2.9239,-2.94,-2.9574,-2.9273,-2.9615,-3.0241,-3.1565,-3.2642,-3.3735,-3.5097,-3.5989,-3.6992,-3.894,-3.9526,-4.0287,-4.2042,-4.2533,-4.2743,-4.3973,-4.4195,-4.3937,-4.2749,-4.1425,0.0,-3.7861,-3.8241,-3.8426,-3.7247,-3.8753,-3.9798,-3.9944,-4.0385,-4.1107,-4.2195,-4.1778,-4.2335,-4.4649,-4.3971,-4.4442,-4.6325,-4.4108,-4.2518,0.0,0.0,0.0,0.0,0.0,0.0,0.0,0.0,0.0,0.0,0.0,0.0,0.0,0.0,0.0,0.0,0.0,0.0,0.0,0.0,0.0,0.0,-2.81,-2.8634,-2.803,-2.8047,-2.8314,-2.8131,-2.8214,-2.8332,-2.9034,-2.857,-2.8543,-2.8731,-2.8423,-2.8451,-2.8608,-2.8765,-2.8898,-2.9006,-2.891,-2.8825,-2.8789,-2.8898,-2.8898,-2.8789,-2.9127,-2.9224,-2.9115,-2.9236,-2.9369,0.0,-2.975,-2.9702,-2.9714,-2.9946,-3.0116,0.0,0.0,0.0,0.0,0.0,-2.9771,-2.9004,-2.9004,-2.8812,-2.862,-2.9184,-2.9375,-2.9017,-2.9139,-2.92,-2.9273,-2.9115,-2.9396,-3.0107,-3.1655,-3.3157,-3.4619,-3.61,-3.7174,-3.8188,-3.9541,-3.9736,-4.0125,-4.1288,-4.1866,0.0,-4.3018,-4.3019,-4.2481,-4.1251,-4.0748,-4.0038,-3.874,-3.9449,-3.9836,-3.9465,-4.0394,-4.1361,-4.2031,-4.1882,0.0,0.0,0.0,-4.3051,-4.4251,-4.464,0.0,0.0,0.0,0.0,0.0,0.0,0.0,0.0,-4.0841,-4.1272,0.0,0.0,0.0,0.0,0.0,0.0,0.0,0.0,0.0,0.0,0.0,0.0,0.0,0.0,0.0,0.0,-2.8938,-2.9512,-2.8076,-2.7851,-2.7888,-2.8289,-2.8137,-2.8258,-2.9254,-2.8704,-2.8448,-2.8827,-2.8679,-2.8632,-2.8669,0.0,0.0,0.0,0.0,-2.8777,-2.9006,-2.9248,-2.926,-2.9067,-2.9779,-2.9996,-2.9755,-3.0008,-3.0129,-3.0129,-3.0129,-2.9984,-2.9755,-2.9755,-2.9821,-3.0156,-2.966,-2.9984,-3.0328,-2.9742,-2.9078,-2.8669,-2.8705,0.0,0.0,-2.8681,-2.8693,-2.8753,-2.8958,-2.8874,-2.8801,-2.9469,-2.9432,-2.975,-3.2261,-3.3789,-3.5447,-3.7386,-3.8884,-3.9879,-3.9832,-3.9832,-3.9816,-3.9768,-4.053,-4.1078,-4.1271,-4.1235,-4.0492,-3.9328,-3.9253,-3.971,-4.0246,-3.9937,-4.022,-4.1696,0.0,0.0,-4.3054,-4.253,-4.2976,-4.4698,-4.4271,-4.3962,-4.359,-4.4521,-4.4033,-4.1888,-4.3205,-4.3895,-4.3909,-4.533,-4.5656,-4.5132,-4.336,-4.3615,0.0,0.0,0.0,0.0,0.0,0.0,0.0,0.0,0.0,0.0,0.0,0.0,0.0,0.0,0.0,-2.8171,-2.8644,-2.8783,-2.9047,-2.8396,-2.8241,-2.8472,-2.8387,-2.8294,-2.8934,-2.8632,-2.8548,-2.8739,-2.8596,-2.8717,-2.8922,-2.8934,0.0,-2.9019,-2.897,-2.8958,-2.9019,-2.9067,-2.9175,-2.9332,0.0,0.0,-2.9477,-2.9538,-2.9562,-2.9562,-2.9562,-2.9538,-2.9477,-2.9477,-2.9453,-2.9602,-2.9898,-2.9946,-2.9991,-2.9579,-2.9115,-2.897,-2.9175,-2.926,-2.9224,-2.9006,-2.9079,-2.9224,-2.9067,-2.9127,0.0,-3.0929,-3.1308,-3.1986,-3.5533,-3.6692,-3.7431,-3.9626,-4.0379,-4.0515,-4.0245,-4.0197,-4.0102,-3.9816,-3.9963,-4.0336,-4.1078,-4.1298,-4.1431,-4.1902,-4.1353,-4.1007,-4.1113,-4.0967,-4.0677,-4.0121,-4.0914,-4.144,-4.07,-4.1585,-4.2526,-4.3373,-4.5153,-4.6091,-4.6002,-4.6984,-4.7442,-4.6937,-4.6919,-4.69,-4.6919,-4.69,-4.7327,-4.7946,-4.7978,-4.7824,0.0,0.0,0.0,0.0,0.0,0.0,0.0,0.0,0.0,0.0,0.0,-2.47,0.0,0.0,-2.6991,-2.7869,-2.8269,-2.8631,-2.8718,-2.8625,-2.8415,-2.8415,-2.8415,-2.8524,-2.8789,-2.8705,-2.8681,-2.8813,-2.8693,-2.8741,-2.9006,-2.9019,-2.9019,-2.9019,-2.9139,-2.9212,-2.9212,-2.9344,-2.9465,-2.9598,-2.9743,-2.9815,-2.9815,-2.9815,-2.9815,-2.9815,-2.9815,-2.9815,-2.9815,-2.9815,-2.9815,-2.9791,-2.9857,-2.9836,-2.9616,-2.9357,-2.932,-2.9224,-2.9357,-2.9405,-2.9381,-2.9248,-2.9296,-2.9381,-2.9248,-2.9296,-2.9627,-3.054,-3.1355,-3.2642,-3.545,-3.6898,-3.8112,-4.0054,-4.0658,-4.0642,-4.0133,-4.0165,-4.0133,-3.9593,-3.9641,-3.9947,-4.053,-4.0513,-4.1094,-4.2618,-4.185,-4.1464,-4.2042,-4.1657,-4.1332,-4.1347,-4.158,-4.1862,-4.1883,-4.3309,-4.4515,-4.5282,-4.6662,-4.7473,-4.7473,-4.8088,-4.8286,-4.8286,-4.8084,-4.7992,-4.7992,-4.8555,-4.9011,-4.9529,-5.1383,-5.1655,0.0,0.0,0.0,0.0,0.0,0.0,0.0,0.0,-2.4675,-2.513,-2.5519,-2.5976,-2.6312,-2.6917,-2.7612,-2.7745,-2.8396,-2.879,-2.8472,-2.8475,-2.8536,-2.8306,-2.8487,-2.8644,-2.8693,-2.8693,-2.8789,-2.8994,-2.8862,-2.8862,-2.9079,-2.9091,-2.9091,-2.9091,-2.9296,-2.9429,-2.9477,-2.9695,-2.9827,-2.9876,-3.0105,-3.0214,-3.0214,-3.0214,-3.0214,-3.0214,-3.0214,-3.0214,-3.0214,-3.0214,-3.0214,-3.0189,-2.9972,-2.9755,-2.9562,-2.9501,-2.9477,-2.9489,-2.955,-2.9562,-2.955,-2.9501,-2.9513,-2.955,-2.9501,-2.9513,-2.9797,-3.0602,-3.165,-3.3291,-3.538,-3.7258,-3.8691,-3.9976,-4.0594,-4.061,-4.0006,-4.0149,-4.0197,-3.9561,-3.972,-3.9959,-4.0154,-4.0302,-4.0805,-4.2251,-4.185,-4.1657,-4.2618,-4.2042,-4.1967,-4.3044,-4.269,-4.2809,-4.3895,-4.52,-4.6323,-4.7307,-4.7941,-4.8197,-4.8414,-4.8322,-4.8286,-4.8286,-4.8286,-4.8484,-4.8682,-5.004,-5.0823,-5.1051,-5.3896,-5.4527,-2.2859,-2.2985,-2.3091,-2.2827,-2.3556,-2.4492,0.0,0.0,-2.5812,-2.645,-2.7347,-2.808,-2.8169,-2.8665,-2.9174,-2.9479,-2.9068,-2.9053,-2.9301,-2.8788,-2.8608,-2.8584,-2.8608,-2.8717,-2.8946,-2.897,-2.8982,-2.9006,-2.92,-2.9332,-2.9357,-2.9369,-2.9369,-2.9369,-2.9393,-2.9513,-2.9755,-2.9779,-2.9924,-3.0165,-3.0202,-3.0214,-3.0214,-3.0214,-3.0214,-3.0214,-3.0214,-3.0214,-3.0214,-3.0214,-3.0214,-3.0214,-3.0177,-3.0153,-3.0093,-2.9839,-2.9755,-2.9791,-3.0033,-3.0129,-3.0081,-2.9839,-2.9924,-3.0081,-2.9827,-2.9924,-3.0723,-3.352,-3.4529,-3.5394,-3.8935,-3.9866,-4.0158,-4.0658,-4.0753,-4.0689,-4.0308,-4.0499,-4.0626,-4.0245,-4.0435,-4.1072,-4.185,-4.1785,-4.1456,-4.1514,-4.1271,-4.1657,-4.2618,-4.2635,-4.2635,-4.2878,-4.3661,-4.4078,-4.4304,-4.4707,-4.5317,-4.6323,-4.7018,-4.7831,-4.8836,-4.8487,-4.8286,-4.8286,-4.8286,-4.9058,-5.0432,-5.0432,-5.1948,-5.4568,-5.501,-5.4695,-2.4035,-2.4086,0.0,0.0,-2.5322,-2.5785,-2.6704,-2.7029,-2.7268,-2.7776,-2.8244,-2.8407,-2.8039,-2.8346,-2.8642,0.0,-2.8723,-2.8679,-2.8992,-2.8812,-2.8681,-2.8825,-2.885,-2.8898,-2.9006,-2.9019,-2.9139,-2.9441,-2.9429,-2.9465,-2.9622,-2.9634,-2.9634,-2.9634,-2.9791,-2.9936,-3.0033,-3.0045,-3.0105,-3.0214,-3.0214,-3.0214,-3.0214,-3.0214,-3.0214,-3.0226,-3.0383,-3.0443,-3.0455,-3.0612,-3.0576,-3.0443,-3.0443,-3.0346,-3.0202,-3.0081,-3.0045,-3.0057,-3.0177,-3.0214,-3.0202,-3.0081,-3.0117,-3.0189,-3.0081,-3.0711,-3.1794,-3.3173,-3.4969,-3.6795,-3.8143,-3.9527,-4.0324,-4.0467,-4.0642,-4.0642,-4.0102,-4.0403,-4.0626,-4.0086,-4.0419,-4.0985,-4.1383,-4.1254,-4.1109,-4.0948,-4.1163,-4.1657,-4.2618,-4.2827,-4.3018,-4.3609,-4.418,-4.4388,-4.4388,-4.4641,-4.5434,-4.6878,-4.7636,-4.8362,-4.9239,-4.8873,-4.8653,-4.8653,-4.8414,-4.9058,-5.0627,-5.1581,-5.3124,-5.522,-5.6184,-5.6344,-2.5302,-2.5282,0.0,-2.6358,-2.6686,-2.6937,-2.7903,-2.8076,-2.8125,-2.8334,-2.8433,-2.8494,-2.792,-2.8326,-2.8509,-2.8318,-2.8487,-2.862,-2.862,-2.8681,-2.8801,-2.8994,-2.9079,-2.9151,-2.9224,-2.9224,-2.9393,-2.9767,-2.9695,-2.9707,-2.99,-2.9912,-2.9912,-2.9912,-3.0105,-3.0214,-3.0214,-3.0214,-3.0214,-3.0214,-3.0286,-3.0322,-3.0322,-3.0395,-3.0431,-3.0443,-3.0636,-3.0708,-3.0733,-3.0914,-3.089,-3.0708,-3.0708,-3.06,-3.0431,-3.0431,-3.0334,-3.0214,-3.0214,-3.0214,-3.0214,-3.0214,-3.0214,-3.0214,-3.0809,-3.1592,-3.2786,-3.3574,-3.5564,-3.7568,-3.7961,-3.9158,-4.0149,-4.0149,-4.034,-4.0372,-3.9879,-4.0308,-4.0642,-4.0149,-4.061,-4.1071,-4.1071,-4.0991,-4.1128,-4.1328,-4.1588,-4.194,-4.2788,-4.3279,-4.3972,-4.4768,-4.4768,-4.4768,-4.4768,-4.5215,-4.6229,-4.7809,-4.8231,-4.8818,-4.9643,-4.9294,-4.9019,-4.8909,-4.8616,-4.9188,-5.0627,-5.2161,-5.3699,-5.522,-5.6767,-5.7514,-2.6826,-2.6664,-2.628,-2.654,-2.7196,-2.7763,-2.7787,-2.7799,-2.7799,-2.7811,-2.8405,-2.8777,-2.8387,-2.8796,-2.9171,-2.8608,-2.862,-2.862,-2.862,-2.8837,-2.9006,-2.9019,-2.9236,-2.9489,0.0,-2.9779,-2.9779,-2.9791,-3.0045,-3.0189,-3.0202,-3.0202,-3.0202,-3.0202,-3.0214,-3.0214,-3.0214,-3.0214,-3.0214,-3.0214,-3.0467,-3.06,-3.06,-3.0853,-3.0974,-3.0974,-3.0986,-3.0986,-3.0986,-3.0998,-3.0998,-3.0986,-3.0986,-3.0986,-3.0974,-3.0974,-3.0648,-3.0214,-3.0214,-3.0214,-3.0214,-3.0214,-3.0214,-3.0416,-3.1995,-3.2585,-3.3187,-3.637,-3.7371,-3.7765,-3.9362,-3.9768,-3.9784,-3.9784,-3.9784,-3.9784,-3.9768,-4.0308,-4.0785,-4.0753,-4.1325,-4.1818,-4.1818,-4.1532,-4.1697,-4.2688,-4.2592,-4.2623,-4.3215,-4.4774,-4.5883,-4.5883,-4.5883,-4.5883,-4.5883,-4.6635,-4.7424,-4.8212,-4.8653,-4.9258,-5.0083,-4.9716,-4.9313,-4.8928,-4.8909,-4.9486,-5.0627,-5.2161,-5.3699,-5.522,-5.6767,-5.7514,-2.6901,-2.7359,-2.7553,-2.7925,-2.8149,-2.8355,-2.8355,-2.8355,-2.8355,-2.8355,-2.8618,-2.8679,-2.8475,-2.8752,-2.8812,-2.862,-2.8765,-2.8886,-2.8886,-2.9103,-2.9332,-2.9513,-2.961,0.0,0.0,0.0,0.0,-3.0057,-3.0165,-3.0214,-3.0214,-3.0214,-3.0214,-3.0214,-3.0214,-3.0214,-3.0214,-3.0214,-3.0298,-3.0479,-3.0745,-3.0865,-3.0865,-3.0962,-3.0998,-3.101,-3.1179,-3.1264,-3.1276,-3.1457,-3.1421,-3.1264,-3.1264,-3.1155,-3.0998,-3.0998,-3.089,-3.0733,-3.0733,-3.0624,-3.0479,-3.0479,-3.0358,-3.0404,-3.2183,-3.3374,-3.4571,-3.6765,-3.8173,-3.9167,-3.9573,-3.9768,-3.9832,-4.0054,-4.0117,-4.0181,-4.0403,-4.0801,-4.1134,-4.1134,-4.1516,-4.1849,-4.1849,-4.1754,-4.227,-4.4077,-4.4549,-4.4689,-4.4745,-4.5994,-4.6709,-4.6709,-4.6709,-4.658,-4.6305,-4.6525,-4.7149,-4.8212,-4.8414,-4.9111,-5.0468,-4.9863,-4.9569,-4.9716,-4.8909,-4.9931,-5.2578,-5.288,-5.4271,-5.6746,-5.7328,-5.7514,-2.8029,-2.8377,-2.8334,-2.8681,-2.8898,-2.8898,-2.8898,-2.8825,-2.8765,-2.8765,-2.8693,-2.8656,-2.8753,-2.8681,-2.8681,-2.8874,-2.897,-2.9043,-2.9139,-2.9381,-2.961,-2.9779,-2.9888,-3.002,0.0,0.0,0.0,-3.0202,-3.0214,-3.0214,-3.0214,-3.0214,-3.0214,-3.0214,-3.0214,-3.0262,-3.0358,-3.0358,-3.0539,-3.089,-3.1059,-3.1191,-3.1288,-3.1288,-3.1288,-3.13,-3.1469,-3.1541,-3.1553,-3.1735,-3.1698,-3.1541,-3.1541,-3.1433,-3.1288,-3.1288,-3.1288,-3.1264,-3.1071,-3.089,-3.0745,-3.1351,-3.1433,-3.1692,-3.3896,-3.5305,-3.6491,-3.7976,-3.9236,-4.0102,-3.999,-4.0038,-4.0181,-4.0419,-4.0467,-4.0531,-4.0737,-4.1055,-4.1309,-4.1309,-4.1595,-4.1849,-4.1849,-4.2038,-4.306,-4.4868,-4.5655,-4.6092,-4.634,-4.6798,-4.7112,-4.7112,-4.7112,-4.6929,-4.6507,-4.6617,-4.7094,-4.8011,-4.8212,-4.8891,-5.023,-4.979,-4.9624,-4.99,-4.9129,-4.994,-5.26,-5.2907,-5.4416,-5.6746,-5.7328,-5.7514,-2.9911,-2.9563,-2.8552,-2.9175,-2.9429,-2.9417,-2.9405,-2.9175,-2.9165,-2.9165,-2.8934,-2.8992,0.0,0.0,-2.8946,-2.9432,-2.9175,-2.9139,-2.9393,-2.9646,-2.9815,0.0,0.0,0.0,0.0,0.0,0.0,-3.0214,0.0,-3.0214,-3.0214,-3.0214,-3.0214,-3.0214,-3.0226,-3.0358,-3.06,-3.0636,-3.0902,-3.1384,-3.1409,-3.1553,-3.1807,-3.1807,-3.1807,-3.1807,-3.1807,-3.1807,-3.1807,-3.1807,-3.1807,-3.1807,-3.1807,-3.1807,-3.1807,-3.1807,-3.1807,-3.1948,-3.1425,-3.1231,-3.1426,-3.3059,-3.3652,-3.4255,-3.7331,-3.8358,-3.8701,-4.0007,-4.0546,-4.0721,-4.0403,-4.0546,-4.0785,-4.0801,-4.0817,-4.0817,-4.0832,-4.1103,-4.1341,-4.1341,-4.1611,-4.1849,-4.1849,-4.2652,-4.3873,-4.4868,-4.6075,-4.695,-4.7576,-4.7406,-4.7167,-4.7167,-4.7167,-4.7002,-4.658,-4.691,-4.7314,-4.7699,-4.8102,-4.8689,-4.9496,-4.9533,-4.9551,-4.9569,-4.9514,-5.0102,-5.13,-5.2835,-5.4168,-5.5493,-5.6811,-5.7557,-2.927,-2.9677,-2.9821,-2.9682,-2.9695,-2.9646,-2.9453,-3.0202,-3.0805,-3.0805,-3.1702,-3.219,0.0,0.0,0.0,-3.0621,-3.0341,0.0,-2.9682,-2.9936,0.0,-3.0105,0.0,-3.0214,-3.0214,-3.0214,0.0,0.0,-3.0214,-3.0214,-3.0214,-3.0214,-3.0214,-3.0214,-3.0407,-3.0539,-3.0612,-3.0998,-3.1252,-3.1397,-3.1602,-3.1735,-3.1807,-3.1807,-3.1807,-3.1807,-3.1807,-3.1807,-3.1807,-3.1807,-3.1807,-3.1807,-3.1807,-3.1807,-3.1807,-3.1807,-3.2648,-3.3659,-3.3518,-3.3339,-3.316,-3.3564,-3.4456,-3.5703,-3.7751,-3.8358,-3.8747,-4.0275,-4.0721,-4.0769,-4.0689,-4.0721,-4.0848,-4.1118,-4.1182,-4.1246,-4.1516,-4.1643,-4.1706,-4.1706,-4.1786,-4.1849,-4.1849,-4.2652,-4.3873,-4.4868,-4.6075,-4.7039,-4.7941,-4.8047,-4.7992,-4.7992,-4.7992,-4.7827,-4.7424,-4.7479,-4.7717,-4.8102,-4.8524,-4.9129,-4.9936,-4.9973,-5.0101,-5.0395,-5.1011,-5.2174,-5.3966,-5.5221,-5.6567,-5.7993,-5.8046,-5.8082,-2.9513,-2.9984,-3.0177,-3.002,-2.9984,-3.0052,-3.0119,-3.0765,-3.1394,-3.1734,-3.2438,-3.2907,-3.2361,-3.2043,0.0,0.0,0.0,0.0,-3.0362,-3.0319,-3.0214,0.0,-3.0416,0.0,-3.0214,-3.0214,-3.0262,0.0,-3.0286,-3.0214,-3.0214,-3.0322,-3.0395,-3.0395,-3.0648,-3.0829,-3.095,-3.136,-3.1578,-3.1578,-3.1735,-3.1807,-3.1807,-3.1807,-3.1807,-3.1807,0.0,-3.1807,-3.1807,-3.1807,-3.1807,-3.1807,-3.1807,-3.1807,-3.1807,-3.2648,-3.3472,-3.4306,-3.5151,-3.5882,-3.6371,-3.6371,-3.6867,-3.7753,-3.9404,-3.9826,-3.9999,-4.0854,-4.1134,-4.1214,-4.1055,-4.1134,-4.1309,-4.15,-4.1547,-4.1595,-4.1802,-4.1849,-4.1849,-4.1849,-4.1849,-4.1849,-4.1849,-4.2652,-4.3873,-4.4868,-4.6075,-4.7075,-4.8088,-4.8286,-4.8286,-4.8286,-4.8286,-4.8121,-4.7736,-4.7864,-4.7974,-4.8029,-4.8414,-4.8928,-4.9569,-4.9588,-4.9863,-5.045,-5.1606,-5.3066,-5.4884,-5.6242,-5.7612,-5.8955,-5.8693,-5.8584,-2.996,-3.0214,-3.0214,-3.0214,-3.0214,-3.0387,-3.0869,-3.1125,-3.1675,-3.216,-3.2603,-3.2744,-3.1973,-3.2253,-3.195,-3.0998,0.0,-3.1285,-3.124,-3.09,-3.0735,-3.0809,-3.0416,-3.0226,-3.0262,-3.0262,-3.0371,-3.0636,-3.0419,-3.0262,-3.0262,-3.0455,-3.0588,-3.066,-3.0914,-3.1179,-3.1445,-3.1686,-3.1807,-3.1807,-3.1807,-3.1807,-3.1807,-3.1807,-3.1807,-3.1807,0.0,0.0,-3.1807,-3.1807,-3.1807,-3.1807,-3.1807,-3.1807,-3.202,-3.3485,-3.4319,-3.494,-3.6398,-3.8069,-3.9552,-3.9345,-3.9552,-3.9965,-4.1423,-4.1849,-4.177,-4.1468,-4.1611,-4.177,-4.1468,-4.1611,-4.1849,-4.1849,-4.1802,-4.177,-4.177,-4.177,-4.177,-4.177,-4.1818,-4.1849,-4.2054,-4.2856,-4.3873,-4.507,-4.6075,-4.7075,-4.8088,-4.8286,-4.8286,-4.8286,-4.8286,-4.8139,-4.7809,-4.8084,-4.8139,-4.7791,-4.8157,-4.8561,-4.8964,-4.9038,-4.9423,-5.038,-5.1999,-5.358,-5.5184,-5.6812,-5.819,-5.9152,-5.9086,-5.9065,-3.0165,-3.0214,-3.0214,-3.0214,-3.0214,-3.0338,-3.0626,-3.1593,-3.2612,-3.3615,-3.4717,-3.5509,-3.5243,-3.5635,-3.5444,-3.4424,-3.4655,-3.4363,-3.27,-3.243,-3.184,0.0,-3.0214,-3.0298,-3.0515,-3.0539,0.0,0.0,0.0,0.0,-3.0539,-3.0371,-3.0479,-3.0914,-3.1179,-3.1457,-3.1735,-3.1783,-3.1807,-3.1807,-3.1807,-3.1807,-3.1807,-3.1807,-3.1807,-3.1807,0.0,0.0,-3.1807,-3.1807,-3.1807,-3.1807,-3.1807,-3.1807,-3.1807,-3.2234,-3.3896,-3.6398,-3.6607,-3.8693,-4.1218,-3.9759,-4.0172,-4.1423,-4.1644,-4.1849,-4.1833,-4.177,-4.1802,-4.1833,-4.177,-4.1802,-4.1849,-4.1849,-4.1611,-4.1404,-4.1404,-4.1404,-4.1404,-4.1404,-4.1643,-4.2038,-4.306,-4.3467,-4.4076,-4.6075,-4.6676,-4.7075,-4.8088,-4.8286,-4.8286,-4.8286,-4.8286,-4.8249,-4.8194,-4.8249,-4.8249,-4.8194,-4.8579,-4.8983,-4.9386,-4.9735,-5.0736,-5.2603,-5.4254,-5.5869,-5.7468,-5.9091,-6.0049,-6.0157,-5.9764,-5.9567,-2.9707,-2.99,-3.0214,-3.0214,-3.0214,-3.0415,-3.0752,-3.1917,-3.3066,-3.4067,-3.5314,-3.5964,-3.5527,-3.5904,-3.5955,-3.4748,-3.4418,-3.4016,-3.3133,-3.2064,-3.1289,-3.0785,-3.0538,-3.0419,-3.0407,-3.0648,0.0,0.0,0.0,0.0,-3.0805,-3.0817,-3.101,-3.1409,-3.1541,-3.1674,-3.1807,-3.1807,-3.1807,-3.1807,-3.1807,-3.1807,-3.1807,-3.1807,-3.1807,-3.1807,-3.1807,0.0,-3.1807,-3.1807,-3.1807,-3.1807,-3.1807,-3.2222,-3.3273,-3.4108,-3.5978,-3.8292,-3.9122,-4.0378,-4.1628,-4.0806,-4.1218,-4.1849,-4.1849,-4.1849,-4.1849,-4.1849,-4.1849,-4.1849,-4.1849,-4.1849,-4.1849,-4.1849,-4.1579,-4.142,-4.1786,-4.1579,-4.142,-4.1802,-4.2259,-4.2856,-4.3467,-4.4481,-4.5473,-4.6476,-4.7274,-4.769,-4.8286,-4.8286,-4.8286,-4.8286,-4.8286,-4.8286,-4.8286,-4.8286,-4.8286,-4.8286,-4.8469,-4.8854,-4.9478,-5.0493,-5.1681,-5.3109,-5.5568,-5.7173,-5.799,-5.9613,-6.0419,-6.0419,-6.0179,-6.0069,-2.9393,-2.9731,-3.0214,-3.0214,-3.0214,-3.0292,-3.1069,-3.1962,-3.3021,-3.3999,-3.4918,-3.5468,-3.4886,-3.5774,-3.6055,-3.4813,-3.4623,-3.4275,-3.3681,-3.231,-3.1327,-3.0987,-3.0851,0.0,-3.0599,-3.1012,0.0,0.0,0.0,0.0,-3.101,-3.124,-3.1493,-3.171,-3.1771,-3.1807,-3.1807,-3.1807,-3.1807,-3.1807,-3.1807,-3.1807,-3.1807,-3.1807,-3.1807,-3.1807,-3.1807,0.0,0.0,-3.1807,-3.202,-3.2435,-3.2435,-3.3273,-3.494,-3.6398,-3.7861,-3.9552,-4.0806,-4.1423,-4.1849,-4.1849,-4.1849,-4.1849,-4.1849,-4.1849,-4.1849,-4.1849,-4.1849,-4.1849,-4.1849,-4.1849,-4.1818,-4.1754,-4.1468,-4.1373,-4.2024,-4.1706,-4.15,-4.2151,-4.2911,-4.3566,-4.389,-4.5473,-4.6876,-4.7075,-4.769,-4.8286,-4.8286,-4.8286,-4.8286,-4.8286,-4.8286,-4.8286,-4.8286,-4.8286,-4.8286,-4.8286,-4.8286,-4.8815,-4.9735,-5.1238,-5.2626,-5.3992,-5.6712,-5.8189,-5.8585,-5.981,-6.0419,-6.0419,-6.0419,-6.0419,-3.0325,-3.0165,-3.0214,-3.0214,-3.0214,-3.0243,-3.0799,-3.0945,-3.1613,-3.3509,-3.3971,-3.4248,-3.5257,-3.6447,-3.7274,-3.6997,-3.831,-3.8254,-3.5243,-3.5063,-3.4049,-3.129,-3.1259,-3.1507,-3.1718,-3.2015,0.0,0.0,0.0,0.0,0.0,-3.124,-3.1397,-3.1433,-3.1674,-3.1807,-3.1807,-3.1807,-3.1807,-3.1807,-3.1807,-3.1807,-3.1807,-3.1807,-3.1807,-3.1807,0.0,0.0,0.0,-3.1807,-3.2648,-3.4108,-3.4108,-3.5151,-3.6607,-3.6817,-3.7861,-3.9345,-3.9552,-4.06,-4.1849,-4.1849,-4.1849,-4.1849,-4.1849,-4.1849,-4.1849,-4.1849,-4.1849,-4.1849,-4.1849,-4.1849,-4.177,-4.1436,-4.1087,-4.0944,-4.1325,-4.1357,-4.1436,-4.1818,-4.2943,-4.4273,-4.4936,-4.5875,-4.7075,-4.8088,-4.8286,-4.8286,-4.8286,-4.8286,-4.8286,-4.8286,-4.8286,-4.8286,-4.8286,-4.8286,-4.8286,-4.8286,-4.8286,-4.9065,-5.0885,-5.1685,-5.3489,-5.677,-5.7583,-5.8783,-6.0223,-6.0419,-6.0419,-6.0419,-6.0419,-6.0419,-3.0088,-3.0058,-3.0214,-3.0214,-3.0214,-3.0243,-3.0772,-3.1095,-3.1944,-3.3476,-3.4255,-3.4731,-3.5805,-3.6489,-3.7104,-3.7329,-3.7462,-3.6828,-3.4848,-3.4204,-3.2994,-3.0711,-3.1339,0.0,0.0,0.0,0.0,0.0,0.0,0.0,0.0,-3.159,-3.1638,-3.1638,-3.1747,-3.1807,-3.1807,-3.1807,-3.1807,-3.1807,-3.1807,-3.1807,-3.1807,-3.1807,-3.1807,-3.1807,0.0,0.0,0.0,-3.2848,-3.3684,-3.4306,-3.5361,-3.6817,-3.8292,-3.8292,-3.933,-4.0806,-4.0806,-4.1218,-4.1849,-4.1849,-4.1849,-4.1849,-4.1849,-4.1849,-4.1849,-4.1849,-4.1849,-4.1849,-4.1849,-4.1849,-4.1802,-4.1659,-4.1357,-4.1261,-4.1833,-4.1786,-4.2006,-4.3186,-4.4267,-4.5192,-4.6258,-4.7036,-4.7889,-4.8286,-4.8286,-4.8286,-4.8286,-4.8286,-4.8286,-4.8286,-4.8286,-4.8286,-4.8286,-4.8286,-4.8286,-4.8286,-4.9255,-5.0345,-5.1608,-5.3568,-5.5766,-5.7697,-5.8916,-5.981,-6.0419,-6.0419,-6.0419,-6.0419,-6.0419,-6.0419,-3.0329,-3.0328,-3.0313,-3.0153,-3.0234,-3.0524,-3.0704,-3.1416,-3.2289,-3.3563,-3.4255,-3.5007,-3.6052,-3.6659,-3.7099,-3.7374,-3.7188,-3.6306,-3.483,-3.3988,-3.3007,-3.1675,0.0,0.0,0.0,0.0,0.0,0.0,0.0,0.0,0.0,-3.1807,-3.1807,-3.1807,-3.1807,-3.1807,-3.1807,-3.1807,-3.1807,-3.1807,-3.1807,-3.1807,-3.1807,-3.1807,-3.1807,-3.1807,0.0,0.0,0.0,-3.3896,-3.494,-3.5992,-3.7026,-3.85,-3.9965,-3.9965,-4.0806,-4.1849,-4.1849,-4.1849,-4.1849,-4.1849,-4.1849,-4.1849,-4.1849,-4.1849,-4.1849,-4.1849,-4.1849,-4.1849,-4.1849,-4.1849,-4.1818,-4.1706,-4.142,-4.1357,-4.2072,-4.223,-4.2625,-4.4069,-4.5498,-4.6351,-4.6935,-4.7872,-4.8286,-4.8286,-4.8286,-4.8286,-4.8286,-4.8286,-4.8286,-4.8286,-4.8286,-4.8286,-4.8286,-4.8286,-4.8286,-4.8286,-4.9958,-5.1266,-5.2441,-5.5283,-5.7325,-5.857,-5.9745,-6.0419,-6.0419,-6.0419,-6.0419,-6.0419,-6.0419,-6.0419,-3.149,-3.0908,-3.0946,-3.0411,-3.059,-3.0929,-3.075,-3.1281,-3.1994,-3.3566,-3.3802,-3.4255,-3.5903,-3.6861,-3.7429,-3.7429,-3.8438,-3.8241,-3.5529,-3.5257,-3.5202,-3.4553,0.0,-3.5536,0.0,0.0,0.0,0.0,0.0,0.0,0.0,-3.1807,-3.1807,-3.1807,-3.1807,-3.1807,-3.1807,-3.1807,-3.1807,-3.1807,-3.1807,-3.1807,-3.1807,-3.1807,-3.1807,0.0,0.0,0.0,0.0,-3.4306,-3.6202,-3.9345,-3.9345,-4.0378,-4.1849,-4.1849,-4.1849,-4.1849,-4.1849,-4.1849,-4.1849,-4.1849,-4.1849,-4.1849,-4.1849,-4.1849,-4.1849,-4.1849,-4.1849,-4.1849,-4.1849,-4.1849,-4.1754,-4.1404,-4.1055,-4.0991,-4.169,-4.2652,-4.3582,-4.3946,-4.6149,-4.758,-4.6818,-4.769,-4.8286,-4.8286,-4.8286,-4.8286,-4.8286,-4.8286,-4.8286,-4.8286,-4.8286,-4.8286,-4.8286,-4.8286,-4.8286,-4.8286,-5.0204,-5.1992,-5.3556,-5.6014,-5.8102,-5.9698,-6.0179,-6.0419,-6.0419,-6.0419,-6.0419,-6.0419,-6.0419,-6.0419,-3.1539,-3.1333,-3.1074,-3.0783,-3.0929,-3.1204,-3.1081,-3.1344,-3.1978,-3.3566,-3.3802,-3.4255,-3.5903,-3.6421,-3.6769,-3.7338,-3.7741,-3.7432,-3.5763,-3.5212,-3.4319,-3.2904,-3.3668,-3.449,0.0,0.0,0.0,0.0,0.0,0.0,0.0,-3.1807,-3.1807,-3.1807,-3.1807,-3.1807,-3.1807,-3.1807,-3.1807,-3.1807,-3.1807,-3.1807,-3.1807,-3.1807,0.0,0.0,0.0,0.0,0.0,-3.7249,-3.8292,-3.9345,-4.06,-4.1423,-4.1849,-4.1849,-4.1849,-4.1849,-4.1849,-4.1849,-4.1849,-4.1849,-4.1849,-4.1849,-4.1849,-4.1849,-4.1849,-4.1849,-4.1849,-4.1849,-4.1849,-4.1659,-4.1452,-4.1341,-4.123,-4.14,-4.2433,-4.328,-4.429,-4.6043,-4.6961,-4.757,-4.8143,-4.827,-4.8286,-4.8286,-4.8286,-4.8286,-4.8286,-4.8286,-4.8286,-4.8286,-4.8286,-4.8286,-4.8286,-4.8286,-4.8682,-4.9844,-5.1777,-5.3697,-5.5579,-5.7761,-5.9247,-6.0179,-6.0353,-6.0419,-6.0419,-6.0419,-6.0419,-6.0419,-6.0419,-6.0419,-3.1345,-3.1425,-3.1268,-3.0904,-3.1175,-3.1336,-3.1381,-3.1422,-3.2065,-3.3326,-3.3753,-3.4255,-3.5456,-3.618,-3.6503,-3.6795,-3.7366,-3.7221,-3.6263,-3.5878,-3.5374,-3.3946,0.0,0.0,0.0,0.0,0.0,0.0,0.0,0.0,0.0,0.0,-3.1807,-3.1807,-3.1807,-3.1807,-3.1807,-3.2435,-3.2435,-3.1807,-3.2435,-3.2635,-3.2635,-3.2635,0.0,0.0,0.0,0.0,0.0,-3.8915,-3.9759,-4.0378,-4.1423,-4.1849,-4.1849,-4.1849,-4.1849,-4.1849,-4.1849,-4.1849,-4.1849,-4.1849,-4.1849,-4.1849,-4.1849,-4.1849,-4.1849,-4.1849,-4.1849,-4.1849,-4.1849,-4.1675,-4.1484,-4.1341,-4.1309,-4.1479,-4.2524,-4.369,-4.4989,-4.6469,-4.7486,-4.8051,-4.8508,-4.8451,-4.8286,-4.8286,-4.8286,-4.8286,-4.8286,-4.8286,-4.8286,-4.8286,-4.8879,-4.9255,-4.9255,-4.9255,-4.9844,-5.1387,-5.3495,-5.5323,-5.6605,-5.8816,-6.0026,-6.0135,-6.0157,-6.0157,-6.0157,-6.0332,-6.0419,-6.0419,-6.0419,-6.0419,0.0,-3.1316,-3.1454,-3.0958,-3.1239,-3.1613,-3.1613,-3.168,0.0,-3.2961,-3.3449,-3.4105,-3.4892,-3.5869,-3.6487,-3.6268,-3.7117,-3.7555,-3.677,-3.7095,-3.7401,0.0,-3.8261,0.0,0.0,0.0,0.0,0.0,0.0,0.0,0.0,0.0,-3.202,-3.2234,-3.2234,-3.202,-3.202,-3.3684,-3.3684,-3.2222,-3.3684,-3.4518,-3.4518,-3.4518,0.0,0.0,0.0,0.0,0.0,-3.9552,-4.0378,-4.1849,-4.1849,-4.1849,-4.1849,-4.1849,-4.1849,-4.1849,-4.1849,-4.1849,-4.1849,-4.1849,-4.1849,-4.1849,-4.1849,-4.1849,-4.1849,-4.1849,-4.1849,-4.1849,-4.1849,-4.1818,-4.1722,-4.1389,-4.1293,-4.1585,-4.2245,-4.3924,-4.5552,-4.6179,-4.7727,-4.8744,-4.8359,-4.8286,-4.8286,-4.8286,-4.8286,-4.8286,-4.8286,-4.8286,-4.8286,-4.8286,-4.9648,-5.0627,-5.0822,-5.0822,-5.1406,-5.2972,-5.5331,-5.682,-5.6862,-5.9117,-6.02,-5.9698,-5.9698,-5.9698,-5.9698,-6.0179,-6.0419,-6.0419,-6.0419,-6.0419,-3.0087,0.0,-3.1028,-3.0947,-3.1182,-3.1528,0.0,-3.1638,-3.1996,-3.2632,-3.3264,-3.4191,-3.5263,-3.5279,-3.576,-3.7309,-3.6933,-3.6761,-3.7808,-3.7009,-3.6036,-3.582,0.0,0.0,0.0,0.0,0.0,0.0,0.0,0.0,0.0,0.0,-3.4306,-3.5558,-3.5558,-3.494,-3.3684,-3.5348,-3.5978,-3.5558,-3.5978,-3.6188,-3.6188,-3.6188,0.0,0.0,0.0,0.0,-4.1218,-4.1218,-4.1423,-4.1849,-4.1849,-4.1849,-4.1849,-4.1849,-4.1849,-4.1849,-4.1849,-4.1849,-4.1849,-4.1849,-4.1849,-4.1849,-4.1849,-4.1849,-4.1849,-4.1849,-4.1849,-4.1849,-4.1849,-4.1643,-4.142,-4.1325,-4.1706,-4.2278,-4.3366,-4.4713,-4.6215,-4.7129,-4.7887,-4.8396,-4.8304,-4.8286,-4.8286,-4.8286,-4.8286,-4.8286,-4.8286,-4.8286,-4.8286,-4.8286,-4.9648,-5.1017,-5.2354,-5.2354,-5.3266,-5.515,-5.6097,-5.7355,-5.8923,-5.9897,-6.02,-5.9698,-5.9698,-5.9698,-5.9698,-6.0179,-6.0419,-6.0419,-6.0419,-6.0419,-2.9584,-3.033,-3.1109,-3.1109,-3.1379,-3.1665,-3.1824,-3.176,-3.182,-3.2252,-3.3009,-3.4074,-3.4929,-3.5314,-3.576,-3.6288,-3.6208,-3.6319,-3.7209,-3.6486,-3.6049,-3.7177,0.0,0.0,0.0,0.0,0.0,0.0,0.0,0.0,0.0,0.0,-3.5151,-3.6817,-3.7652,-3.7235,-3.5558,-3.7026,-3.7652,-3.6817,-3.7652,-3.7875,-3.7875,-3.7875,-3.8915,0.0,0.0,0.0,-4.1849,-4.1849,-4.1849,-4.1849,-4.1849,-4.1849,-4.1849,-4.1849,-4.1849,-4.1849,-4.1849,-4.1849,-4.1849,-4.1849,-4.1849,-4.1849,-4.1849,-4.1849,-4.1849,-4.1849,-4.1849,-4.1849,-4.1849,-4.2099,-4.236,-4.236,-4.3021,-4.3772,-4.4419,-4.5572,-4.6664,-4.7302,-4.7882,-4.8286,-4.8286,-4.8286,-4.8286,-4.8286,-4.8286,-4.8286,-4.8286,-4.8286,-4.8484,-4.9255,-5.0822,-5.2354,-5.389,-5.4652,-5.562,-5.6888,-5.7528,-5.8384,-5.9676,-6.0157,-6.0091,-5.937,-5.937,-5.937,-5.937,-6.0069,-6.0419,-6.0419,-6.0419,-6.0419,-2.9569,-3.0543,-3.1395,-3.1134,-3.1494,-3.1951,-3.2078,-3.1763,-3.1474,-3.1776,-3.283,-3.3634,-3.402,-3.5175,-3.5757,-3.4694,-3.5241,-3.5858,-3.6205,-3.5719,-3.6458,-3.895,0.0,0.0,0.0,0.0,0.0,0.0,0.0,0.0,0.0,0.0,0.0,-3.7444,-3.8915,-3.8915,-3.7652,-3.8915,-3.8915,-3.7652,-3.8915,-3.9759,-3.9759,-3.9759,-4.0394,0.0,0.0,0.0,-4.1849,-4.1849,-4.1849,-4.1849,-4.1849,-4.1849,-4.1849,-4.1849,-4.1849,-4.1849,-4.1849,-4.1849,-4.1849,-4.1849,-4.1849,-4.1849,-4.1849,-4.1849,-4.1849,-4.1849,-4.1849,-4.1849,-4.1849,-4.2652,-4.3467,-4.3467,-4.438,-4.5127,-4.5487,-4.6199,-4.6825,-4.7028,-4.7699,-4.8212,-4.8267,-4.8286,-4.8286,-4.8286,-4.8286,-4.8484,-4.8682,-4.8682,-4.9255,-5.0822,-5.2354,-5.3699,-5.5031,-5.6559,-5.7732,-5.8256,-5.8715,-5.9196,-5.9676,-5.996,-5.9698,-5.8868,-5.8868,-5.8868,-5.8868,-5.9851,-6.031,-6.031,-6.0397,-6.0419,-3.0876,-3.1361,-3.1134,-3.0151,-3.0685,-3.1402,-3.1027,-3.1148,-3.1411,-3.1458,-3.2015,-3.2702,-3.3062,-3.2851,-3.2888,-3.4453,-3.5136,-3.5516,0.0,0.0,-3.5664,0.0,0.0,0.0,0.0,0.0,0.0,0.0,0.0,0.0,0.0,0.0,0.0,-4.0996,-4.1218,-4.1218,-4.1012,-4.1218,-4.1218,-4.1012,-4.1218,-4.1423,-4.1423,-4.1423,-4.1628,0.0,0.0,-4.1849,-4.1849,-4.1849,-4.1849,-4.1849,-4.1849,-4.1849,-4.1849,-4.1849,-4.1849,-4.1849,-4.1849,-4.1849,-4.1849,-4.1849,-4.1849,-4.1849,-4.1849,-4.1849,-4.1849,-4.1849,-4.1849,-4.1849,-4.1849,-4.2652,-4.3467,-4.3467,-4.4391,-4.5487,-4.5559,-4.5945,-4.6626,-4.7057,-4.7479,-4.7901,-4.8231,-4.8286,-4.8286,-4.8286,-4.8286,-4.8663,-5.004,-5.0236,-5.0803,-5.2354,-5.389,-5.5031,-5.522,-5.6559,-5.7732,-5.8256,-5.8715,-5.9196,-5.9676,-5.8999,-5.854,-5.8387,-5.8387,-5.8387,-5.8387,-5.9349,-5.9807,-5.9807,-6.0222,-6.0419,-3.0874,-3.1448,-3.175,-3.1757,-3.169,-3.172,-3.1509,-3.1189,-3.1317,-3.1858,-3.2227,-3.2631,-3.3137,-3.306,-3.31,-3.3244,0.0,-3.2807,0.0,0.0,0.0,0.0,0.0,0.0,0.0,0.0,0.0,0.0,0.0,0.0,0.0,0.0,0.0,0.0,-4.1849,-4.1849,-4.1849,-4.1849,-4.1849,-4.1849,-4.1849,-4.1849,-4.1849,-4.1849,-4.1849,-4.1849,0.0,-4.1849,-4.1849,-4.1849,-4.1849,-4.1849,-4.1849,-4.1849,-4.1849,-4.1849,-4.1849,-4.1849,-4.1849,-4.1849,-4.1849,-4.1849,-4.1849,-4.1849,-4.1849,-4.1849,-4.1849,-4.1849,-4.1849,-4.1849,-4.1849,-4.306,-4.4228,-4.4026,-4.5317,-4.6517,-4.6085,-4.6398,-4.68,-4.6764,-4.7277,-4.7754,-4.7937,-4.8139,-4.8286,-4.8286,-4.9058,-4.9844,-5.0432,-5.1406,-5.2354,-5.4081,-5.4841,-5.5598,-5.6371,-5.7141,-5.7732,-5.8256,-5.8715,-5.9065,-5.9283,-5.865,-5.8278,-5.8278,-5.8278,-5.8278,-5.8278,-5.9239,-5.9698,-5.9698,-6.02,-6.0419,-3.0986,-3.1894,-3.2626,-3.3533,-3.3276,-3.2624,-3.2222,-3.1825,-3.1407,-3.1978,-3.2158,-3.2278,-3.2688,-3.3399,-3.3559,-3.2216,-3.1424,0.0,0.0,0.0,0.0,0.0,0.0,0.0,0.0,0.0,0.0,0.0,0.0,0.0,0.0,0.0,0.0,0.0,-4.1849,-4.1849,-4.1849,-4.1849,-4.1849,-4.1849,-4.1849,-4.1849,-4.1849,-4.1849,-4.1849,-4.1849,-4.1849,-4.1849,-4.1849,-4.1849,-4.1849,-4.1849,-4.1849,-4.1849,-4.1849,-4.1849,-4.1849,-4.1849,-4.1849,-4.1849,-4.1849,-4.1849,-4.1849,-4.1849,-4.1849,-4.1849,-4.1849,-4.1849,-4.2038,-4.2227,-4.2147,-4.3537,-4.4847,-4.4687,-4.611,-4.724,-4.6617,-4.6654,-4.6764,-4.6525,-4.7057,-4.7589,-4.7681,-4.8029,-4.8286,-4.8286,-4.9648,-5.0822,-5.1017,-5.2547,-5.4081,-5.5598,-5.5807,-5.6184,-5.7328,-5.7514,-5.7688,-5.8082,-5.854,-5.8802,-5.8802,-5.8366,-5.8104,-5.8104,-5.8104,-5.8104,-5.8104,-5.8955,-5.9414,-5.9545,-6.0026,-6.031,-3.2385,-3.3112,-3.3602,-3.4374,-3.4719,-3.4525,-3.2842,-3.2793,-3.2676,-3.1296,-3.0778,-3.0655,-3.0668,-3.2243,-3.3021,-3.2448,-3.2713,0.0,0.0,0.0,0.0,0.0,0.0,0.0,0.0,0.0,0.0,0.0,0.0,0.0,0.0,0.0,0.0,0.0,0.0,-4.1849,-4.1849,-4.1849,-4.1849,-4.1849,-4.1849,-4.1849,-4.1849,-4.1849,-4.1849,-4.1849,-4.1849,-4.1849,-4.1849,-4.1849,-4.1849,-4.1849,-4.1849,-4.1849,-4.1849,-4.1849,-4.1849,-4.1849,-4.1849,-4.1849,-4.1849,-4.1849,-4.1849,-4.1849,-4.1849,-4.1849,-4.1849,-4.1849,-4.2652,-4.3384,-4.2853,-4.3774,-4.4669,-4.5273,-4.6067,-4.6544,-4.6489,-4.6213,-4.6085,-4.6415,-4.6837,-4.7259,-4.7626,-4.8029,-4.8286,-4.8286,-4.9648,-5.1212,-5.2547,-5.4081,-5.5619,-5.7141,-5.7328,-5.7328,-5.7536,-5.7514,-5.7536,-5.7579,-5.806,-5.8322,-5.8322,-5.7841,-5.7579,-5.7579,-5.7579,-5.7579,-5.7579,-5.8125,-5.8606,-5.9043,-5.9523,-5.9982,-3.1148,-3.1772,-3.2428,-3.4997,-3.5338,-3.4766,-3.4098,-3.3414,-3.2883,-3.2842,-3.177,-3.0702,-3.0522,-3.2749,-3.3782,-3.124,-3.2025,0.0,0.0,0.0,0.0,0.0,0.0,0.0,0.0,0.0,0.0,0.0,0.0,0.0,0.0,0.0,0.0,0.0,0.0,-4.1849,-4.1849,-4.1849,-4.1849,-4.1849,-4.1849,-4.1849,-4.1849,-4.1849,-4.1849,-4.1849,-4.1849,-4.1849,-4.1849,-4.1849,-4.1849,-4.1849,-4.1849,-4.1849,-4.1849,-4.1849,-4.1849,-4.1849,-4.1849,-4.1849,-4.1849,-4.1849,-4.1849,-4.1849,-4.1849,-4.1849,-4.1849,-4.1849,-4.2652,-4.3384,-4.3021,-4.4123,-4.5357,-4.5116,-4.5814,-4.6415,-4.6158,-4.5993,-4.6012,-4.6397,-4.6819,-4.7222,-4.7626,-4.8029,-4.8682,-4.9648,-5.0998,-5.2547,-5.4081,-5.5619,-5.6767,-5.7514,-5.7514,-5.7514,-5.7514,-5.7514,-5.7514,-5.7514,-5.771,-5.782,-5.782,-5.7623,-5.7514,-5.7514,-5.7514,-5.7514,-5.7514,-5.8038,-5.8366,-5.8562,-5.9327,-5.9807,-3.0677,-3.1204,-3.2158,-3.4709,-3.4831,-3.4456,-3.4653,-3.3916,-3.3257,-3.3787,-3.3007,-3.2385,-3.2846,-3.4191,-3.4474,0.0,0.0,0.0,0.0,0.0,0.0,0.0,0.0,0.0,0.0,0.0,0.0,0.0,0.0,0.0,0.0,0.0,0.0,0.0,-4.1849,-4.1849,-4.1849,-4.1849,-4.1849,-4.1849,-4.1849,-4.1849,-4.1849,-4.1849,-4.1849,-4.1849,-4.1849,-4.1849,-4.1849,-4.1849,-4.1849,-4.1849,-4.1849,-4.1849,-4.1849,-4.1849,-4.1849,-4.1849,-4.1849,-4.1849,-4.1849,-4.1849,-4.1849,-4.1849,-4.1849,-4.1849,-4.1833,-4.2259,-4.306,-4.3959,-4.369,-4.4747,-4.5736,-4.5322,-4.5716,-4.6213,-4.5957,-4.5883,-4.6012,-4.6397,-4.6819,-4.7222,-4.7626,-4.8404,-4.9452,-5.0432,-5.2354,-5.4081,-5.5031,-5.6559,-5.7514,-5.7514,-5.7514,-5.7514,-5.7514,-5.7514,-5.7514,-5.7514,-5.7514,-5.7514,-5.7514,-5.7514,-5.7514,-5.7514,-5.7514,-5.7514,-5.7514,-5.7885,-5.8125,-5.83,-5.9108,-5.9545,-3.1089,-3.211,-3.3306,-3.3439,-3.3263,-3.3268,-3.3887,-3.4139,-3.3978,-3.3591,-3.4325,-3.5662,-3.7669,-3.6549,0.0,0.0,0.0,0.0,0.0,0.0,0.0,0.0,0.0,0.0,0.0,0.0,0.0,0.0,0.0,0.0,0.0,0.0,0.0,0.0,-4.1849,-4.1849,-4.1849,-4.1849,-4.1849,-4.1849,-4.1849,-4.1849,-4.1849,-4.1849,-4.1849,-4.1849,-4.1849,-4.1849,-4.1849,-4.1849,-4.1849,-4.1849,-4.1849,-4.1849,-4.1849,-4.1849,-4.1849,-4.1849,-4.1849,-4.1849,-4.1849,-4.1849,-4.1849,-4.1849,-4.1849,-4.1849,-4.2038,-4.3263,-4.4262,-4.5099,-4.5344,-4.5541,-4.554,-4.5896,-4.5883,-4.5883,-4.5883,-4.5883,-4.6012,-4.6415,-4.6819,-4.7222,-4.7626,-4.9384,-5.0627,-5.0627,-5.3316,-5.522,-5.522,-5.6559,-5.7514,-5.7514,-5.7514,-5.7514,-5.7514,-5.7514,-5.7514,-5.7514,-5.7514,-5.7514,-5.7514,-5.7514,-5.7514,-5.7514,-5.7514,-5.7514,-5.7514,-5.7514,-5.7776,-5.8278,-5.8737,-5.9218,-3.1152,-3.0908,-3.1056,-3.3799,-3.2987,-3.184,-3.3135,-3.3709,-3.3851,-3.3114,-3.3823,-3.4773,-3.5018,-3.5246,0.0,0.0,0.0,0.0,0.0,0.0,0.0,0.0,0.0,0.0,0.0,0.0,0.0,0.0,0.0,0.0,0.0,0.0,0.0,0.0,-4.2243,-4.1849,-4.1849,-4.1849,-4.1849,-4.1849,-4.1849,-4.1849,-4.1849,-4.1849,-4.1849,-4.1849,-4.1849,-4.1849,-4.1849,-4.1849,-4.1849,-4.1849,-4.1849,-4.1849,-4.1849,-4.1849,-4.1849,-4.1849,-4.1849,-4.1849,-4.1849,-4.1849,-4.1849,-4.1849,-4.1849,-4.2447,-4.306,-4.3467,-4.4868,-4.61,-4.554,-4.6125,-4.6507,-4.6085,-4.5883,-4.5883,-4.5883,-4.5883,-4.6103,-4.6782,-4.702,-4.7702,-4.9346,-5.016,-5.1387,-5.3508,-5.4652,-5.5598,-5.6746,-5.7141,-5.7514,-5.7514,-5.7514,-5.7514,-5.7514,-5.7514,-5.7383,-5.7033,-5.7339,-5.7514,-5.7514,-5.7514,-5.7514,-5.7514,-5.7514,-5.7514,-5.7514,-5.7514,-5.7601,-5.7754,-5.8256,-5.9296,-3.2144,-3.2062,-3.2066,-3.3859,-3.2927,-3.1568,-3.2243,-3.3037,-3.3475,-3.3336,-3.4644,-3.5677,-3.4801,-3.5069,0.0,0.0,0.0,0.0,0.0,0.0,0.0,0.0,0.0,0.0,0.0,0.0,0.0,0.0,0.0,0.0,0.0,0.0,0.0,0.0,-4.306,-4.2447,-4.2447,-4.2038,-4.1849,-4.1849,-4.1849,-4.1849,-4.1849,-4.1849,-4.1849,-4.1849,-4.1849,-4.1849,-4.1849,-4.1849,-4.1849,-4.1849,-4.1849,-4.1849,-4.1849,-4.1849,-4.1849,-4.1849,-4.1849,-4.1849,-4.1849,-4.1849,-4.1849,-4.1833,-4.2243,-4.2856,-4.367,-4.4464,-4.5674,-4.6697,-4.6322,-4.6707,-4.691,-4.6085,-4.5883,-4.5883,-4.5883,-4.5883,-4.614,-4.6947,-4.7672,-4.8493,-5.0279,-5.1581,-5.3124,-5.4841,-5.5786,-5.6371,-5.7328,-5.7514,-5.7514,-5.7514,-5.7514,-5.7514,-5.7514,-5.7514,-5.7317,-5.6837,-5.7252,-5.7448,-5.7252,-5.7426,-5.7514,-5.7514,-5.7514,-5.7514,-5.7514,-5.7514,-5.7514,-5.7536,-5.8038,-5.936,-3.3581,-3.4411,-3.4941,-3.3816,-3.2767,-3.1905,-3.1514,-3.2198,-3.2872,-3.3726,-3.573,-3.7065,-3.5928,0.0,0.0,0.0,0.0,0.0,0.0,0.0,0.0,0.0,0.0,0.0,0.0,0.0,0.0,0.0,0.0,0.0,0.0,0.0,0.0,0.0,-4.4279,-4.367,-4.3467,-4.2447,-4.1833,0.0,-4.1849,-4.1849,-4.1849,-4.1849,-4.1849,-4.1849,-4.1849,-4.1849,-4.1849,-4.1849,-4.1849,-4.1849,-4.1849,-4.1849,-4.1849,-4.1849,-4.1849,-4.1849,-4.1849,-4.1849,-4.1849,-4.1849,-4.1849,-4.2038,-4.306,-4.367,-4.4076,-4.6075,-4.6676,-4.6914,-4.7156,-4.713,-4.691,-4.6122,-4.592,-4.5883,-4.5883,-4.6072,-4.6311,-4.714,-4.8613,-4.9818,-5.0862,-5.3316,-5.522,-5.5409,-5.6559,-5.7514,-5.7514,-5.7514,-5.7514,-5.7514,-5.7514,-5.7514,-5.7514,-5.7514,-5.7295,-5.6771,-5.723,-5.7295,-5.6749,-5.7252,-5.7514,-5.7514,-5.7514,-5.7514,-5.7514,-5.7514,-5.7514,-5.7722,-5.8182,-5.9665,-3.3263,-3.3641,-3.3766,-3.4423,-3.2432,-3.0489,-3.0668,-3.09,-3.1285,-3.3037,-3.3461,-3.3571,0.0,0.0,0.0,0.0,0.0,0.0,0.0,0.0,0.0,0.0,0.0,0.0,0.0,0.0,0.0,0.0,0.0,0.0,0.0,0.0,0.0,-4.6276,-4.5271,-4.4262,-4.3467,-4.3263,-4.2652,0.0,-4.1849,-4.1849,-4.1849,-4.1849,-4.1849,-4.1849,-4.1849,-4.1849,-4.1849,-4.1849,-4.1849,-4.1849,-4.1849,-4.1849,-4.1849,-4.1849,-4.1849,-4.1849,-4.1849,-4.1849,-4.1849,-4.1849,-4.1849,-4.2038,-4.306,-4.4076,-4.507,-4.6276,-4.7274,-4.7978,-4.7699,-4.7332,-4.6984,-4.647,-4.6122,-4.5883,-4.5883,-4.6803,-4.7797,-4.8824,-5.0117,-5.1697,-5.3916,-5.4841,-5.5598,-5.6767,-5.7328,-5.7514,-5.7514,-5.7514,-5.7514,-5.7514,-5.7514,-5.7514,-5.7514,-5.7514,-5.7164,-5.6312,-5.7055,-5.7142,-5.629,-5.7077,-5.7514,-5.7514,-5.7514,-5.7514,-5.7514,-5.7514,-5.8234,-5.9863,-5.9977,-6.1788,-3.2947,-3.3554,-3.4001,-3.483,-3.2481,-3.0497,-3.2518,-3.2302,-3.2149,-3.4358,-3.3654,0.0,0.0,0.0,0.0,0.0,0.0,0.0,0.0,0.0,0.0,0.0,0.0,0.0,0.0,0.0,0.0,0.0,0.0,0.0,0.0,-4.769,-4.7491,-4.7491,-4.6476,-4.5271,-4.4262,-4.367,-4.2856,-4.1849,-4.1849,-4.1849,-4.1849,-4.1849,-4.1849,-4.1849,-4.1849,-4.1849,-4.1849,-4.1849,-4.1849,-4.1849,-4.1849,-4.1849,-4.1849,-4.1849,-4.1849,-4.1849,-4.1849,-4.1849,-4.1849,-4.2447,-4.2652,-4.2856,-4.4464,-4.5473,-4.6075,-4.7075,-4.7889,-4.8194,-4.7791,-4.7406,-4.7057,-4.6837,-4.6324,-4.6072,-4.6803,-4.7702,-4.8775,-5.0169,-5.1765,-5.3446,-5.4905,-5.5807,-5.6559,-5.7328,-5.7514,-5.7514,-5.7514,-5.7514,-5.7514,-5.7514,-5.7514,-5.7514,-5.7514,-5.7514,-5.7121,-5.6181,-5.6989,-5.7099,-5.6159,-5.7011,-5.7514,-5.7514,-5.7514,-5.7514,-5.7514,-5.7514,-5.8418,-6.0386,-6.0386,-6.2197,-3.2404,-3.3383,-3.4534,-3.4913,-3.2559,-3.1086,-3.4771,-3.4071,-3.3455,-3.5486,0.0,0.0,0.0,0.0,0.0,0.0,0.0,0.0,0.0,0.0,0.0,0.0,0.0,0.0,0.0,0.0,0.0,0.0,0.0,0.0,-4.8286,-4.8286,-4.8286,-4.8286,-4.7473,-4.6276,-4.507,-4.4279,-4.306,-4.1849,-4.1849,-4.1849,-4.1849,-4.1849,-4.1849,-4.1849,-4.1849,-4.1849,-4.1849,-4.1849,-4.1849,-4.1849,-4.1849,-4.1849,-4.1849,-4.1849,-4.1849,-4.1849,-4.1849,-4.1849,-4.2038,-4.306,-4.3467,-4.3873,-4.6075,-4.6676,-4.6876,-4.8088,-4.8286,-4.8212,-4.7882,-4.7461,-4.713,-4.7185,-4.6716,-4.6635,-4.7998,-4.8846,-4.9964,-5.1711,-5.3717,-5.5133,-5.5534,-5.6559,-5.7514,-5.7514,-5.7514,-5.7514,-5.7514,-5.7514,-5.7514,-5.7514,-5.7514,-5.7514,-5.7514,-5.7514,-5.7121,-5.6181,-5.6989,-5.7099,-5.6159,-5.7011,-5.7514,-5.7514,-5.7514,-5.77,-5.8071,-5.8071,-5.9132,-6.1445,-6.1445,-6.2913,-3.0877,-3.183,-3.3009,-3.4283,-3.2429,-3.1086,-3.4583,-3.3224,-3.1916,0.0,0.0,0.0,0.0,0.0,0.0,0.0,0.0,0.0,0.0,0.0,0.0,0.0,0.0,0.0,0.0,0.0,0.0,0.0,0.0,0.0,-4.8286,-4.8286,-4.8286,-4.8286,-4.8088,-4.7075,-4.507,-4.4868,-4.3856,-4.1849,-4.1849,-4.1849,-4.1849,-4.1849,-4.1849,-4.1849,-4.1849,-4.1849,-4.1849,-4.1849,-4.1849,-4.1849,-4.1849,-4.1849,-4.1849,-4.1849,-4.1849,-4.1849,-4.1849,-4.1849,-4.2038,-4.306,-4.3467,-4.3873,-4.6075,-4.6676,-4.6876,-4.8088,-4.8286,-4.8267,-4.8212,-4.7662,-4.7185,-4.7534,-4.7664,-4.8018,-4.855,-5.0715,-5.274,-5.3382,-5.5479,-5.7054,-5.7141,-5.7328,-5.7514,-5.7514,-5.7514,-5.7514,-5.7514,-5.7514,-5.7514,-5.7514,-5.7514,-5.7514,-5.7514,-5.7514,-5.7121,-5.6181,-5.6989,-5.7099,-5.6159,-5.7011,-5.7514,-5.7514,-5.7514,-5.8418,-6.0022,-6.0022,-6.1803,-6.5322,-6.5322,-6.6076,-2.9793,-3.0781,-3.1558,-3.3201,-3.184,-3.1288,-3.5777,-3.4463,-3.3201,0.0,0.0,0.0,0.0,0.0,0.0,0.0,0.0,0.0,0.0,0.0,0.0,0.0,0.0,0.0,0.0,0.0,0.0,0.0,0.0,-4.769,-4.8286,-4.8286,-4.8286,-4.8286,-4.8286,-4.7473,-4.6075,-4.6075,-4.4868,-4.2652,-4.2054,-4.1849,-4.1849,-4.1849,-4.1849,-4.1849,-4.1849,-4.1849,-4.1849,-4.1849,-4.1849,-4.1849,-4.1849,-4.1849,-4.1849,-4.1849,-4.1849,-4.1849,-4.2447,-4.2652,-4.306,-4.4666,-4.5271,-4.5674,-4.7075,-4.7672,-4.7672,-4.8088,-4.8286,-4.8286,-4.8286,-4.7864,-4.7729,-4.9095,-4.9548,-5.0099,-5.1711,-5.2786,-5.4118,-5.5622,-5.6859,-5.7514,-5.7514,-5.7514,-5.7514,-5.7514,-5.7514,-5.7514,-5.7514,-5.7514,-5.7514,-5.7514,-5.7514,-5.7514,-5.7514,-5.7273,-5.6837,-5.6159,-5.6509,-5.6553,-5.6138,-5.6771,-5.7252,-5.7514,-5.7514,-5.8418,-6.0386,-6.0386,-6.2315,-6.6011,-6.571,-6.6296,-2.8975,-2.9817,-3.0314,-3.2398,-3.1851,-3.2138,-3.6392,-3.5725,-3.4841,0.0,0.0,0.0,0.0,0.0,0.0,0.0,0.0,0.0,0.0,0.0,0.0,0.0,0.0,0.0,0.0,0.0,0.0,0.0,0.0,-4.7075,-4.8286,-4.8286,-4.8286,-4.8286,-4.8286,-4.769,-4.6676,-4.6075,-4.507,-4.3467,-4.2243,-4.1849,-4.1849,-4.1849,-4.1849,-4.1849,-4.1849,-4.1849,-4.1849,-4.1849,-4.1849,-4.1849,-4.1849,-4.1849,-4.1849,-4.1849,-4.2038,-4.2447,-4.3263,-4.367,-4.4279,-4.6075,-4.6676,-4.6876,-4.7889,-4.8286,-4.8286,-4.8286,-4.8286,-4.8267,-4.8157,-4.7919,-4.8145,-5.0007,-5.0791,-5.184,-5.4398,-5.4747,-5.5202,-5.7175,-5.7514,-5.7514,-5.7514,-5.7514,-5.7514,-5.7514,-5.7514,-5.7514,-5.7514,-5.7514,-5.7514,-5.7514,-5.7514,-5.7514,-5.7514,-5.7077,-5.6596,-5.6138,-5.6116,-5.6116,-5.6116,-5.6553,-5.7033,-5.7514,-5.7514,-5.8764,-6.1085,-6.1085,-6.3025,-6.672,-6.6289,-6.6426,-2.7982,-2.9017,-3.0006,-3.1777,-3.2592,-3.3312,-3.5487,0.0,0.0,0.0,0.0,0.0,0.0,0.0,0.0,0.0,0.0,0.0,0.0,0.0,0.0,0.0,0.0,0.0,0.0,0.0,0.0,0.0,0.0,-4.7075,-4.8286,-4.8286,-4.8286,-4.8286,-4.8286,-4.769,-4.6676,-4.4666,-4.367,-4.3467,-4.2243,-4.1849,-4.1849,-4.1849,-4.1849,-4.1849,-4.1849,-4.1849,-4.1849,-4.1849,-4.1849,-4.1849,-4.1849,-4.1849,-4.1849,-4.1849,-4.2447,-4.3467,-4.3467,-4.4076,-4.5271,-4.6276,-4.6676,-4.6876,-4.7889,-4.8286,-4.8286,-4.8286,-4.8286,-4.8194,-4.7827,-4.7717,-4.8071,-4.9625,-5.0791,-5.2331,-5.5388,-5.6282,-5.6902,-5.7426,-5.7514,-5.7514,-5.7514,-5.7514,-5.7514,-5.7514,-5.7514,-5.7514,-5.7514,-5.7514,-5.7514,-5.7514,-5.7514,-5.7514,-5.7514,-5.7077,-5.6596,-5.6138,-5.6116,-5.6116,-5.6116,-5.6553,-5.7033,-5.7514,-5.7514,-5.9293,-6.3025,-6.3025,-6.4976,-6.8654,-6.8654,-6.8002,-2.7197,-2.8369,-2.9471,-3.0918,-3.1642,-3.2519,-3.5469,-3.4773,0.0,0.0,0.0,0.0,0.0,0.0,0.0,0.0,0.0,0.0,0.0,0.0,0.0,0.0,0.0,0.0,0.0,0.0,0.0,0.0,0.0,0.0,-4.8286,-4.8286,-4.8286,-4.8286,-4.8286,-4.8088,-4.7672,-4.6276,-4.5271,-4.4464,-4.3467,-4.2447,-4.1849,-4.1849,-4.1849,-4.1849,-4.1849,-4.1849,-4.1849,-4.1849,-4.1849,-4.1849,-4.1849,-4.1849,-4.1849,-4.2652,-4.306,-4.367,-4.507,-4.5875,-4.6276,-4.7274,-4.769,-4.7889,-4.8088,-4.8286,-4.8286,-4.8286,-4.8286,-4.8249,-4.8102,-4.8084,-4.8582,-5.0801,-5.3485,-5.5607,-5.6435,-5.6684,-5.6946,-5.7426,-5.7514,-5.7514,-5.7514,-5.7514,-5.7514,-5.7514,-5.7514,-5.7514,-5.7514,-5.7514,-5.7514,-5.7514,-5.7514,-5.7514,-5.7514,-5.6815,-5.629,-5.6116,-5.5526,-5.546,-5.6094,-5.6269,-5.6727,-5.7514,-5.8787,-6.0544,-6.3201,-6.3201,-6.5149,-6.8847,-6.8481,-6.8063,-2.59,-2.7144,-2.8453,-2.9748,-3.0788,-3.2179,-3.4617,-3.4326,0.0,0.0,0.0,0.0,0.0,0.0,0.0,0.0,0.0,0.0,0.0,0.0,0.0,0.0,0.0,0.0,0.0,0.0,0.0,0.0,0.0,0.0,-4.8286,-4.8286,-4.8286,-4.8286,-4.8286,-4.8286,-4.8286,-4.7274,-4.6075,-4.507,-4.4076,-4.2856,-4.1849,-4.1849,-4.1849,-4.1849,-4.1849,-4.1849,-4.1849,-4.1849,-4.1849,-4.1849,-4.1849,-4.2038,-4.2447,-4.3263,-4.3873,-4.4868,-4.6276,-4.6876,-4.7274,-4.8088,-4.8286,-4.8286,-4.8286,-4.8286,-4.8286,-4.8286,-4.8286,-4.8249,-4.8121,-4.8853,-5.0164,-5.27,-5.5386,-5.7426,-5.7121,-5.7033,-5.7142,-5.747,-5.7514,-5.7514,-5.7514,-5.7514,-5.7514,-5.7514,-5.7514,-5.7514,-5.7514,-5.7514,-5.7514,-5.7514,-5.7514,-5.747,-5.7295,-5.6574,-5.605,-5.5875,-5.5111,-5.5089,-5.6072,-5.6116,-5.6918,-5.8396,-5.9658,-6.1624,-6.408,-6.408,-6.5667,-6.8847,-6.8455,-6.8437,0.0,0.0,0.0,-2.8368,-3.023,-3.2112,-3.3016,0.0,0.0,0.0,0.0,0.0,0.0,0.0,0.0,0.0,0.0,0.0,0.0,0.0,0.0,0.0,0.0,0.0,0.0,0.0,0.0,0.0,0.0,-4.6075,-4.8286,-4.8286,-4.8286,-4.8286,-4.8286,-4.8286,-4.8286,-4.7274,-4.6276,-4.507,-4.4059,-4.306,-4.1849,-4.1849,-4.1849,-4.1849,-4.1849,-4.1849,-4.1849,-4.1849,-4.1849,-4.1849,-4.1849,-4.2447,-4.3467,-4.3467,-4.4868,-4.6676,-4.6676,-4.7473,-4.8286,-4.8286,-4.8286,-4.8286,-4.8267,-4.8267,-4.8267,-4.8249,-4.8249,-4.8157,-4.7772,-4.9954,-5.2728,-5.4716,-5.6371,-5.7514,-5.7514,-5.7514,-5.7514,-5.7514,-5.7514,-5.7514,-5.7514,-5.7514,-5.7514,-5.7514,-5.7514,-5.7514,-5.7514,-5.7514,-5.7514,-5.7514,-5.7514,-5.7317,-5.6837,-5.6378,-5.5897,-5.5417,-5.4936,-5.5089,-5.605,-5.6116,-5.7419,-6.0317,-6.0363,-6.2291,-6.6011,-6.6011,-6.6891,-6.8847,-6.8847,-6.932,-2.301,0.0,0.0,0.0,0.0,0.0,0.0,0.0,0.0,0.0,0.0,0.0,0.0,0.0,0.0,0.0,0.0,0.0,0.0,0.0,0.0,0.0,0.0,0.0,0.0,0.0,0.0,0.0,-4.7274,-4.7672,-4.8286,-4.8286,-4.8286,-4.8286,-4.8286,-4.8286,-4.8286,-4.8088,-4.7274,-4.6276,-4.5875,-4.4868,-4.306,-4.306,-4.2652,-4.1849,-4.1849,-4.1849,-4.1849,-4.1849,-4.1849,-4.1849,-4.1849,-4.2447,-4.367,-4.4464,-4.5473,-4.6876,-4.769,-4.8088,-4.8286,-4.8286,-4.8286,-4.8231,-4.7937,-4.7864,-4.7791,-4.7516,-4.7424,-4.76,-4.8629,-5.0508,-5.2647,-5.4299,-5.6114,-5.7514,-5.7514,-5.7514,-5.7514,-5.7514,-5.7514,-5.7514,-5.7514,-5.7514,-5.7514,-5.7514,-5.7514,-5.7514,-5.7514,-5.7514,-5.7514,-5.7514,-5.7514,-5.7317,-5.6837,-5.6378,-5.5897,-5.5417,-5.4936,-5.4936,-5.557,-5.5919,-5.7109,-5.9105,-6.0851,-6.2973,-6.5434,-6.5835,-6.6891,-6.8847,-6.8847,-6.9109,-2.1887,-2.3803,-2.5857,-2.5913,0.0,0.0,0.0,0.0,0.0,0.0,0.0,0.0,0.0,0.0,0.0,0.0,0.0,0.0,0.0,0.0,0.0,0.0,0.0,0.0,0.0,0.0,0.0,-4.6676,-4.7274,-4.7889,-4.8286,-4.8286,-4.8286,-4.8286,-4.8286,-4.8286,-4.8286,-4.8286,-4.769,-4.6676,-4.6676,-4.5674,-4.3467,-4.3467,-4.2856,-4.1849,-4.1849,-4.1849,-4.1849,-4.1849,-4.1849,-4.1849,-4.2243,-4.3263,-4.4262,-4.5271,-4.6476,-4.7473,-4.8088,-4.8286,-4.8286,-4.8286,-4.8286,-4.8212,-4.7809,-4.7699,-4.7607,-4.7222,-4.748,-4.8422,-4.9928,-5.1738,-5.357,-5.5086,-5.6587,-5.7514,-5.7514,-5.7514,-5.7514,-5.7514,-5.7514,-5.7514,-5.7514,-5.7514,-5.7514,-5.7514,-5.7514,-5.7514,-5.7514,-5.7514,-5.7514,-5.7514,-5.7514,-5.7252,-5.6574,-5.6269,-5.581,-5.5133,-5.4805,-5.4871,-5.5373,-5.653,-5.8184,-5.9902,-6.2292,-6.4477,-6.6412,-6.6745,-6.7557,-6.8847,-6.8847,-6.9162,-2.1124,-2.2162,-2.3497,-2.405,-2.5453,0.0,0.0,0.0,0.0,0.0,0.0,0.0,0.0,0.0,0.0,0.0,0.0,0.0,0.0,0.0,0.0,0.0,0.0,0.0,0.0,-4.3467,-4.4481,-4.6476,-4.6676,-4.7274,-4.8286,-4.8286,-4.8286,-4.8286,-4.8286,-4.8286,-4.8286,-4.8286,-4.7889,-4.6876,-4.6876,-4.5875,-4.3873,-4.367,-4.306,-4.2038,-4.1833,-4.1849,-4.1849,-4.1849,-4.1849,-4.1849,-4.306,-4.4076,-4.5271,-4.6276,-4.7274,-4.8286,-4.8286,-4.8249,-4.8231,-4.8267,-4.8231,-4.8084,-4.7736,-4.7607,-4.7479,-4.7075,-4.8099,-4.9602,-5.1089,-5.295,-5.4816,-5.6338,-5.7142,-5.7514,-5.7514,-5.7514,-5.7514,-5.7514,-5.7514,-5.7514,-5.7514,-5.7514,-5.7514,-5.7514,-5.7514,-5.7514,-5.7514,-5.7514,-5.7514,-5.7514,-5.7514,-5.7164,-5.6269,-5.6138,-5.5723,-5.4783,-5.4696,-5.4849,-5.5286,-5.7489,-5.9611,-6.1446,-6.4105,-6.6143,-6.788,-6.8011,-6.835,-6.8847,-6.8847,-6.9346,-2.1799,-2.3168,-2.4711,-2.3403,-2.531,0.0,0.0,0.0,0.0,0.0,0.0,0.0,0.0,0.0,0.0,0.0,0.0,0.0,0.0,0.0,0.0,0.0,0.0,0.0,0.0,-4.3654,-4.4868,-4.5473,-4.7075,-4.8088,-4.8286,-4.8286,-4.8286,-4.8286,-4.8286,-4.8286,-4.8286,-4.8286,-4.8286,-4.8088,-4.8088,-4.7274,-4.6075,-4.5271,-4.4279,-4.306,-4.2243,-4.1849,-4.1849,-4.1849,-4.1849,-4.1849,-4.306,-4.4076,-4.5271,-4.6276,-4.7274,-4.8286,-4.8286,-4.8084,-4.7864,-4.8176,-4.7864,-4.7314,-4.724,-4.6984,-4.6635,-4.6232,-4.7234,-4.8711,-5.019,-5.2251,-5.4351,-5.5861,-5.6902,-5.7514,-5.7514,-5.7514,-5.7514,-5.7514,-5.7514,-5.7514,-5.7514,-5.7514,-5.7514,-5.7514,-5.7514,-5.7514,-5.7514,-5.7514,-5.7514,-5.7514,-5.7514,-5.7295,-5.6706,-5.6334,-5.5854,-5.5286,-5.4871,-5.4696,-5.4783,-5.697,-5.8912,-6.0339,-6.45,-6.6926,-6.7279,-6.822,-6.8883,-6.932,-6.932,-6.9816,-2.1959,-2.2827,-2.3619,-2.2772,-2.4024,0.0,0.0,0.0,0.0,0.0,0.0,0.0,0.0,0.0,0.0,0.0,0.0,0.0,0.0,0.0,0.0,0.0,0.0,0.0,0.0,-4.359,-4.5265,-4.6658,-4.7672,-4.8286,-4.8286,-4.8286,-4.8286,-4.8286,-4.8286,-4.8286,-4.8286,-4.8286,-4.8286,-4.8286,-4.8286,-4.769,-4.6676,-4.6075,-4.507,-4.3467,-4.2856,-4.2243,-4.1849,-4.2447,-4.2652,-4.2856,-4.3873,-4.4666,-4.5271,-4.6876,-4.7889,-4.8286,-4.8286,-4.8029,-4.7736,-4.7919,-4.7589,-4.7075,-4.6855,-4.6507,-4.614,-4.5938,-4.755,-4.942,-5.0374,-5.2782,-5.5226,-5.6217,-5.7011,-5.7514,-5.7514,-5.7514,-5.7514,-5.7514,-5.7514,-5.7514,-5.7514,-5.7514,-5.7514,-5.7514,-5.7514,-5.7514,-5.7514,-5.7514,-5.7514,-5.7514,-5.7514,-5.723,-5.6509,-5.6247,-5.581,-5.5067,-5.4783,-5.5159,-5.5991,-5.8161,-6.082,-6.35,-6.5943,-6.7253,-6.754,-6.8568,-6.932,-6.9485,-6.9485,-6.998,-2.2259,-2.2367,-2.2573,-2.2259,-2.3062,-2.4356,0.0,0.0,0.0,0.0,0.0,0.0,0.0,0.0,0.0,0.0,0.0,0.0,0.0,0.0,0.0,0.0,0.0,0.0,0.0,0.0,-4.5352,-4.7744,-4.8176,-4.8212,-4.8286,-4.8286,-4.8286,-4.8286,-4.8286,-4.8286,-4.8286,-4.8286,-4.8286,-4.8286,-4.8286,-4.7889,-4.7075,-4.6876,-4.5674,-4.3873,-4.3873,-4.3263,-4.2243,-4.3263,-4.3873,-4.3873,-4.507,-4.5473,-4.5674,-4.769,-4.8286,-4.8267,-4.8194,-4.7919,-4.7589,-4.7589,-4.7314,-4.691,-4.6489,-4.614,-4.5883,-4.6259,-4.8331,-5.0681,-5.1208,-5.3745,-5.6334,-5.6706,-5.7164,-5.7514,-5.7514,-5.7514,-5.7514,-5.7514,-5.7514,-5.7514,-5.7514,-5.7514,-5.7514,-5.7514,-5.7514,-5.7514,-5.7514,-5.7514,-5.7514,-5.7514,-5.7514,-5.7186,-5.6312,-5.6247,-5.5832,-5.4849,-5.4783,-5.5599,-5.7137,-5.9758,-6.3128,-6.6913,-6.707,-6.741,-6.7985,-6.903,-6.9485,-6.9651,-6.9651,-7.0144,-2.3116,-2.3442,-2.3671,-2.2271,-2.4402,0.0,0.0,0.0,0.0,0.0,0.0,0.0,0.0,0.0,0.0,0.0,0.0,0.0,0.0,0.0,0.0,0.0,0.0,0.0,0.0,0.0,0.0,-4.6359,-4.7165,-4.7919,-4.8267,-4.8286,-4.8286,-4.8286,-4.8286,-4.8286,-4.8286,-4.8286,-4.8286,-4.8286,-4.8286,-4.8286,-4.8088,-4.7075,-4.6075,-4.4868,-4.4868,-4.4279,-4.3467,-4.4464,-4.4868,-4.507,-4.6075,-4.6476,-4.6676,-4.7889,-4.8286,-4.8231,-4.7882,-4.7497,-4.7167,-4.7167,-4.6892,-4.647,-4.6085,-4.592,-4.6259,-4.755,-4.9267,-5.1229,-5.2574,-5.4915,-5.6727,-5.6793,-5.7164,-5.7514,-5.7514,-5.7514,-5.7514,-5.7514,-5.7514,-5.7514,-5.7514,-5.7514,-5.7514,-5.7514,-5.7514,-5.7514,-5.7514,-5.7514,-5.7514,-5.7514,-5.7514,-5.7295,-5.6771,-5.6727,-5.6312,-5.5351,-5.5308,-5.5955,-5.716,-6.0553,-6.3727,-6.6364,-6.6834,-6.7383,-6.7985,-6.903,-6.9651,-7.0144,-7.0472,-7.0961,-2.3973,-2.4202,-2.4263,0.0,0.0,0.0,-2.3638,0.0,-2.6534,0.0,0.0,0.0,0.0,0.0,0.0,0.0,0.0,0.0,0.0,0.0,0.0,0.0,0.0,0.0,0.0,0.0,0.0,0.0,0.0,-4.658,-4.7204,-4.7901,-4.8286,-4.8286,-4.8286,-4.8286,-4.8286,-4.8286,-4.8286,-4.8286,-4.8286,-4.8286,-4.8286,-4.7871,-4.7075,-4.6075,-4.6075,-4.5473,-4.4464,-4.5674,-4.6075,-4.6075,-4.7274,-4.7274,-4.6876,-4.7889,-4.8139,-4.7919,-4.7754,-4.7277,-4.6709,-4.647,-4.6287,-4.6103,-4.5938,-4.5883,-4.6259,-4.7736,-4.9492,-5.135,-5.3111,-5.5172,-5.6858,-5.7142,-5.7383,-5.7514,-5.7514,-5.7514,-5.7514,-5.7514,-5.7514,-5.7514,-5.7514,-5.7514,-5.7514,-5.7514,-5.7514,-5.7514,-5.7514,-5.7514,-5.7514,-5.7514,-5.7514,-5.7317,-5.6837,-5.6553,-5.6116,-5.5417,-5.714,-5.8718,-6.0337,-6.3187,-6.5485,-6.673,-6.7305,-6.8071,-6.8786,-6.9545,-7.0144,-7.0472,-7.0798,-7.1123,-2.5132,-2.5071,0.0,0.0,0.0,0.0,0.0,0.0,0.0,0.0,0.0,0.0,0.0,0.0,0.0,0.0,0.0,0.0,0.0,0.0,0.0,0.0,0.0,0.0,0.0,0.0,0.0,0.0,0.0,0.0,-4.6415,-4.7314,-4.7937,-4.8267,-4.8286,-4.8286,-4.8286,-4.8286,-4.8286,-4.8286,-4.8286,-4.8286,-4.8286,-4.8286,-4.7672,-4.6676,-4.7075,-4.6476,-4.5674,-4.6676,-4.7075,-4.7274,-4.8088,-4.7889,-4.7274,-4.8088,-4.8029,-4.7681,-4.7571,-4.7002,-4.6269,-4.5975,-4.5883,-4.5883,-4.5883,-4.5883,-4.6278,-4.8409,-5.004,-5.1759,-5.4103,-5.5883,-5.7077,-5.7448,-5.7514,-5.7514,-5.7514,-5.7514,-5.7514,-5.7514,-5.7514,-5.7514,-5.7514,-5.7514,-5.7514,-5.7514,-5.7514,-5.7514,-5.7514,-5.7514,-5.7514,-5.7514,-5.7514,-5.7317,-5.6837,-5.6487,-5.6209,-5.6109,-5.9271,-6.158,-6.2923,-6.5162,-6.6756,-6.7331,-6.7913,-6.8576,-6.9485,-7.0144,-7.0472,-7.0798,-7.0961,-7.115,0.0,0.0,0.0,-2.5458,0.0,0.0,0.0,0.0,-2.551,0.0,0.0,0.0,0.0,0.0,0.0,0.0,0.0,0.0,0.0,0.0,0.0,0.0,0.0,0.0,0.0,0.0,0.0,0.0,0.0,0.0,-4.6342,-4.6507,-4.7075,-4.8249,-4.8286,-4.8286,-4.8286,-4.8286,-4.8286,-4.8286,-4.8286,-4.8286,-4.8286,-4.8286,-4.7672,-4.6676,-4.7889,-4.7672,-4.6676,-4.7889,-4.8286,-4.8286,-4.8286,-4.8286,-4.8286,-4.8286,-4.8029,-4.7644,-4.7259,-4.6599,-4.5902,-4.5902,-4.5883,-4.5883,-4.5883,-4.5883,-4.6521,-5.004,-5.1222,-5.2413,-5.5883,-5.7142,-5.7514,-5.7514,-5.7514,-5.7514,-5.7514,-5.7514,-5.7514,-5.7514,-5.7514,-5.7514,-5.7514,-5.7514,-5.7514,-5.7514,-5.7514,-5.7514,-5.7514,-5.7514,-5.7514,-5.7514,-5.7514,-5.7317,-5.6837,-5.6793,-5.7061,-5.8007,-6.1497,-6.3525,-6.3525,-6.5754,-6.7357,-6.7958,-6.8287,-6.8905,-6.9485,-7.0308,-7.0798,-7.0798,-7.1312,-7.1474,0.0,0.0,-2.7824,-2.7377,0.0,0.0,0.0,0.0,0.0,0.0,0.0,0.0,0.0,0.0,0.0,0.0,0.0,0.0,0.0,0.0,0.0,0.0,0.0,0.0,0.0,0.0,0.0,0.0,0.0,0.0,0.0,-4.5902,-4.691,-4.7864,-4.8157,-4.8286,-4.8286,-4.8286,-4.8286,-4.8286,-4.8286,-4.8286,-4.8286,-4.8286,-4.8088,-4.769,-4.8088,-4.8088,-4.7889,-4.8088,-4.8286,-4.8286,-4.8286,-4.8286,-4.8286,-4.8286,-4.7864,-4.7204,-4.6544,-4.6122,-4.5883,-4.5883,-4.5883,-4.5883,-4.5883,-4.6635,-4.7812,-5.0245,-5.2005,-5.3755,-5.6111,-5.7164,-5.7514,-5.7514,-5.7514,-5.7514,-5.7514,-5.7514,-5.7514,-5.7514,-5.7514,-5.7514,-5.7514,-5.7514,-5.7514,-5.7514,-5.7514,-5.7514,-5.7514,-5.7514,-5.7514,-5.7514,-5.7514,-5.7317,-5.6837,-5.7267,-5.8144,-5.9323,-6.1998,-6.407,-6.5265,-6.6848,-6.7775,-6.7985,-6.8846,-6.9465,-6.998,-7.0472,-7.0961,-7.1312,-7.1474,-7.1474,-2.9369,-2.9212,0.0,-2.8789,-2.7353,0.0,-2.5482,0.0,0.0,0.0,0.0,0.0,0.0,0.0,0.0,-2.964,-2.8873,0.0,0.0,-2.8406,0.0,0.0,0.0,0.0,0.0,0.0,0.0,0.0,0.0,0.0,0.0,0.0,-4.6415,-4.7662,-4.8084,-4.8286,-4.8286,-4.8286,-4.8286,-4.8286,-4.8286,-4.8286,-4.8286,-4.8286,-4.8286,-4.8286,-4.8286,-4.8286,-4.8286,-4.8286,-4.8286,-4.8286,-4.8286,-4.8286,-4.8286,-4.8286,-4.7791,-4.6984,-4.6177,-4.5883,-4.5883,-4.5883,-4.5883,-4.5883,-4.5883,-4.7103,-4.8769,-5.067,-5.2601,-5.4562,-5.6555,-5.7295,-5.7514,-5.7514,-5.7514,-5.7514,-5.7514,-5.7514,-5.7514,-5.7514,-5.7514,-5.7514,-5.7514,-5.7514,-5.7514,-5.7514,-5.7514,-5.7514,-5.7514,-5.7514,-5.7514,-5.7514,-5.7361,-5.6989,-5.6356,-5.7975,-5.9483,-6.0315,-6.3194,-6.5462,-6.6887,-6.7802,-6.8194,-6.8149,-6.9195,-6.9874,-7.0178,-7.0718,-7.115,-7.1474,-7.1257,-7.1175]}]]